[[{"header":{"parameterUnit":"m.s-1","parameterCategory":1,"la1":31.0,"la2":29.5877,"lo1":-88.7671,"lo2":-86.6584,"dy":0.0162,"dx":0.0185,"nx":115,"ny":88,"refTime":"2023-08-09T18:00:00:Z","depth":0,"parameterNumber":2,"parameterNumberName":"U-component_of_WINDS"},"data":[0.0,0.0,0.0,0.0,0.0,0.0,0.0,0.0,0.0,0.0,0.0,0.0,0.0,0.0,0.0,0.0,0.0,0.0,0.0,0.0,0.0,0.0,0.0,0.0,0.0,0.0,0.0,0.0,0.0,0.0,0.0,0.0,0.0,0.0,0.0,0.0,0.0,0.0,0.0,0.0,0.0,0.0,0.0,0.0,0.0,0.0,0.0,0.0,0.0,0.0,0.0,0.0,0.0,0.0,0.0,0.0,0.0,0.0,0.0,0.0,0.0,0.0,0.0,0.0,0.0,0.0,0.0,0.0,0.0,0.0,0.0,0.0,0.0,0.0,0.0,0.0,0.0,0.0,0.0,0.0,0.0,0.0,0.0,0.0,0.0,0.0,0.0,0.0,0.0,0.0,0.0,0.0,0.0,0.0,0.0,0.0,0.0,0.0,0.0,0.0,0.0,0.0,0.0,0.0,0.0,0.0,0.0,0.0,0.0,0.0,0.0,0.0,0.0,0.0,0.0,0.0,0.0,0.0,0.0,0.0,0.0,0.0,0.0,0.0,0.0,0.0,0.0,0.0,0.0,0.0,0.0,0.0,0.0,0.0,0.0,0.0,0.0,0.0,0.0,0.0,0.0,0.0,0.0,0.0,0.0,0.0,0.0,0.0,0.0,0.0,0.0,0.0,0.0,0.0,0.0,0.0,0.0,0.0,0.0,0.0,0.0,0.0,0.0,0.0,0.0,0.0,0.0,0.0,0.0,0.0,0.0,0.0,0.0,0.0,0.0,0.0,0.0,0.0,0.0,0.0,0.0,0.0,0.0,0.0,0.0,0.0,0.0,0.0,0.0,0.0,0.0,0.0,0.0,0.0,0.0,0.0,0.0,0.0,0.0,0.0,0.0,0.0,0.0,0.0,0.0,0.0,0.0,0.0,0.0,0.0,0.0,0.0,0.0,0.0,0.0,0.0,0.0,0.0,0.0,0.0,0.0,0.0,0.0,0.0,0.0,0.0,0.0,0.0,0.0,0.0,0.0,0.0,0.0,0.0,0.0,0.0,0.0,0.0,0.0,0.0,0.0,0.0,0.0,0.0,0.0,0.0,0.0,0.0,0.0,0.0,0.0,0.0,0.0,0.0,0.0,0.0,0.0,0.0,0.0,0.0,0.0,0.0,0.0,0.0,0.0,0.0,0.0,0.0,0.0,0.0,0.0,0.0,0.0,0.0,0.0,0.0,0.0,0.0,0.0,0.0,0.0,0.0,0.0,0.0,0.0,0.0,0.0,0.0,0.0,0.0,0.0,0.0,0.0,0.0,0.0,0.0,0.0,0.0,0.0,0.0,0.0,0.0,0.0,0.0,0.0,0.0,0.0,0.0,0.0,0.0,0.0,0.0,0.0,0.0,0.0,0.0,0.0,0.0,0.0,0.0,0.0,0.0,0.0,0.0,0.0,0.0,0.0,0.0,0.0,0.0,0.0,0.0,0.0,0.0,0.0,0.0,0.0,0.0,0.0,0.0,0.0,0.0,0.0,0.0,0.0,0.0,0.0,0.0,0.0,0.0,0.0,0.0,0.0,0.0,0.0,0.0,0.0,0.0,0.0,0.0,0.0,0.0,0.0,0.0,0.0,0.0,0.0,0.0,0.0,0.0,0.0,0.0,0.0,0.0,0.0,0.0,0.0,0.0,0.0,0.0,0.0,0.0,0.0,0.0,0.0,0.0,0.0,0.0,0.0,0.0,0.0,0.0,0.0,0.0,0.0,0.0,0.0,0.0,0.0,0.0,0.0,0.0,0.0,0.0,0.0,0.0,0.0,0.0,0.0,0.0,0.0,0.0,0.0,0.0,0.0,0.0,0.0,0.0,0.0,0.0,0.0,0.0,0.0,0.0,0.0,0.0,0.0,0.0,0.0,0.0,0.0,0.0,0.0,0.0,0.0,0.0,0.0,0.0,0.0,0.0,0.0,0.0,0.0,0.0,0.0,0.0,0.0,0.0,0.0,0.0,0.0,0.0,0.0,0.0,0.0,0.0,0.0,0.0,0.0,0.0,0.0,0.0,0.0,0.0,0.0,0.0,0.0,0.0,0.0,0.0,0.0,0.0,0.0,0.0,0.0,0.0,0.0,0.0,0.0,0.0,0.0,0.0,0.0,0.0,0.0,0.0,0.0,0.0,0.0,0.0,0.0,0.0,0.0,0.0,0.0,0.0,0.0,0.0,0.0,0.0,0.0,0.0,0.0,0.0,0.0,0.0,0.0,0.0,0.0,0.0,0.0,0.0,0.0,0.0,0.0,0.0,0.0,0.0,0.0,0.0,0.0,0.0,0.0,0.0,0.0,0.0,0.0,0.0,0.0,0.0,0.0,0.0,0.0,0.0,0.0,0.0,0.0,0.0,0.0,0.0,0.0,0.0,0.0,0.0,0.0,0.0,0.0,0.0,0.0,0.0,0.0,0.0,0.0,0.0,0.0,0.0,0.0,0.0,0.0,0.0,0.0,0.0,0.0,0.0,0.0,0.0,0.0,0.0,0.0,0.0,0.0,0.0,0.0,0.0,0.0,0.0,0.0,0.0,0.0,0.0,0.0,0.0,0.0,0.0,0.0,0.0,0.0,0.0,0.0,0.0,0.0,0.0,0.0,0.0,0.0,0.0,0.0,0.0,0.0,0.0,0.0,0.0,0.0,0.0,0.0,0.0,0.0,0.0,0.0,0.0,0.0,0.0,0.0,0.0,0.0,0.0,0.0,0.0,0.0,0.0,0.0,0.0,0.0,0.0,0.0,0.0,0.0,0.0,0.0,0.0,0.0,0.0,0.0,0.0,0.0,0.0,0.0,0.0,0.0,0.0,0.0,0.0,0.0,0.0,0.0,0.0,0.0,0.0,0.0,0.0,0.0,0.0,0.0,0.0,0.0,0.0,0.0,0.0,0.0,0.0,0.0,0.0,0.0,0.0,0.0,0.0,0.0,0.0,0.0,0.0,0.0,0.0,0.0,0.0,0.0,0.0,0.0,0.0,0.0,0.0,0.0,0.0,0.0,0.0,0.0,0.0,0.0,0.0,0.0,0.0,0.0,0.0,0.0,0.0,0.0,0.0,0.0,0.0,0.0,0.0,0.0,0.0,0.0,0.0,0.0,0.0,0.0,0.0,0.0,0.0,0.0,0.0,0.0,0.0,0.0,0.0,0.0,0.0,0.0,0.0,0.0,0.0,0.0,0.0,0.0,0.0,0.0,0.0,0.0,0.0,0.0,0.0,0.0,0.0,0.0,0.0,0.0,0.0,0.0,0.0,0.0,0.0,0.0,0.0,0.0,0.0,0.0,0.0,0.0,0.0,0.0,0.0,0.0,0.0,0.0,0.0,0.0,0.0,0.0,0.0,0.0,0.0,0.0,0.0,0.0,0.0,0.0,0.0,0.0,0.0,0.0,0.0,0.0,0.0,0.0,0.0,0.0,0.0,0.0,0.0,0.0,0.0,0.0,0.0,0.0,0.0,0.0,0.0,0.0,0.0,0.0,0.0,0.0,0.0,0.0,0.0,0.0,0.0,0.0,0.0,0.0,0.0,0.0,0.0,0.0,0.0,0.0,0.0,0.0,0.0,0.0,0.0,0.0,0.0,0.0,0.0,0.0,0.0,0.0,0.0,0.0,0.0,0.0,0.0,0.0,0.0,0.0,0.0,0.0,0.0,0.0,0.0,0.0,0.0,0.0,0.0,0.0,0.0,0.0,0.0,0.0,0.0,0.0,0.0,0.0,0.0,0.0,0.0,0.0,0.0,0.0,0.0,0.0,0.0,0.0,0.0,0.0,0.0,0.0,0.0,0.0,0.0,0.0,0.0,0.0,0.0,0.0,0.0,0.0,0.0,0.0,0.0,0.0,0.0,0.0,0.0,0.0,0.0,0.0,0.0,0.0,0.0,0.0,0.0,0.0,0.0,0.0,0.0,0.0,0.0,0.0,0.0,0.0,0.0,0.0,0.0,0.0,0.0,0.0,0.0,0.0,0.0,0.0,0.0,0.0,0.0,0.0,0.0,0.0,0.0,0.0,0.0,0.0,0.0,0.0,0.0,0.0,0.0,0.0,0.0,0.0,0.0,0.0,0.0,0.0,0.0,0.0,0.0,0.0,0.0,0.0,0.0,0.0,0.0,0.0,0.0,0.0,0.0,0.0,0.0,0.0,0.0,0.0,0.0,0.0,0.0,0.0,0.0,0.0,0.0,0.0,0.0,0.0,0.0,0.0,0.0,0.0,0.0,0.0,0.0,0.0,0.0,0.0,0.0,0.0,0.0,-1.4296,0.0,0.0,0.0,0.0,0.0,0.0,0.0,0.0,0.0,0.0,0.0,0.0,0.0,0.0,0.0,0.0,0.0,0.0,0.0,0.0,0.0,0.0,0.0,0.0,0.0,0.0,0.0,0.0,0.0,0.0,0.0,0.0,0.0,0.0,0.0,0.0,0.0,0.0,0.0,0.0,0.0,0.0,0.0,0.0,0.0,0.0,0.0,0.0,0.0,0.0,0.0,0.0,0.0,0.0,0.0,0.0,0.0,0.0,0.0,0.0,0.0,0.0,0.0,0.0,0.0,0.0,0.0,0.0,0.0,0.0,0.0,0.0,0.0,0.0,0.0,0.0,0.0,0.0,0.0,0.0,0.0,0.0,0.0,0.0,0.0,0.0,0.0,0.0,0.0,0.0,0.0,0.0,0.0,0.0,0.0,0.0,0.0,0.0,0.0,0.0,0.0,0.0,0.0,0.0,0.0,0.0,0.0,0.0,0.0,0.0,-1.4926,-1.5394,-1.4487,-1.4136,-1.4435,0.0,0.0,0.0,0.0,0.0,0.0,0.0,0.0,0.0,0.0,0.0,0.0,0.0,0.0,0.0,0.0,0.0,0.0,0.0,0.0,0.0,0.0,0.0,0.0,0.0,0.0,0.0,0.0,0.0,0.0,0.0,0.0,0.0,0.0,0.0,0.0,0.0,0.0,0.0,0.0,0.0,0.0,0.0,0.0,0.0,0.0,0.0,0.0,0.0,0.0,0.0,0.0,0.0,0.0,0.0,0.0,0.0,0.0,0.0,0.0,0.0,0.0,0.0,0.0,0.0,0.0,0.0,0.0,0.0,0.0,0.0,0.0,0.0,0.0,0.0,0.0,0.0,0.0,0.0,0.0,0.0,0.0,0.0,0.0,0.0,0.0,0.0,0.0,0.0,0.0,0.0,0.0,0.0,0.0,0.0,0.0,0.0,0.0,0.0,0.0,0.0,0.0,0.0,0.0,0.0,0.0,0.0,0.0,0.0,0.0,0.0,0.0,-1.451,-1.4096,-1.4128,0.0,0.0,0.0,0.0,0.0,0.0,0.0,0.0,0.0,0.0,0.0,0.0,0.0,0.0,0.0,0.0,0.0,0.0,0.0,0.0,0.0,0.0,0.0,0.0,0.0,0.0,0.0,0.0,0.0,0.0,0.0,0.0,0.0,0.0,0.0,0.0,0.0,0.0,0.0,0.0,0.0,0.0,0.0,0.0,0.0,0.0,0.0,0.0,0.0,0.0,0.0,0.0,0.0,0.0,0.0,0.0,0.0,0.0,0.0,0.0,0.0,0.0,0.0,0.0,0.0,0.0,0.0,0.0,0.0,0.0,0.0,0.0,0.0,0.0,0.0,0.0,0.0,0.0,0.0,0.0,0.0,0.0,0.0,0.0,0.0,0.0,0.0,0.0,0.0,0.0,0.0,0.0,0.0,0.0,0.0,0.0,0.0,0.0,0.0,0.0,0.0,0.0,0.0,0.0,0.0,0.0,0.0,0.0,0.0,0.0,-1.4346,-1.4402,-1.4486,0.0,-1.3028,0.0,0.0,0.0,0.0,0.0,0.0,0.0,0.0,0.0,0.0,0.0,0.0,0.0,0.0,0.0,0.0,0.0,0.0,0.0,0.0,0.0,0.0,0.0,0.0,0.0,0.0,0.0,0.0,0.0,0.0,0.0,0.0,0.0,0.0,0.0,0.0,0.0,0.0,0.0,0.0,0.0,0.0,0.0,0.0,0.0,0.0,0.0,0.0,0.0,0.0,0.0,0.0,0.0,0.0,0.0,0.0,0.0,0.0,0.0,0.0,0.0,0.0,0.0,0.0,0.0,0.0,0.0,0.0,0.0,0.0,0.0,0.0,0.0,0.0,0.0,0.0,0.0,0.0,0.0,0.0,0.0,0.0,0.0,0.0,0.0,0.0,0.0,0.0,0.0,0.0,0.0,0.0,0.0,0.0,0.0,0.0,0.0,0.0,0.0,0.0,0.0,0.0,0.0,0.0,0.0,0.0,0.0,0.0,0.0,0.0,-1.3915,-1.4272,-1.4087,-1.3468,0.0,0.0,0.0,0.0,0.0,0.0,0.0,0.0,0.0,0.0,0.0,0.0,0.0,0.0,0.0,0.0,0.0,0.0,0.0,0.0,0.0,0.0,0.0,0.0,0.0,0.0,0.0,0.0,0.0,0.0,0.0,0.0,0.0,0.0,0.0,0.0,0.0,0.0,0.0,0.0,0.0,0.0,0.0,0.0,0.0,0.0,0.0,0.0,0.0,0.0,0.0,0.0,0.0,0.0,0.0,0.0,0.0,0.0,0.0,0.0,0.0,0.0,0.0,0.0,0.0,0.0,0.0,0.0,0.0,0.0,0.0,0.0,0.0,0.0,0.0,0.0,0.0,0.0,0.0,0.0,0.0,0.0,0.0,0.0,0.0,0.0,0.0,0.0,0.0,0.0,0.0,0.0,0.0,0.0,0.0,0.0,0.0,0.0,0.0,0.0,0.0,0.0,0.0,0.0,0.0,0.0,0.0,0.0,0.0,0.0,-1.3244,-1.3536,-1.401,-1.3551,-1.2952,-1.2061,0.0,0.0,0.0,0.0,0.0,0.0,0.0,0.0,0.0,0.0,0.0,0.0,0.0,0.0,0.0,0.0,0.0,0.0,0.0,0.0,0.0,0.0,0.0,0.0,0.0,0.0,0.0,0.0,0.0,0.0,0.0,0.0,0.0,0.0,0.0,0.0,0.0,0.0,0.0,0.0,0.0,0.0,0.0,0.0,0.0,0.0,0.0,0.0,0.0,0.0,0.0,0.0,0.0,0.0,0.0,0.0,0.0,0.0,0.0,0.0,0.0,0.0,0.0,0.0,0.0,0.0,0.0,0.0,0.0,0.0,0.0,0.0,0.0,0.0,0.0,0.0,0.0,0.0,0.0,0.0,0.0,0.0,0.0,0.0,0.0,0.0,0.0,0.0,0.0,0.0,0.0,0.0,0.0,0.0,0.0,0.0,0.0,0.0,0.0,0.0,0.0,0.0,0.0,0.0,0.0,0.0,0.0,0.0,-1.2829,-1.2829,-1.3047,-1.3482,-1.2934,-1.2462,0.0,0.0,0.0,0.0,0.0,0.0,0.0,0.0,0.0,0.0,0.0,0.0,0.0,0.0,0.0,0.0,0.0,0.0,0.0,0.0,0.0,0.0,0.0,0.0,0.0,0.0,0.0,0.0,0.0,0.0,0.0,0.0,0.0,0.0,0.0,0.0,0.0,0.0,0.0,0.0,0.0,0.0,0.0,0.0,0.0,0.0,0.0,0.0,0.0,0.0,0.0,0.0,0.0,0.0,0.0,0.0,0.0,0.0,0.0,0.0,0.0,0.0,0.0,0.0,0.0,0.0,0.0,0.0,0.0,0.0,0.0,0.0,0.0,0.0,0.0,0.0,0.0,0.0,0.0,0.0,0.0,0.0,0.0,0.0,0.0,0.0,0.0,0.0,0.0,0.0,0.0,0.0,0.0,0.0,0.0,0.0,0.0,0.0,0.0,0.0,0.0,0.0,0.0,0.0,0.0,0.0,0.0,0.0,0.0,-1.2465,-1.2645,-1.2782,-1.2688,-1.2451,-1.209,0.0,0.0,0.0,0.0,0.0,0.0,0.0,0.0,0.0,0.0,0.0,0.0,0.0,0.0,0.0,0.0,0.0,0.0,0.0,0.0,0.0,0.0,0.0,0.0,0.0,0.0,0.0,0.0,0.0,0.0,0.0,0.0,0.0,0.0,0.0,0.0,0.0,0.0,0.0,0.0,0.0,0.0,0.0,0.0,0.0,0.0,0.0,0.0,0.0,0.0,0.0,0.0,0.0,0.0,0.0,0.0,0.0,0.0,0.0,0.0,0.0,0.0,0.0,0.0,0.0,0.0,0.0,0.0,0.0,0.0,0.0,0.0,0.0,0.0,0.0,0.0,0.0,0.0,0.0,0.0,0.0,0.0,0.0,0.0,0.0,0.0,0.0,0.0,0.0,0.0,0.0,0.0,0.0,0.0,0.0,0.0,0.0,0.0,0.0,0.0,0.0,0.0,0.0,0.0,0.0,0.0,0.0,0.0,0.0,-1.2305,0.0,-1.2465,-1.2171,-1.2209,-1.1965,0.0,0.0,0.0,0.0,0.0,0.0,0.0,0.0,0.0,0.0,0.0,0.0,0.0,0.0,0.0,0.0,0.0,0.0,0.0,0.0,0.0,0.0,0.0,0.0,0.0,0.0,0.0,0.0,0.0,0.0,0.0,0.0,0.0,0.0,0.0,0.0,0.0,0.0,0.0,0.0,0.0,0.0,0.0,0.0,0.0,0.0,0.0,0.0,0.0,0.0,0.0,0.0,0.0,0.0,0.0,0.0,0.0,0.0,0.0,0.0,0.0,0.0,0.0,0.0,0.0,0.0,0.0,0.0,0.0,0.0,0.0,0.0,0.0,0.0,0.0,0.0,0.0,0.0,0.0,0.0,0.0,0.0,0.0,0.0,0.0,0.0,0.0,0.0,0.0,0.0,0.0,0.0,0.0,0.0,0.0,0.0,0.0,0.0,0.0,0.0,0.0,0.0,0.0,0.0,0.0,0.0,0.0,0.0,-1.2291,-1.2298,-1.2305,-1.2178,-1.1897,-1.2138,-1.2011,0.0,0.0,0.0,0.0,0.0,0.0,0.0,0.0,0.0,0.0,0.0,0.0,0.0,0.0,0.0,0.0,0.0,0.0,0.0,0.0,0.0,0.0,0.0,0.0,0.0,0.0,0.0,0.0,0.0,0.0,0.0,0.0,0.0,0.0,0.0,0.0,0.0,0.0,0.0,0.0,0.0,0.0,0.0,0.0,0.0,0.0,0.0,0.0,0.0,0.0,0.0,0.0,0.0,0.0,0.0,0.0,0.0,0.0,0.0,0.0,0.0,0.0,0.0,0.0,0.0,0.0,0.0,0.0,0.0,0.0,0.0,0.0,0.0,0.0,0.0,0.0,0.0,0.0,0.0,0.0,0.0,0.0,0.0,0.0,0.0,0.0,0.0,0.0,0.0,0.0,0.0,0.0,0.0,0.0,0.0,0.0,0.0,0.0,0.0,0.0,0.0,0.0,0.0,0.0,0.0,0.0,0.0,0.0,0.0,-1.2285,-1.2104,-1.2158,-1.2438,-1.1827,-1.1655,0.0,0.0,0.0,0.0,0.0,0.0,0.0,0.0,0.0,0.0,0.0,0.0,0.0,0.0,0.0,0.0,0.0,0.0,0.0,0.0,0.0,0.0,0.0,0.0,0.0,0.0,0.0,0.0,0.0,0.0,0.0,0.0,0.0,0.0,0.0,0.0,0.0,0.0,0.0,0.0,0.0,0.0,0.0,0.0,0.0,0.0,0.0,0.0,0.0,0.0,0.0,0.0,0.0,0.0,0.0,0.0,0.0,0.0,0.0,0.0,0.0,0.0,0.0,0.0,0.0,0.0,0.0,0.0,0.0,0.0,0.0,0.0,0.0,0.0,0.0,0.0,0.0,0.0,0.0,0.0,0.0,0.0,0.0,0.0,0.0,0.0,0.0,0.0,0.0,0.0,0.0,0.0,0.0,0.0,0.0,0.0,0.0,0.0,0.0,0.0,0.0,0.0,0.0,0.0,0.0,0.0,0.0,0.0,0.0,-1.2377,-1.2291,-1.2371,-1.2662,-1.217,-1.1886,-1.1913,0.0,0.0,0.0,0.0,0.0,0.0,0.0,0.0,0.0,0.0,0.0,0.0,0.0,0.0,0.0,0.0,0.0,0.0,0.0,0.0,0.0,0.0,0.0,0.0,0.0,0.0,0.0,0.0,0.0,0.0,0.0,0.0,0.0,0.0,0.0,0.0,0.0,0.0,0.0,0.0,0.0,0.0,0.0,0.0,0.0,0.0,0.0,0.0,0.0,0.0,0.0,0.0,0.0,0.0,0.0,0.0,0.0,0.0,0.0,0.0,0.0,0.0,0.0,0.0,0.0,0.0,0.0,0.0,0.0,0.0,0.0,0.0,0.0,0.0,0.0,0.0,0.0,0.0,0.0,0.0,0.0,0.0,0.0,0.0,0.0,0.0,0.0,0.0,0.0,0.0,0.0,0.0,0.0,0.0,0.0,0.0,0.0,0.0,0.0,0.0,0.0,0.0,0.0,0.0,0.0,0.0,0.0,0.0,-1.2562,-1.2749,-1.2775,-1.2628,-1.2896,-1.2569,0.0,0.0,0.0,0.0,0.0,0.0,0.0,0.0,0.0,0.0,0.0,0.0,0.0,0.0,0.0,0.0,0.0,0.0,0.0,0.0,0.0,0.0,0.0,0.0,0.0,0.0,0.0,0.0,0.0,0.0,0.0,0.0,0.0,0.0,0.0,0.0,0.0,0.0,0.0,0.0,0.0,0.0,0.0,0.0,0.0,0.0,0.0,0.0,0.0,0.0,0.0,0.0,0.0,0.0,0.0,0.0,0.0,0.0,0.0,0.0,0.0,0.0,0.0,0.0,0.0,0.0,0.0,0.0,0.0,0.0,0.0,0.0,0.0,0.0,0.0,0.0,0.0,0.0,0.0,0.0,0.0,0.0,0.0,0.0,0.0,0.0,0.0,0.0,0.0,0.0,0.0,0.0,0.0,0.0,0.0,0.0,0.0,0.0,0.0,0.0,0.0,0.0,0.0,0.0,0.0,0.0,0.0,0.0,0.0,-1.2824,-1.3323,-1.3626,-1.3691,-1.2734,-1.227,0.0,0.0,0.0,0.0,0.0,0.0,0.0,0.0,0.0,0.0,0.0,0.0,0.0,0.0,0.0,0.0,0.0,0.0,0.0,0.0,0.0,0.0,0.0,0.0,0.0,0.0,0.0,0.0,0.0,0.0,0.0,0.0,0.0,0.0,0.0,0.0,0.0,0.0,0.0,0.0,0.0,0.0,0.0,0.0,0.0,0.0,0.0,0.0,0.0,0.0,0.0,0.0,0.0,0.0,0.0,0.0,0.0,0.0,0.0,0.0,0.0,0.0,0.0,0.0,0.0,0.0,0.0,0.0,0.0,0.0,0.0,0.0,0.0,0.0,0.0,0.0,0.0,0.0,0.0,0.0,0.0,0.0,0.0,0.0,0.0,0.0,0.0,0.0,0.0,0.0,0.0,0.0,0.0,0.0,0.0,0.0,0.0,0.0,0.0,0.0,0.0,0.0,0.0,0.0,0.0,0.0,0.0,0.0,-1.2473,-1.3067,-1.3868,-1.4419,-1.4511,-1.3379,-1.2706,0.0,0.0,0.0,0.0,0.0,0.0,0.0,0.0,0.0,0.0,0.0,0.0,0.0,0.0,0.0,0.0,0.0,0.0,0.0,0.0,0.0,0.0,0.0,0.0,0.0,0.0,0.0,0.0,0.0,0.0,0.0,0.0,0.0,0.0,0.0,0.0,0.0,0.0,0.0,0.0,0.0,0.0,0.0,0.0,0.0,0.0,0.0,0.0,0.0,0.0,0.0,0.0,0.0,0.0,0.0,0.0,0.0,0.0,0.0,0.0,0.0,0.0,0.0,0.0,0.0,0.0,0.0,0.0,0.0,0.0,0.0,0.0,0.0,0.0,0.0,0.0,0.0,0.0,0.0,0.0,0.0,0.0,0.0,0.0,0.0,0.0,0.0,0.0,0.0,0.0,0.0,0.0,0.0,0.0,0.0,0.0,0.0,0.0,0.0,0.0,0.0,0.0,0.0,0.0,0.0,0.0,0.0,0.0,-1.2989,-1.3188,-1.4458,-1.5146,-1.5153,-1.4521,-1.348,0.0,0.0,0.0,0.0,0.0,0.0,0.0,0.0,0.0,0.0,0.0,0.0,0.0,0.0,0.0,0.0,0.0,0.0,0.0,0.0,0.0,0.0,0.0,0.0,0.0,0.0,0.0,0.0,0.0,0.0,0.0,0.0,0.0,0.0,0.0,0.0,0.0,0.0,0.0,0.0,0.0,0.0,0.0,0.0,0.0,0.0,0.0,0.0,0.0,0.0,0.0,0.0,0.0,0.0,0.0,0.0,0.0,0.0,0.0,0.0,0.0,0.0,0.0,0.0,0.0,0.0,0.0,0.0,0.0,0.0,0.0,0.0,0.0,0.0,0.0,0.0,0.0,0.0,0.0,0.0,0.0,0.0,0.0,0.0,0.0,0.0,0.0,0.0,0.0,0.0,0.0,0.0,0.0,0.0,0.0,0.0,0.0,0.0,0.0,0.0,0.0,0.0,0.0,0.0,0.0,0.0,0.0,0.0,-1.2832,-1.3732,-1.4649,-1.522,-1.5421,-1.4242,-1.33,0.0,0.0,0.0,0.0,0.0,0.0,0.0,0.0,0.0,0.0,0.0,0.0,0.0,0.0,0.0,0.0,0.0,0.0,0.0,0.0,0.0,0.0,0.0,0.0,0.0,0.0,0.0,0.0,0.0,0.0,0.0,0.0,0.0,0.0,0.0,0.0,0.0,0.0,0.0,0.0,0.0,0.0,0.0,0.0,0.0,0.0,0.0,0.0,-1.2648,0.0,0.0,0.0,0.0,0.0,0.0,0.0,0.0,0.0,0.0,0.0,0.0,0.0,0.0,0.0,0.0,0.0,0.0,0.0,0.0,0.0,0.0,0.0,0.0,0.0,0.0,0.0,0.0,0.0,0.0,0.0,0.0,0.0,0.0,0.0,0.0,0.0,0.0,0.0,0.0,0.0,0.0,0.0,0.0,0.0,0.0,0.0,0.0,0.0,0.0,0.0,0.0,0.0,0.0,0.0,0.0,0.0,0.0,0.0,-1.2952,-1.3888,-1.4696,-1.5173,-1.5276,-1.4383,-1.3568,0.0,0.0,0.0,0.0,0.0,0.0,0.0,0.0,0.0,0.0,0.0,0.0,0.0,0.0,0.0,0.0,0.0,0.0,0.0,0.0,0.0,0.0,0.0,0.0,0.0,0.0,0.0,0.0,0.0,0.0,0.0,0.0,0.0,0.0,0.0,0.0,0.0,0.0,0.0,0.0,0.0,0.0,0.0,0.0,0.0,0.0,0.0,0.0,0.0,0.0,0.0,0.0,0.0,0.0,0.0,0.0,0.0,0.0,0.0,0.0,0.0,0.0,0.0,0.0,0.0,0.0,0.0,0.0,0.0,0.0,0.0,0.0,0.0,0.0,0.0,0.0,0.0,0.0,0.0,0.0,0.0,0.0,0.0,0.0,0.0,0.0,0.0,0.0,0.0,0.0,0.0,0.0,0.0,0.0,0.0,0.0,0.0,0.0,0.0,0.0,0.0,0.0,0.0,0.0,0.0,0.0,0.0,-1.2228,-1.3133,-1.4014,-1.4739,-1.5113,-1.5101,-1.4582,-1.393,-1.3157,0.0,0.0,0.0,0.0,0.0,0.0,0.0,0.0,0.0,0.0,0.0,0.0,0.0,0.0,0.0,0.0,0.0,0.0,0.0,0.0,0.0,0.0,0.0,0.0,0.0,0.0,0.0,0.0,0.0,0.0,0.0,0.0,0.0,0.0,0.0,0.0,0.0,0.0,-1.282,-1.2854,0.0,0.0,0.0,0.0,0.0,0.0,0.0,0.0,-1.2532,0.0,0.0,0.0,0.0,0.0,0.0,0.0,0.0,0.0,0.0,0.0,0.0,0.0,0.0,0.0,0.0,0.0,0.0,0.0,0.0,0.0,0.0,0.0,0.0,0.0,0.0,0.0,0.0,0.0,0.0,0.0,0.0,0.0,0.0,0.0,0.0,0.0,0.0,0.0,0.0,0.0,0.0,0.0,0.0,0.0,0.0,0.0,0.0,0.0,0.0,0.0,0.0,0.0,0.0,0.0,0.0,-1.2101,-1.2506,-1.3314,-1.4552,-1.4926,-1.5113,-1.5095,-1.4582,-1.3924,-1.3163,0.0,0.0,0.0,0.0,0.0,0.0,0.0,0.0,0.0,0.0,0.0,0.0,0.0,0.0,0.0,0.0,0.0,0.0,0.0,0.0,0.0,0.0,0.0,0.0,0.0,0.0,0.0,0.0,0.0,0.0,0.0,0.0,0.0,0.0,0.0,0.0,0.0,0.0,0.0,-1.2682,-1.2553,0.0,0.0,0.0,0.0,0.0,0.0,0.0,0.0,-1.2485,0.0,0.0,0.0,0.0,0.0,0.0,0.0,0.0,0.0,0.0,0.0,0.0,0.0,0.0,0.0,0.0,0.0,0.0,0.0,0.0,0.0,0.0,0.0,0.0,0.0,0.0,0.0,0.0,0.0,0.0,0.0,0.0,0.0,0.0,0.0,0.0,0.0,0.0,0.0,0.0,0.0,0.0,0.0,0.0,0.0,0.0,0.0,0.0,0.0,0.0,0.0,0.0,0.0,0.0,0.0,-1.2276,-1.2843,-1.3574,-1.4467,-1.4763,-1.4902,-1.489,-1.4111,-1.3574,0.0,0.0,0.0,0.0,0.0,0.0,0.0,0.0,0.0,0.0,0.0,0.0,0.0,0.0,0.0,0.0,0.0,0.0,0.0,0.0,0.0,0.0,0.0,0.0,0.0,0.0,0.0,0.0,0.0,0.0,0.0,0.0,0.0,0.0,0.0,0.0,0.0,0.0,0.0,0.0,-1.2835,-1.2826,-1.3044,0.0,0.0,0.0,0.0,0.0,0.0,-1.3244,-1.3229,0.0,0.0,0.0,0.0,0.0,0.0,0.0,0.0,0.0,0.0,0.0,0.0,0.0,0.0,0.0,0.0,0.0,0.0,0.0,0.0,0.0,0.0,0.0,0.0,0.0,0.0,0.0,0.0,0.0,0.0,0.0,0.0,0.0,0.0,0.0,0.0,0.0,0.0,0.0,0.0,0.0,0.0,0.0,0.0,0.0,0.0,0.0,0.0,0.0,0.0,0.0,0.0,0.0,0.0,0.0,-1.2306,-1.3055,-1.3719,-1.428,-1.4515,-1.4636,-1.4612,-1.3701,-1.3278,0.0,0.0,0.0,0.0,0.0,0.0,0.0,0.0,0.0,0.0,0.0,0.0,0.0,0.0,0.0,0.0,0.0,0.0,0.0,0.0,0.0,0.0,0.0,0.0,0.0,0.0,0.0,0.0,0.0,0.0,0.0,0.0,0.0,0.0,0.0,0.0,0.0,0.0,0.0,0.0,0.0,-1.3206,-1.3206,-1.3206,0.0,0.0,0.0,0.0,-1.3881,-1.3901,0.0,0.0,0.0,0.0,0.0,0.0,0.0,0.0,0.0,0.0,0.0,0.0,0.0,0.0,0.0,0.0,0.0,0.0,0.0,0.0,0.0,0.0,0.0,0.0,0.0,0.0,0.0,0.0,0.0,0.0,0.0,0.0,0.0,0.0,0.0,0.0,0.0,0.0,0.0,0.0,0.0,0.0,0.0,0.0,0.0,0.0,0.0,0.0,0.0,0.0,0.0,0.0,0.0,0.0,0.0,0.0,-1.2306,-1.288,-1.3532,-1.4256,-1.4334,-1.434,-1.434,-1.3773,-1.3381,0.0,0.0,0.0,0.0,0.0,0.0,0.0,0.0,0.0,0.0,0.0,0.0,0.0,0.0,0.0,0.0,0.0,0.0,0.0,0.0,0.0,0.0,0.0,0.0,0.0,0.0,0.0,0.0,0.0,0.0,0.0,0.0,0.0,0.0,0.0,0.0,0.0,0.0,0.0,0.0,0.0,-1.3206,-1.3206,-1.3206,-1.3028,0.0,0.0,-1.3853,-1.3696,-1.4193,0.0,0.0,0.0,0.0,0.0,0.0,0.0,0.0,0.0,0.0,0.0,0.0,0.0,0.0,0.0,0.0,0.0,0.0,0.0,0.0,0.0,0.0,0.0,0.0,0.0,0.0,0.0,0.0,0.0,0.0,0.0,0.0,0.0,0.0,0.0,0.0,0.0,0.0,0.0,0.0,0.0,0.0,0.0,0.0,0.0,0.0,0.0,0.0,0.0,0.0,0.0,0.0,0.0,0.0,0.0,-1.2011,-1.253,-1.3073,-1.3652,-1.4274,-1.4298,-1.4298,-1.4298,-1.32,-1.2843,0.0,0.0,0.0,0.0,0.0,0.0,0.0,0.0,0.0,0.0,0.0,0.0,0.0,0.0,0.0,0.0,0.0,0.0,0.0,0.0,0.0,0.0,0.0,0.0,0.0,0.0,0.0,0.0,0.0,0.0,0.0,0.0,0.0,0.0,0.0,0.0,0.0,0.0,0.0,0.0,0.0,0.0,-1.348,-1.3601,0.0,0.0,0.0,-1.4315,-1.4475,0.0,0.0,0.0,0.0,0.0,0.0,0.0,0.0,0.0,0.0,0.0,0.0,0.0,0.0,0.0,0.0,0.0,0.0,0.0,0.0,0.0,0.0,0.0,0.0,0.0,0.0,0.0,0.0,0.0,0.0,0.0,0.0,0.0,0.0,0.0,0.0,0.0,0.0,0.0,0.0,0.0,0.0,0.0,0.0,0.0,0.0,0.0,0.0,0.0,0.0,0.0,0.0,0.0,0.0,0.0,0.0,0.0,-1.2699,-1.3236,-1.3773,-1.428,-1.4298,-1.4298,-1.4274,-1.2946,0.0,0.0,0.0,0.0,0.0,0.0,0.0,0.0,0.0,0.0,0.0,0.0,0.0,0.0,0.0,0.0,0.0,0.0,0.0,0.0,0.0,0.0,0.0,0.0,0.0,0.0,0.0,-1.016,0.0,0.0,0.0,0.0,0.0,0.0,0.0,0.0,0.0,0.0,0.0,0.0,0.0,0.0,-1.3975,-1.3599,-1.3871,-1.3946,0.0,0.0,-1.4625,-1.4806,-1.4926,-1.4897,0.0,0.0,0.0,0.0,0.0,0.0,0.0,0.0,0.0,0.0,0.0,0.0,0.0,0.0,0.0,0.0,0.0,0.0,0.0,0.0,0.0,0.0,0.0,0.0,0.0,0.0,0.0,0.0,0.0,0.0,0.0,0.0,0.0,0.0,0.0,0.0,0.0,0.0,0.0,0.0,0.0,0.0,0.0,0.0,0.0,0.0,0.0,0.0,0.0,0.0,0.0,0.0,0.0,0.0,-1.218,-1.2699,-1.3236,-1.3767,-1.4274,-1.4298,-1.4298,-1.428,-1.3477,-1.3188,0.0,0.0,0.0,0.0,0.0,0.0,0.0,0.0,0.0,0.0,0.0,0.0,0.0,0.0,0.0,0.0,0.0,0.0,0.0,0.0,0.0,0.0,0.0,0.0,0.0,0.0,0.0,0.0,0.0,0.0,0.0,0.0,0.0,0.0,0.0,0.0,0.0,0.0,0.0,0.0,0.0,-1.3898,-1.3359,-1.3789,-1.4041,0.0,-1.4089,-1.4342,-1.3913,-1.4852,-1.5278,-1.3944,0.0,0.0,0.0,0.0,0.0,0.0,0.0,0.0,0.0,0.0,0.0,0.0,0.0,0.0,0.0,0.0,0.0,0.0,0.0,0.0,0.0,0.0,0.0,0.0,0.0,0.0,0.0,0.0,0.0,0.0,0.0,0.0,0.0,0.0,0.0,0.0,0.0,0.0,0.0,0.0,0.0,0.0,0.0,0.0,0.0,0.0,0.0,0.0,0.0,0.0,0.0,0.0,0.0,-1.218,-1.2699,-1.3236,-1.3767,-1.4274,-1.4298,-1.4298,-1.4298,-1.3538,-1.3169,0.0,0.0,0.0,0.0,0.0,0.0,0.0,0.0,0.0,0.0,0.0,0.0,0.0,0.0,0.0,0.0,0.0,0.0,0.0,0.0,0.0,0.0,0.0,0.0,0.0,0.0,0.0,0.0,-1.169,-1.1884,-1.2111,0.0,0.0,0.0,0.0,0.0,0.0,0.0,0.0,0.0,0.0,-1.4309,-1.4025,-1.4442,0.0,0.0,-1.4421,-1.4648,-1.4717,-1.4963,-1.4851,-1.4264,-1.3841,0.0,0.0,0.0,0.0,0.0,0.0,0.0,0.0,0.0,0.0,0.0,0.0,0.0,0.0,0.0,0.0,0.0,0.0,0.0,0.0,0.0,0.0,0.0,0.0,0.0,0.0,0.0,0.0,0.0,0.0,0.0,0.0,0.0,0.0,0.0,0.0,0.0,0.0,0.0,0.0,0.0,0.0,0.0,0.0,0.0,0.0,0.0,0.0,0.0,0.0,0.0,0.0,-1.23,-1.2825,-1.3284,-1.3809,-1.4413,-1.434,-1.4298,-1.4376,-1.3707,-1.3367,0.0,0.0,0.0,0.0,0.0,0.0,0.0,0.0,0.0,0.0,0.0,0.0,0.0,0.0,0.0,0.0,0.0,0.0,0.0,0.0,0.0,0.0,0.0,0.0,0.0,0.0,0.0,0.0,-1.2124,-1.2305,-1.2305,0.0,0.0,0.0,0.0,0.0,0.0,0.0,0.0,0.0,0.0,-1.4623,-1.4442,-1.4681,-1.4777,-1.4508,-1.443,-1.4461,-1.4898,-1.4708,-1.443,-1.4173,0.0,0.0,0.0,0.0,0.0,0.0,0.0,0.0,0.0,0.0,0.0,0.0,0.0,0.0,0.0,0.0,0.0,0.0,0.0,0.0,0.0,0.0,0.0,0.0,0.0,0.0,0.0,-1.233,0.0,0.0,-1.1397,0.0,0.0,0.0,0.0,0.0,0.0,0.0,0.0,0.0,0.0,0.0,0.0,0.0,0.0,0.0,0.0,0.0,0.0,0.0,0.0,0.0,0.0,-1.2572,-1.3109,-1.3387,-1.3906,-1.4666,-1.4437,-1.44,-1.4675,-1.4161,-1.3622,-1.3094,0.0,0.0,0.0,0.0,0.0,0.0,0.0,0.0,0.0,0.0,0.0,0.0,0.0,0.0,0.0,0.0,0.0,0.0,0.0,0.0,0.0,0.0,0.0,0.0,0.0,0.0,-1.2002,-1.2138,-1.2305,0.0,0.0,0.0,0.0,0.0,0.0,0.0,0.0,0.0,-1.3968,-1.4576,-1.4747,-1.42,-1.4408,-1.4508,-1.4275,-1.4034,-1.3837,-1.3937,-1.4078,-1.397,0.0,0.0,0.0,0.0,0.0,0.0,0.0,0.0,0.0,0.0,0.0,0.0,0.0,0.0,0.0,0.0,0.0,0.0,0.0,0.0,0.0,0.0,0.0,0.0,0.0,0.0,0.0,-1.2323,-1.2927,0.0,0.0,0.0,0.0,0.0,0.0,0.0,0.0,0.0,0.0,0.0,-1.0454,-1.0324,0.0,0.0,0.0,0.0,0.0,0.0,0.0,0.0,0.0,0.0,0.0,0.0,-1.2843,-1.3369,-1.364,-1.4169,-1.4967,-1.4734,-1.4688,-1.4981,-1.4129,-1.2791,-1.1106,0.0,0.0,0.0,0.0,0.0,0.0,0.0,0.0,0.0,0.0,0.0,0.0,0.0,0.0,0.0,0.0,0.0,0.0,0.0,0.0,0.0,0.0,0.0,0.0,0.0,-1.308,0.0,0.0,0.0,0.0,0.0,0.0,0.0,0.0,0.0,0.0,-1.3487,-1.3721,-1.3527,-1.4008,-1.4416,-1.4328,-1.4681,-1.4982,0.0,0.0,0.0,0.0,0.0,0.0,0.0,0.0,0.0,0.0,0.0,0.0,0.0,0.0,-1.5758,-1.4589,-1.4609,-1.4783,-1.4683,0.0,0.0,0.0,0.0,0.0,0.0,0.0,0.0,0.0,0.0,0.0,0.0,0.0,0.0,-1.1893,-1.2898,-1.1116,0.0,0.0,0.0,0.0,0.0,0.0,0.0,0.0,-0.9347,-0.9535,-0.9816,-0.966,-0.9631,0.0,-0.9602,-0.9841,0.0,0.0,0.0,0.0,0.0,0.0,0.0,0.0,-1.3115,-1.3732,-1.4098,-1.4592,-1.5295,-1.5168,-1.5076,-1.5178,-1.3896,-1.2289,-1.0393,-0.9768,-0.9497,0.0,0.0,0.0,0.0,0.0,0.0,0.0,0.0,0.0,0.0,0.0,0.0,0.0,0.0,0.0,0.0,0.0,0.0,0.0,0.0,0.0,0.0,0.0,-1.3486,0.0,0.0,0.0,0.0,0.0,0.0,0.0,0.0,0.0,-1.354,-1.3848,-1.4095,-1.4122,-1.4369,-1.4609,-1.4803,0.0,0.0,0.0,0.0,0.0,0.0,0.0,-1.5257,-1.477,-1.5172,-1.5589,-1.5972,-1.648,-1.6854,-1.686,0.0,0.0,-1.5704,-1.5622,-1.578,-1.558,-1.5711,-1.5998,-1.619,-1.6474,-1.6554,0.0,0.0,0.0,0.0,0.0,0.0,0.0,0.0,-1.1369,-1.1213,0.0,-1.0858,0.0,0.0,0.0,0.0,-0.7478,-0.7633,0.0,0.0,-0.8371,-0.8418,-0.8419,-0.8539,-0.8353,-0.8085,-0.8072,-0.8394,-0.9104,-1.0534,0.0,0.0,0.0,0.0,0.0,0.0,-1.3501,-1.431,-1.457,-1.5064,-1.5884,-1.563,-1.5441,-1.5363,-1.3601,-1.2037,-1.0882,-0.9905,-0.9202,-0.8697,-1.0207,0.0,0.0,0.0,0.0,0.0,0.0,0.0,0.0,0.0,0.0,0.0,0.0,0.0,0.0,0.0,0.0,0.0,0.0,0.0,0.0,-1.3667,0.0,0.0,0.0,0.0,0.0,0.0,0.0,0.0,0.0,-1.4743,-1.4229,-1.4148,-1.4522,-1.5585,0.0,0.0,0.0,0.0,-1.5003,-1.5084,-1.5064,-1.5177,-1.5451,-1.5932,-1.6172,-1.5872,0.0,0.0,-1.7194,-1.7318,-1.7261,-1.7235,-1.7729,-1.7709,-1.6566,-1.6606,-1.6574,-1.6024,-1.61,-1.6289,-1.6289,-1.6629,-1.6813,-1.5569,0.0,0.0,0.0,0.0,-1.375,-1.3922,-1.3975,-1.2136,-1.1505,-1.1682,-0.9608,0.0,0.0,0.0,0.0,0.0,0.0,-0.7997,-0.8153,-0.8489,-0.8737,-0.901,-0.894,-0.8916,-0.8828,-0.8618,-0.8519,-0.8722,-0.9563,-1.0032,-1.0159,0.0,0.0,0.0,0.0,-1.3373,-1.4734,-1.4936,-1.5444,-1.6401,-1.5836,-1.4846,-1.3505,-1.2242,-1.1075,-0.9836,-0.9544,-0.9604,-0.9953,-1.0239,0.0,0.0,0.0,0.0,0.0,0.0,0.0,0.0,0.0,0.0,0.0,0.0,0.0,0.0,0.0,0.0,0.0,0.0,0.0,-1.4269,-1.4269,-1.401,0.0,0.0,0.0,0.0,0.0,0.0,0.0,0.0,0.0,-1.5291,-1.497,-1.4676,0.0,0.0,-1.4449,-1.5277,-1.5331,-1.5645,-1.668,-1.6834,0.0,-1.6941,-1.6747,-1.6486,-1.6192,-1.6881,-1.7662,-1.831,-1.8591,-1.8731,-1.8718,-1.8871,-1.8778,-1.8315,-1.7857,-1.7533,-1.7449,-1.7483,-1.7514,-1.752,-1.7779,-1.785,-1.721,-1.4261,-1.5131,-1.4963,-1.4162,-1.3931,-1.3821,-1.3491,-1.1686,-1.1076,-1.1393,-0.9308,-0.8663,-0.9097,-0.835,0.0,0.0,0.0,-0.8387,-0.8547,-0.8842,-0.9072,-0.9239,-0.9306,-0.9303,-0.9235,-0.9062,-0.8869,-0.8659,-0.8931,-0.9195,-0.9432,0.0,-1.0442,-1.0774,-1.2052,-1.3149,-1.4019,-1.4648,-1.5059,-1.5457,-1.4799,-1.3705,-1.215,-1.156,-1.0631,-0.9567,-0.9466,-0.9665,-1.0045,-1.0283,-1.0624,0.0,0.0,0.0,0.0,0.0,0.0,0.0,0.0,0.0,0.0,0.0,-0.9533,-1.033,0.0,0.0,0.0,-1.4309,-1.4696,-1.4696,-1.4589,0.0,0.0,0.0,0.0,0.0,0.0,0.0,-1.4261,-1.4903,-1.5417,-1.5952,-1.5798,-1.5524,-1.517,-1.497,-1.5157,-1.5979,0.0,-1.6406,-1.7288,-1.7502,-1.7589,-1.7582,-1.7589,-1.7562,-1.7508,-1.7923,-1.843,-1.8978,-1.9252,-1.9366,-1.9366,-1.9366,-1.9366,-1.912,-1.8709,-1.8253,-1.8032,-1.8052,-1.8058,-1.7949,-1.8191,-1.8364,-1.8822,-1.5941,-1.667,-1.6059,-1.4436,-1.3292,-1.2616,-1.2343,-1.048,-1.0281,-1.1086,-0.9692,-0.913,-0.9327,-0.8774,0.0,-0.8526,-0.8689,-0.8838,-0.8984,-0.9276,-0.9415,-0.9422,-0.9557,-0.9551,-0.9415,-0.9405,-0.9259,-0.8998,-0.8835,-0.8615,-0.8429,-0.9891,-1.0199,-0.9437,-1.1652,-1.277,-1.2663,-1.3816,-1.4228,-1.365,-1.3137,-1.2412,-1.1301,-1.1086,-1.0592,-0.9628,-0.9624,-0.9551,-0.9485,-1.0118,-1.0126,-0.9034,0.0,0.0,0.0,0.0,0.0,0.0,0.0,0.0,0.0,0.0,0.0,0.0,0.0,0.0,-1.3531,-1.4508,0.0,-1.4997,-1.4756,0.0,0.0,0.0,-1.4337,-1.4417,-1.4904,-1.5278,-1.552,0.0,0.0,-1.6346,-1.6593,-1.6774,-1.6774,-1.6734,-1.682,-1.7244,-1.7148,-1.7188,-1.7268,-1.7502,-1.7689,-1.7742,-1.825,-1.8744,-1.8998,-1.9285,-1.9165,-1.9232,-1.9299,-1.9319,-1.9319,-1.9345,-1.9366,-1.9366,-1.8971,-1.8648,-1.8169,-1.8071,-1.7966,-1.7948,-1.8064,-1.8298,-2.1195,-2.0354,-2.0084,-1.7388,-1.35,-1.369,-1.34,-1.257,-1.1689,-1.0948,-1.0162,-0.9676,-0.9361,-0.9195,-0.8944,-0.8828,-0.8845,-0.9103,-0.9242,-0.9293,-0.9581,-0.9717,-0.9717,-0.9754,-0.9754,-0.971,-0.9608,-0.9517,-0.9445,-0.9296,-0.9069,-0.8798,-0.9501,-0.9976,-1.0186,-1.1146,-1.2224,-1.3342,-1.3607,-1.3673,-1.3426,-1.2597,-1.1933,-1.132,-1.0479,-0.9817,-0.9624,-0.9624,-0.9608,-0.9563,-0.9618,-0.9815,-0.9947,-0.9078,0.0,0.0,0.0,0.0,0.0,0.0,0.0,0.0,0.0,-0.9451,-1.0911,0.0,-1.2314,0.0,-1.4933,-1.5297,-1.5291,-1.5224,0.0,0.0,-1.5099,-1.5119,-1.5107,-1.5657,-1.5909,-1.5743,-1.6279,-1.6687,-1.6914,-1.7194,-1.7368,-1.7368,-1.6994,-1.6894,-1.7388,-1.7475,-1.7569,-1.7809,-1.8237,-1.8517,-1.8297,-1.8237,-1.8384,-1.8644,-1.8524,-1.8437,-1.8664,-1.8885,-1.9032,-1.9045,-1.9219,-1.9223,-1.912,-1.8765,-1.8532,-1.8305,-1.82,-1.7966,-1.7726,-1.7719,-1.783,-2.1264,-1.9554,-1.953,-1.67,-1.2505,-1.4266,-1.3934,-1.2111,-1.1728,-1.1057,-1.0209,-0.9998,-0.9703,-0.9364,-0.934,-0.9296,-0.9256,-0.9476,-0.9544,-0.9496,-0.9717,-0.9819,-0.9819,-0.9819,-0.9822,-1.0061,-0.9981,-0.9912,-1.008,-0.9994,-0.9827,-0.9592,-0.9853,-1.025,-1.0753,-1.1143,-1.162,-1.1962,-1.207,-1.207,-1.2054,-1.144,-1.095,-1.0571,-0.9887,-0.9433,-0.9275,-0.9271,-0.9267,-0.9267,-0.9173,-0.9254,-0.9605,-0.8882,-0.8635,0.0,0.0,0.0,0.0,0.0,0.0,0.0,0.0,0.0,0.0,0.0,-1.2635,-1.4533,-1.513,-1.5398,-1.5398,-1.5398,-1.5504,-1.5765,-1.5785,-1.5892,-1.6146,-1.6466,-1.6647,-1.6613,-1.6894,-1.7208,-1.7508,-1.7689,-1.7842,-1.7963,-1.7709,-1.7562,-1.7756,-1.7896,-1.8009,-1.8056,-1.8437,-1.8684,-1.8504,-1.835,-1.8297,-1.8437,-1.8357,-1.8303,-1.847,-1.8731,-1.8805,-1.8704,-1.9044,-1.9243,-1.8771,-1.8655,-1.8538,-1.8311,-1.8083,-1.7923,-1.7566,-1.7426,-1.7426,-2.0346,-1.7099,-1.7402,-1.5343,-1.2075,-1.4645,-1.4112,-1.1585,-1.1333,-1.0993,-1.0673,-1.0399,-1.0053,-0.9676,-0.9774,-0.9764,-0.9676,-0.9795,-0.9785,-0.9676,-0.9815,-0.9859,-0.9822,-0.9842,-1.0082,-1.0308,-1.0425,-1.0477,-1.0591,-1.0588,-1.0502,-1.0345,-1.048,-1.0783,-1.1099,-1.1331,-1.1118,-1.0201,-1.0381,-1.0456,-1.0432,-1.0213,-0.9945,-0.964,-0.9429,-0.9173,-0.8873,-0.8857,-0.8857,-0.8852,-0.8857,-0.8869,-0.8881,-0.8706,-0.8552,0.0,-0.8385,0.0,0.0,0.0,0.0,0.0,0.0,0.0,0.0,-1.2296,-1.3144,-1.4967,-1.5304,-1.5478,-1.5551,-1.5565,-1.5785,-1.6313,-1.6386,-1.6593,-1.7081,-1.7284,-1.7288,-1.7502,-1.7555,-1.7689,-1.7909,-1.8016,-1.8143,-1.8263,-1.831,-1.8196,-1.8056,-1.8196,-1.827,-1.8036,-1.821,-1.8357,-1.8444,-1.8404,-1.8343,-1.8404,-1.8343,-1.8377,-1.833,-1.8584,-1.8692,-1.8512,-1.8849,-1.9067,-1.8409,-1.8532,-1.8655,-1.82,-1.7929,-1.7707,-1.751,-1.734,-1.708,-2.0136,-1.9341,-1.7654,-1.5905,-1.4169,-1.4374,-1.3369,-1.1703,-1.1538,-1.1297,-1.0914,-1.0483,-1.029,-1.0331,-0.9985,-0.9873,-0.9968,-0.9992,-0.9992,-0.9971,-1.012,-1.0184,-1.02,-1.0316,-1.0432,-1.0671,-1.0668,-1.0774,-1.0744,-1.0748,-1.0662,-1.0509,-1.0772,-1.0836,-1.0933,0.0,0.0,0.0,-1.0785,-1.0574,-1.0424,-0.9969,-0.9701,-0.9624,-0.9315,0.0,-0.9047,-0.9043,-0.9047,-0.9043,-0.9043,0.0,0.0,0.0,0.0,0.0,0.0,0.0,0.0,0.0,0.0,0.0,-0.9789,-1.0784,-1.1919,-1.3489,-1.4787,-1.5524,-1.5718,-1.5945,-1.6413,-1.6453,-1.66,-1.6934,-1.6987,-1.7136,-1.7148,-1.7355,-1.7442,-1.7248,-1.7442,-1.7602,-1.7682,-1.7883,-1.7969,-1.7829,-1.7969,-1.7996,-1.7722,-1.7943,-1.8003,-1.7742,-1.7769,-1.7956,-1.8417,-1.8083,-1.7896,-1.8023,-1.7903,-1.7789,-1.7809,-1.8036,-1.82,-1.8053,-1.8333,-1.8512,-1.8144,-1.8083,-1.8311,-1.8311,-1.7786,-1.7268,-1.7219,-1.7086,-1.7026,-1.9288,-1.8202,-1.638,-1.474,0.0,-1.3251,-1.2934,-1.217,-1.1773,-1.1501,-1.1268,-1.1063,-1.0894,-1.0791,-1.0584,-1.0345,-1.0294,-1.0214,-1.0143,-1.0161,-1.0416,-1.0457,-1.0425,-1.0631,-1.083,-1.1035,-1.1031,-1.1156,-1.1281,-1.1281,-1.1238,-1.116,-1.1399,-1.1351,-1.1264,-1.1378,-1.1366,-1.1098,-1.083,-1.0651,-1.055,-1.0123,-0.9847,-0.975,-0.9409,0.0,0.0,0.0,0.0,0.0,0.0,0.0,0.0,-0.9056,0.0,-0.921,-0.9056,-0.9035,-0.9206,-0.9226,-0.9263,-0.9352,-1.0772,-1.2083,-1.3122,-1.4759,-1.5792,-1.6213,-1.6259,-1.644,-1.6867,-1.6921,-1.7041,-1.7321,-1.7361,-1.7361,-1.7375,-1.7488,-1.7522,-1.7408,-1.739,-1.7483,-1.7589,-1.7383,-1.7436,-1.7417,-1.7503,-1.7562,-1.743,-1.7609,-1.7742,-1.7602,-1.7589,-1.7695,-1.7835,-1.7822,-1.7516,-1.7549,-1.7583,-1.7595,-1.7589,-1.7836,-1.7879,-1.7715,-1.8164,-1.8516,-1.7955,-1.8093,-1.8428,-1.8181,-1.7848,-1.7469,-1.7135,-1.7092,-1.6827,-1.771,-1.6034,-1.451,-1.297,-1.1724,-1.2135,-1.2291,-1.2381,-1.1973,0.0,0.0,-1.166,-1.1494,-1.1211,-1.1211,-1.0977,-1.0742,-1.0613,-1.0575,-1.0562,-1.0692,-1.0724,-1.0667,-1.1042,-1.1199,-1.1402,-1.1394,-1.1522,-1.1776,-1.1776,-1.1776,-1.1776,-1.1776,-1.1776,-1.1776,-1.1744,-1.1492,-1.1033,-1.0834,-1.0724,-1.0684,-1.0314,-1.0026,-0.9843,-0.9527,-0.9202,-0.8885,-0.8869,-0.8869,-0.8869,-0.8869,-0.8954,-0.9129,-0.9145,-0.9157,-0.919,-0.9194,-0.9254,-0.9388,-0.9401,-0.966,-1.0105,-1.1795,-1.3374,-1.4743,-1.5738,-1.642,-1.6754,-1.678,-1.6901,-1.7194,-1.7331,-1.7321,-1.7562,-1.7589,-1.7582,-1.7582,-1.7589,-1.7582,-1.7582,-1.7371,-1.7384,-1.7483,-1.7173,-1.6736,-1.6849,-1.6861,-1.6743,-1.6743,-1.7173,-1.7609,-1.7589,-1.7371,-1.7272,-1.7285,-1.7179,-1.7265,-1.7292,-1.749,-1.7589,-1.7622,-1.7789,-1.7747,-1.7405,-1.802,-1.8268,-1.7812,-1.8084,-1.8513,-1.8119,-1.7898,-1.7848,-1.7329,-1.7002,-1.6368,-1.5265,-1.454,-1.2738,-1.1723,-1.1303,-1.1324,-1.1571,-1.195,-1.2184,-1.208,-1.1915,-1.1656,-1.1686,-1.1637,-1.1385,-1.1333,-1.1456,-1.1437,-1.1452,-1.1364,-1.1342,-1.1311,-1.1418,-1.141,-1.1575,-1.178,-1.1772,-1.1772,-1.1776,-1.1776,-1.1776,-1.1776,-1.1776,-1.1776,-1.1764,-1.1618,-1.1423,-1.1187,-1.1017,-1.0854,-1.0692,-1.0193,-0.9839,-0.9669,-0.947,-0.9263,-0.9068,-0.906,-0.906,-0.906,-0.906,-0.9137,-0.9303,-0.9315,-0.9388,-0.9539,-0.9551,-0.9563,-0.9583,-0.9587,-1.0373,-1.2058,-1.2822,-1.3929,-1.5817,-1.6155,-1.65,-1.7014,-1.7088,-1.7208,-1.7475,-1.7508,-1.7522,-1.7569,-1.7589,-1.7589,-1.7477,-1.7477,-1.7477,-1.7364,-1.7582,-1.7378,-1.706,-1.6955,-1.6524,-1.5879,-1.566,-1.5441,-1.5215,-1.6287,-1.7477,-1.7477,-1.6717,-1.6611,-1.6942,-1.6723,-1.6511,-1.7371,-1.7477,-1.7477,-1.7589,-1.7642,-1.7656,-1.7551,-1.7701,-1.7728,-1.7477,-1.7553,-1.7717,-1.7786,-1.76,-1.751,-1.7524,-1.6484,-1.5374,-1.4288,-1.3854,-1.21,-1.129,-1.1158,-1.1491,-1.1865,-1.2316,-1.2441,-1.2529,-1.2453,-1.2322,-1.2224,-1.2199,-1.2063,-1.1974,-1.1785,-1.1698,-1.1705,-1.1519,-1.1569,-1.1649,-1.1549,-1.1661,-1.1816,-1.1784,-1.1776,-1.1776,-1.1776,-1.1776,-1.1776,-1.1776,-1.1776,-1.1776,-1.1768,-1.1691,-1.1561,-1.1374,-1.1106,-1.0883,-1.0692,-1.0359,-1.0099,-0.9925,-0.9835,-0.9665,-0.9397,-0.9474,-0.9482,-0.9388,-0.9384,-0.9421,-0.9498,-0.9502,-0.9539,-0.962,-0.9624,-0.9624,-0.9624,-0.9624,-1.0502,-1.2538,-1.2829,-1.3929,-1.6162,-1.6567,-1.6921,-1.7335,-1.7388,-1.7435,-1.7569,-1.7483,-1.7378,-1.7582,-1.6942,-1.6511,-1.6505,-1.6068,-1.5642,-1.553,-1.5322,-1.5215,-1.5102,-1.4793,-1.4583,-1.4256,-1.4369,-1.4363,-1.4137,-1.4995,-1.5749,-1.5642,-1.5209,-1.5108,-1.5435,-1.5215,-1.5328,-1.6293,-1.6617,-1.6942,-1.7371,-1.7589,-1.7536,-1.7456,-1.7593,-1.7418,-1.69,-1.6925,-1.7061,-1.6809,-1.675,-1.6708,-1.6304,-1.474,-1.338,-1.378,-1.3376,-1.2066,-1.142,-1.1375,-1.1771,-1.2296,-1.2712,-1.2704,-1.2836,-1.2836,-1.2836,-1.2759,-1.2633,-1.2625,-1.2495,-1.2212,-1.2102,-1.1962,-1.1763,-1.1876,-1.1831,-1.1665,-1.1872,-1.1902,-1.1788,-1.1776,-1.1776,-1.1776,-1.1776,-1.1776,-1.1776,-1.1776,-1.1776,-1.1776,-1.1695,-1.1581,-1.1423,-1.1086,-1.0858,-1.0753,-1.0582,-1.0404,-1.0241,-1.0221,-1.0054,-0.9721,-0.9815,-0.9803,-0.964,-0.9624,-0.9624,-0.9624,-0.9624,-0.9624,-0.9624,-0.9624,-0.9644,-0.9685,-0.9925,-1.0929,-1.2697,-1.3144,-1.4213,-1.6078,-1.6847,-1.7201,-1.7361,-1.7415,-1.7468,-1.7482,-1.7345,-1.7378,-1.7477,-1.6405,-1.5761,-1.5755,-1.4888,-1.4024,-1.3701,-1.3604,-1.3496,-1.3166,-1.2847,-1.2748,-1.297,-1.3181,-1.3393,-1.3383,-1.3491,-1.3701,-1.3491,-1.3491,-1.3819,-1.3717,-1.3712,-1.4143,-1.4905,-1.5322,-1.5749,-1.6393,-1.6611,-1.6617,-1.6342,-1.6586,-1.6476,-1.5752,-1.5771,-1.5806,-1.5434,-1.535,-1.5131,-1.4348,-1.3207,-1.2087,-1.302,-1.2813,-1.2245,-1.2046,-1.1902,-1.1873,-1.2056,-1.2441,-1.2704,-1.2836,-1.2836,-1.2836,-1.2824,-1.2816,-1.2808,-1.2668,-1.2668,-1.266,-1.2572,-1.2415,-1.2385,-1.2081,-1.1892,-1.1878,-1.1792,-1.1776,-1.1776,-1.1776,-1.1776,-1.1776,-1.1776,-1.1776,-1.1776,-1.1776,-1.1744,-1.1455,-1.1277,-1.1244,-1.0899,-1.0794,-1.0923,-1.0765,-1.0586,-1.0416,-1.0408,-1.0237,-0.9884,-0.9876,-0.9807,-0.9644,-0.9636,-0.9628,-0.9628,-0.9628,-0.9624,-0.9624,-0.9628,-0.9693,-0.9948,-1.103,-1.2133,-1.3287,-1.4561,-1.5623,-1.6573,-1.6934,-1.7027,-1.6894,-1.7027,-1.7304,-1.7208,-1.7428,-1.7477,-1.7477,-1.6505,-1.5861,-1.563,-1.4888,-1.4024,-1.3706,-1.3475,-1.3701,-1.2832,-1.2738,-1.2644,-1.1887,-1.2209,-1.2205,-1.1551,-1.2068,-1.2186,-1.1546,-1.1873,-1.2832,-1.348,-1.3166,-1.3156,-1.3911,-1.4245,-1.4347,-1.4454,-1.4454,-1.4132,-1.4674,-1.4369,-1.4418,-1.4196,-1.4207,-1.3977,-1.394,-1.3876,-1.3654,-1.2655,-1.2208,-1.2149,-1.2636,-1.2444,-1.2212,-1.2157,-1.2136,-1.1964,-1.2211,-1.2561,-1.2722,-1.2735,-1.2828,-1.2836,-1.2836,-1.2836,-1.2836,-1.2836,-1.2836,-1.2836,-1.2682,-1.2422,-1.2337,-1.2154,-1.189,-1.1813,-1.1776,-1.1776,-1.1776,-1.1776,-1.1776,-1.1776,-1.1776,-1.1776,-1.1776,-1.1776,-1.1764,-1.1626,-1.1496,-1.1382,-1.1135,-1.0997,-1.0948,-1.0789,-1.0611,-1.0469,-1.053,-1.0416,-1.0107,-1.0152,-1.0128,-0.9957,-0.9839,-0.9782,-0.9778,-0.9685,-0.9624,-0.9632,-0.9721,-1.0109,-1.0891,-1.1583,-1.2622,-1.4372,-1.4832,-1.5463,-1.6361,-1.6406,-1.6313,-1.6293,-1.6774,-1.725,-1.7168,-1.7317,-1.7378,-1.7371,-1.6405,-1.5382,-1.4801,-1.373,-1.2695,-1.1513,-1.158,-1.1651,-1.1,-1.1227,-1.1236,-1.0911,-1.1232,-1.1223,-1.0794,-1.1038,-1.1021,-1.0853,-1.0949,-1.134,-1.1905,-1.1666,-1.1877,-1.2699,-1.295,-1.2842,-1.3485,-1.3701,-1.3701,-1.348,-1.3372,-1.3161,-1.2635,-1.2516,-1.2446,-1.2445,-1.2449,-1.2339,-1.2013,-1.1572,-1.1287,-1.2658,-1.2525,-1.2353,-1.2354,-1.25,-1.2242,-1.2385,-1.2885,-1.2763,-1.2759,-1.2828,-1.2836,-1.2836,-1.2836,-1.2836,-1.2836,-1.2836,-1.2836,-1.2645,-1.2333,-1.2304,-1.2117,-1.1801,-1.1776,-1.1776,-1.1776,-1.1776,-1.1776,-1.1776,-1.1776,-1.1776,-1.1776,-1.1776,-1.1776,-1.1768,-1.1736,-1.1638,-1.1492,-1.1313,-1.1143,-1.0976,-1.0838,-1.0684,-1.0534,-1.0627,-1.055,-1.0257,-1.0363,-1.0351,-1.0168,-0.9985,-0.9888,-0.988,-0.9721,-0.9648,-0.9709,-0.9864,-1.0391,-1.1262,-1.1756,-1.27,-1.4235,-1.4445,-1.4865,-1.5665,-1.5428,-1.5332,-1.5797,-1.5985,-1.6183,-1.7054,-1.7094,-1.7279,-1.7457,-1.6249,-1.5036,-1.4057,-1.2961,-1.1545,-0.9957,-1.0226,-1.014,-0.9734,-1.0069,-1.0296,-1.0351,-1.0542,-1.0619,-1.0599,-1.0477,-1.0404,-1.0509,-1.0274,-1.0367,-1.0534,-1.0638,-1.0936,-1.1324,-1.1706,-1.1764,-1.2516,-1.2516,-1.2516,-1.1538,-1.2295,-1.2295,-1.1433,-1.1114,-1.1105,-1.1122,-1.1244,-1.1358,-1.1485,-1.092,-1.07,-1.3376,-1.3211,-1.2767,-1.2815,-1.3076,-1.2649,-1.2787,-1.3043,-1.3043,-1.297,-1.2844,-1.2836,-1.2836,-1.2828,-1.2828,-1.2836,-1.2836,-1.2836,-1.2649,-1.2328,-1.2304,-1.2117,-1.1788,-1.1776,-1.1776,-1.1776,-1.1776,-1.1776,-1.1776,-1.1776,-1.1776,-1.1776,-1.1776,-1.1776,-1.1756,-1.1626,-1.1516,-1.15,-1.1354,-1.1155,-1.1005,-1.0968,-1.0879,-1.0692,-1.0684,-1.0607,-1.0448,-1.0432,-1.0359,-1.0172,-1.001,-0.9904,-0.9884,-0.9734,-0.9709,-0.986,-1.0038,-1.0326,-1.0695,-1.1711,-1.2459,-1.2768,-1.352,-1.4275,-1.4826,-1.4073,-1.4137,-1.5566,-1.4362,-1.443,-1.6199,-1.6579,-1.6937,-1.7147,-1.6143,-1.496,-1.3881,-1.2576,-1.1232,-1.0068,-0.9999,-1.0083,-0.9988,-1.0003,-1.0085,-1.0264,-1.0325,-1.0452,-1.0416,-1.029,-1.0209,-1.0176,-1.0079,-1.0022,-1.0351,-1.0408,-1.0416,-1.07,-1.0795,-1.0445,-1.0029,-0.9816,-0.9805,-0.9794,-1.0096,-1.0206,-0.9908,-0.9809,-0.9908,-1.0021,-1.0363,-1.0586,-1.1021,-1.0802,-1.0692,-1.3335,-1.3352,-1.3034,-1.2958,-1.3084,-1.2845,-1.2797,-1.2917,-1.28,-1.2791,-1.2832,-1.2836,-1.2771,-1.2666,-1.2783,-1.2836,-1.2836,-1.2836,-1.2645,-1.2333,-1.2304,-1.2117,-1.1805,-1.1776,-1.1776,-1.1776,-1.1776,-1.1776,-1.1776,-1.1776,-1.1776,-1.1776,-1.1776,-1.1776,-1.1764,-1.1711,-1.1675,-1.1671,-1.1606,-1.1435,-1.1179,-1.1248,-1.1118,-1.072,-1.0692,-1.0664,-1.0603,-1.0599,-1.0566,-1.0501,-1.0335,-1.0237,-1.0205,-0.9953,-0.9819,-0.9892,-1.0059,-1.0552,-1.1478,-1.2093,-1.2738,-1.3362,-1.3604,-1.369,-1.3873,-1.3428,-1.3287,-1.3591,-1.338,-1.3456,-1.419,-1.4749,-1.4938,-1.4894,-1.4545,-1.3815,-1.269,-1.2069,-1.1241,-1.0034,-0.9768,-0.9878,-1.014,-1.0142,-1.0301,-1.0261,-1.0289,-1.0371,-1.0257,-1.0103,-1.0018,-1.0079,-0.9925,-0.9807,-1.003,-1.0197,-1.0282,-1.0293,-1.0274,-1.0178,-0.9869,-0.9656,-0.9641,-0.9359,-0.9169,-0.919,-0.928,-0.9414,-0.9331,-0.9647,-0.9991,-1.0327,-1.0696,-1.057,-1.0574,-1.3038,-1.3189,-1.3063,-1.3043,-1.3076,-1.297,-1.2921,-1.2905,-1.2787,-1.2775,-1.2832,-1.2836,-1.2767,-1.2682,-1.2779,-1.2836,-1.2836,-1.2832,-1.2645,-1.2324,-1.2304,-1.2121,-1.1821,-1.1776,-1.1776,-1.1776,-1.1776,-1.1776,-1.1776,-1.1776,-1.1776,-1.1776,-1.1776,-1.1776,-1.1776,-1.1776,-1.1792,-1.1841,-1.1857,-1.1723,-1.152,-1.1549,-1.1358,-1.0936,-1.0814,-1.0749,-1.0696,-1.0692,-1.0692,-1.0672,-1.053,-1.0408,-1.0327,-1.0115,-1.0006,-1.0067,-1.018,-1.064,-1.1558,-1.1806,-1.2205,-1.2827,-1.2689,-1.2566,-1.2725,-1.2158,-1.2028,-1.2381,-1.1858,-1.1742,-1.2355,-1.2414,-1.2663,-1.3271,-1.3469,-1.2962,-1.1827,-1.1654,-1.1015,-0.9953,-0.965,-0.9844,-1.0091,-1.0241,-1.027,-1.0172,-1.0233,-1.0193,-1.0079,-0.9925,-0.9831,-0.9945,-0.9791,-0.9709,-0.9831,-0.9969,-1.0059,-1.0064,-1.0103,-1.0012,-0.9804,-0.9591,-0.9242,-0.9068,-0.8839,-0.8755,-0.8779,-0.8906,-0.9205,-0.9537,-0.9903,-1.0229,-1.0385,-1.0546,-1.0343,-1.2865,-1.2881,-1.2844,-1.2958,-1.3084,-1.3076,-1.3084,-1.3051,-1.3047,-1.2942,-1.2844,-1.2836,-1.2816,-1.2812,-1.2816,-1.2832,-1.2812,-1.2824,-1.2657,-1.2353,-1.2328,-1.215,-1.1841,-1.1813,-1.1788,-1.1776,-1.1776,-1.1776,-1.1776,-1.1776,-1.1776,-1.1776,-1.1776,-1.1776,-1.1776,-1.178,-1.1857,-1.1975,-1.2016,-1.2016,-1.2008,-1.1849,-1.1581,-1.122,-1.1029,-1.0867,-1.07,-1.0692,-1.0802,-1.0781,-1.0542,-1.0355,-1.0322,-1.0369,-1.0334,-1.0428,-1.04,-1.0509,-1.0736,-1.0773,-1.0903,-1.1033,-1.0572,-1.0928,-1.1362,-1.0492,-1.038,-1.1712,-1.0824,-0.9941,-1.0811,-1.0547,-1.0879,-1.2897,-1.2894,-1.2379,-1.1644,-1.1307,-1.0797,-0.9859,-0.9795,-0.9876,-0.992,-1.0046,-1.0128,-1.0083,-1.0018,-0.9941,-0.9888,-0.9758,-0.9661,-0.9657,-0.9657,-0.9665,-0.9705,-0.9762,-0.9831,-0.9912,-0.986,-0.9739,-0.9634,-0.9421,-0.9075,-0.8806,-0.8567,-0.8484,-0.8549,-0.8678,-0.892,-0.9224,-0.9598,-0.9919,-1.0081,-1.014,-1.0116,-1.3011,-1.3015,-1.3015,-1.3043,-1.3088,-1.3092,-1.3031,-1.2925,-1.2917,-1.2885,-1.284,-1.2836,-1.2767,-1.2702,-1.2775,-1.2771,-1.2666,-1.2763,-1.2706,-1.2515,-1.2483,-1.2361,-1.215,-1.2008,-1.1886,-1.1792,-1.1776,-1.1776,-1.178,-1.1776,-1.1776,-1.1776,-1.1776,-1.1776,-1.1776,-1.178,-1.1857,-1.202,-1.2158,-1.2162,-1.2044,-1.1979,-1.1719,-1.1265,-1.1057,-1.0879,-1.0708,-1.0692,-1.1126,-1.1769,-1.1071,-1.0795,-1.1185,-1.1431,-1.1399,-1.1133,-1.0619,-1.0383,-1.0363,-1.0546,-1.057,-1.0404,-1.0327,-1.0387,-1.0594,-1.0054,-0.992,-1.0724,-0.9899,-0.9662,-0.9949,-0.9821,-1.0082,-1.0771,-1.0726,-1.0803,-1.041,-1.0255,-1.0023,-0.9727,-0.9677,-0.9705,-0.9742,-0.9876,-0.9953,-0.9847,-0.9843,-0.9847,-0.973,-0.9677,-0.9632,-0.9628,-0.9624,-0.9624,-0.9665,-0.9693,-0.9626,-0.9778,-0.9685,-0.9666,-0.9461,-0.9248,-0.8904,-0.8568,-0.833,-0.8241,-0.8409,-0.8446,-0.8674,-0.8888,-0.9221,-0.9511,-0.9674,-0.9768,-0.9768,-1.2999,-1.2999,-1.2999,-1.2954,-1.2913,-1.2966,-1.2897,-1.2751,-1.2735,-1.2771,-1.2816,-1.2763,-1.2714,-1.2694,-1.2787,-1.2771,-1.2686,-1.2791,-1.2775,-1.2661,-1.258,-1.2471,-1.2316,-1.2194,-1.204,-1.1898,-1.187,-1.187,-1.1866,-1.1809,-1.1776,-1.1776,-1.1776,-1.1776,-1.1776,-1.178,-1.1861,-1.2028,-1.2207,-1.2247,-1.2158,-1.2134,-1.1906,-1.148,-1.1256,-1.1045,-1.0826,-1.0794,-1.1088,-1.1573,-1.1017,-1.1112,-1.1861,-1.1736,-1.1447,-1.1037,-1.0687,-1.0355,-1.0217,-1.0367,-1.0452,-1.0298,-1.0245,-1.0262,-1.0213,-0.9863,-0.9705,-0.9899,-0.9717,-0.954,-0.9742,-0.9657,-0.9632,-0.9628,-0.9735,-0.9624,-0.9624,-0.9529,-0.9529,-0.9553,-0.975,-0.9746,-0.9701,-0.9847,-0.9864,-0.9717,-0.9717,-0.9774,-0.9657,-0.9632,-0.9624,-0.9624,-0.9624,-0.9624,-0.9624,-0.9632,-0.9533,-0.9577,-0.9634,-0.9578,-0.9392,-0.9082,-0.8858,-0.8438,-0.8109,-0.8123,-0.8177,-0.818,-0.8309,-0.857,-0.8909,-0.9093,-0.9371,-0.9577,-0.9581,-1.284,-1.2836,-1.2836,-1.2747,-1.2625,-1.2775,-1.2755,-1.2592,-1.2601,-1.2702,-1.2783,-1.2694,-1.2694,-1.2808,-1.2832,-1.2824,-1.2832,-1.2828,-1.2832,-1.2775,-1.267,-1.2519,-1.2357,-1.2296,-1.2186,-1.2069,-1.2004,-1.1996,-1.1987,-1.1849,-1.1776,-1.1776,-1.1776,-1.1776,-1.1776,-1.1776,-1.1857,-1.2032,-1.2194,-1.2264,-1.2272,-1.2239,-1.2093,-1.1744,-1.1529,-1.1273,-1.0992,-1.0911,-1.0954,-1.0826,-1.1126,-1.1638,-1.2163,-1.1437,-1.0908,-1.0661,-1.0506,-1.0302,-1.018,-1.0217,-1.0262,-1.0298,-1.0148,-1.005,-1.0327,-0.9971,-0.9741,-1.0111,-0.98,-0.9591,-0.973,-0.9717,-0.9636,-0.9624,-0.9624,-0.9632,-0.9644,-0.9458,-0.9478,-0.9614,-0.9916,-1.0014,-0.9681,-0.99,-0.9872,-0.9734,-0.9644,-0.9644,-0.964,-0.9624,-0.9624,-0.9624,-0.9624,-0.9624,-0.9624,-0.9628,-0.9529,-0.9339,-0.947,-0.9482,-0.9287,-0.8977,-0.877,-0.835,-0.8041,-0.8045,-0.8055,-0.8082,-0.8085,-0.8362,-0.8593,-0.8831,-0.9001,-0.9187,-0.934,-1.2836,-1.2836,-1.2836,-1.2731,-1.2601,-1.2759,-1.2731,-1.2592,-1.2706,-1.2775,-1.282,-1.2791,-1.2775,-1.2836,-1.2836,-1.2836,-1.2836,-1.2836,-1.2836,-1.2832,-1.2795,-1.2666,-1.2495,-1.2365,-1.2288,-1.2211,-1.2012,-1.191,-1.2008,-1.187,-1.1784,-1.1776,-1.1776,-1.1776,-1.1776,-1.1776,-1.1866,-1.2008,-1.2065,-1.2182,-1.2247,-1.2048,-1.1882,-1.1772,-1.148,-1.1216,-1.098,-1.0834,-1.1181,-1.1996,-1.2842,-1.3194,-1.3088,-1.2337,-1.1581,-1.1028,-1.0594,-1.0233,-0.9961,-1.0132,-1.0241,-1.0079,-1.0184,-1.0331,-1.0412,-1.0134,-1.0031,-1.0092,-0.9896,-0.967,-0.9666,-0.9665,-0.9636,-0.9624,-0.9652,-0.9697,-0.9774,-0.9819,-0.9714,-0.9831,-0.992,-0.9855,-0.9754,-0.9734,-0.9774,-0.9669,-0.9624,-0.9624,-0.9624,-0.9624,-0.9624,-0.9624,-0.9624,-0.9624,-0.9624,-0.9624,-0.9426,-0.9126,-0.924,-0.9446,-0.9149,-0.8847,-0.8641,-0.8333,-0.8137,-0.8041,-0.8041,-0.8052,-0.8041,-0.8137,-0.8285,-0.8567,-0.8601,-0.8762,-0.8924,-1.2836,-1.2836,-1.2836,-1.269,-1.2507,-1.2726,-1.269,-1.2523,-1.2641,-1.2771,-1.2808,-1.2751,-1.2763,-1.2832,-1.2836,-1.2836,-1.2836,-1.2836,-1.2836,-1.2836,-1.2832,-1.2726,-1.2576,-1.2446,-1.2414,-1.2385,-1.213,-1.2073,-1.2105,-1.1967,-1.1857,-1.1788,-1.1776,-1.1776,-1.1776,-1.178,-1.1817,-1.1918,-1.1987,-1.2089,-1.2158,-1.2,-1.1914,-1.1837,-1.1593,-1.135,-1.1102,-1.0907,-1.1321,-1.2119,-1.2625,-1.2783,-1.3113,-1.2238,-1.1465,-1.0971,-1.0569,-1.0164,-0.9973,-1.0099,-1.0172,-1.014,-1.029,-1.0387,-1.0485,-1.0266,-1.0265,-1.0404,-1.0047,-0.9967,-0.9799,-0.9786,-0.9742,-0.9754,-0.9803,-0.9855,-0.9892,-0.9778,-0.9823,-0.9969,-0.9994,-0.9933,-0.9766,-0.9795,-0.9754,-0.9677,-0.9628,-0.9624,-0.9624,-0.9624,-0.9624,-0.9624,-0.9624,-0.9624,-0.9624,-0.9624,-0.9624,-0.9225,-0.9031,-0.9331,-0.913,-0.873,-0.8531,-0.8333,-0.8137,-0.8038,-0.8038,-0.8038,-0.8038,-0.8079,-0.8194,-0.8309,-0.8448,-0.8543,-0.8703,-1.282,-1.2836,-1.2816,-1.2629,-1.2422,-1.2686,-1.2661,-1.2414,-1.2519,-1.2678,-1.2771,-1.2645,-1.2686,-1.2832,-1.2836,-1.2836,-1.2836,-1.2836,-1.2836,-1.2836,-1.2824,-1.2755,-1.2633,-1.256,-1.2536,-1.2499,-1.2373,-1.2251,-1.217,-1.2052,-1.1918,-1.1805,-1.1776,-1.1776,-1.1776,-1.1776,-1.1776,-1.1813,-1.1914,-1.1975,-1.2016,-1.1996,-1.1979,-1.191,-1.176,-1.1533,-1.1277,-1.1066,-1.1329,-1.2246,-1.1249,-1.1546,-1.2077,-1.1332,-1.0699,-1.0531,-1.04,-1.0209,-1.0144,-1.0059,-1.0111,-1.0322,-1.0286,-1.0339,-1.0574,-1.045,-1.0401,-1.045,-1.0359,-1.01,-1.0111,-0.9994,-0.9929,-0.9941,-1.0067,-1.0087,-0.9989,-0.9741,-0.98,-1.0136,-1.0164,-1.0099,-0.9998,-0.9989,-1.001,-0.975,-0.9681,-0.9624,-0.9624,-0.9624,-0.9624,-0.9624,-0.9624,-0.9624,-0.9624,-0.9624,-0.9624,-0.9525,-0.913,-0.9133,-0.8928,-0.8726,-0.8428,-0.8233,-0.8137,-0.8038,-0.8038,-0.8038,-0.8038,-0.8062,-0.8133,-0.8272,-0.8411,-0.8465,-0.8587,-1.2702,-1.2828,-1.2682,-1.258,-1.2552,-1.2739,-1.2706,-1.2507,-1.254,-1.2649,-1.2763,-1.2641,-1.2674,-1.2836,-1.2836,-1.2836,-1.2836,-1.2836,-1.2836,-1.2836,-1.2836,-1.2824,-1.2743,-1.2645,-1.2572,-1.2495,-1.2235,-1.2109,-1.206,-1.1967,-1.1821,-1.1797,-1.1784,-1.1776,-1.1776,-1.1776,-1.1776,-1.178,-1.1821,-1.1849,-1.1886,-1.1963,-1.1959,-1.1849,-1.1679,-1.1549,-1.1407,-1.1135,-1.1064,-1.1106,-1.0994,-1.1232,-1.1878,-1.1232,-1.0615,-1.0485,-1.0404,-1.031,-1.0213,-1.0257,-1.0335,-1.0424,-1.0513,-1.0611,-1.0655,-1.0445,-1.0248,-1.0193,-1.0079,-1.0083,-1.0176,-1.0132,-1.0107,-1.014,-1.0257,-1.0363,-1.0322,-1.02,-1.0156,-1.0233,-1.0282,-1.0253,-0.9953,-0.9957,-0.9929,-0.9823,-0.9742,-0.9648,-0.964,-0.9652,-0.9665,-0.9685,-0.9738,-0.9746,-0.9677,-0.9661,-0.9525,-0.9426,-0.913,-0.8832,-0.873,-0.863,-0.8333,-0.8233,-0.8134,-0.8038,-0.8038,-0.8038,-0.8038,-0.8055,-0.8079,-0.8197,-0.8306,-0.8374,-0.8472,-1.2751,-1.2824,-1.2735,-1.2641,-1.2588,-1.2661,-1.2605,-1.2467,-1.2442,-1.2544,-1.2661,-1.2601,-1.267,-1.2828,-1.2836,-1.2836,-1.2964,-1.3486,-1.335,-1.3091,-1.3354,-1.3486,-1.2828,-1.2739,-1.2653,-1.2536,-1.23,-1.217,-1.2113,-1.1987,-1.1914,-1.1882,-1.1821,-1.178,-1.1776,-1.1776,-1.1776,-1.1776,-1.1776,-1.1809,-1.1902,-1.189,-1.1886,-1.1792,-1.1675,-1.1598,-1.1476,-1.1244,-1.107,-1.0948,-1.0798,-1.0907,-1.1446,-1.1013,-1.0639,-1.057,-1.0465,-1.0456,-1.0432,-1.0424,-1.0465,-1.0546,-1.0643,-1.0672,-1.0692,-1.0582,-1.0441,-1.0337,-1.025,-1.0249,-1.0197,-1.0262,-1.0278,-1.0322,-1.0448,-1.055,-1.0546,-1.0489,-1.0452,-1.0396,-1.0424,-1.0347,-1.0209,-1.0103,-1.0038,-1.0018,-0.9864,-0.9774,-0.9774,-0.9782,-0.9774,-0.9803,-0.9872,-0.9868,-0.977,-0.9602,-0.943,-0.9225,-0.9023,-0.863,-0.8336,-0.8336,-0.8237,-0.8137,-0.8038,-0.8038,-0.8038,-0.8038,-0.8038,-0.8045,-0.8075,-0.814,-0.8208,-0.8296,-0.8404,-1.2812,-1.2832,-1.2804,-1.2718,-1.2609,-1.2584,-1.2495,-1.2369,-1.2284,-1.2361,-1.2487,-1.2503,-1.2677,-1.3,-1.3118,-1.3143,-1.3696,-1.452,-1.4782,-1.4132,-1.4777,-1.4651,-1.3997,-1.3582,-1.3232,-1.2942,-1.2541,-1.2333,-1.2207,-1.2121,-1.2032,-1.2024,-1.1857,-1.1813,-1.1813,-1.178,-1.1776,-1.1776,-1.1776,-1.1821,-1.1935,-1.1882,-1.1853,-1.1837,-1.1772,-1.1695,-1.1561,-1.1374,-1.1187,-1.1017,-1.0834,-1.0737,-1.0696,-1.0692,-1.0692,-1.068,-1.0558,-1.0546,-1.059,-1.0562,-1.055,-1.0688,-1.0692,-1.0692,-1.0692,-1.0582,-1.0574,-1.0538,-1.0454,-1.0337,-1.0282,-1.0383,-1.0465,-1.0497,-1.0611,-1.068,-1.0668,-1.0558,-1.0554,-1.0562,-1.0534,-1.0465,-1.0412,-1.0335,-1.0274,-1.0193,-1.003,-0.9916,-0.9912,-0.9929,-0.9929,-0.9933,-0.9998,-0.9945,-0.9843,-0.9578,-0.9402,-0.9126,-0.8825,-0.8528,-0.8237,-0.8137,-0.8137,-0.8038,-0.8038,-0.8038,-0.8038,-0.8038,-0.8038,-0.8038,-0.8055,-0.8096,-0.8157,-0.8326,-0.8422,-1.2698,-1.2824,-1.2674,-1.2674,-1.2759,-1.2625,-1.2527,-1.2471,-1.2194,-1.2182,-1.2316,-1.2203,-1.3091,-1.3911,-1.4079,-1.4623,-1.5603,-1.625,-1.6462,-1.6073,-1.6457,-1.6328,-1.5779,-1.4865,-1.4378,-1.4001,-1.3374,-1.2729,-1.2158,-1.2044,-1.2109,-1.2154,-1.1947,-1.1849,-1.1886,-1.1857,-1.1776,-1.1776,-1.1776,-1.1809,-1.1841,-1.1906,-1.1939,-1.1922,-1.1833,-1.176,-1.1695,-1.1545,-1.137,-1.1191,-1.1017,-1.0854,-1.0729,-1.0692,-1.0692,-1.068,-1.0655,-1.0643,-1.0672,-1.0668,-1.066,-1.0688,-1.0692,-1.0692,-1.0692,-1.0476,-1.0476,-1.0359,-1.0339,-1.0405,-1.0615,-1.0607,-1.0631,-1.0655,-1.066,-1.0692,-1.0684,-1.0651,-1.0586,-1.0562,-1.0578,-1.0599,-1.0538,-1.0485,-1.0416,-1.0327,-1.0205,-1.0071,-1.0014,-1.0063,-1.0115,-1.0119,-1.0128,-1.0022,-0.99,-0.9649,-0.938,-0.9061,-0.8832,-0.8528,-0.8233,-0.8137,-0.8038,-0.8038,-0.8038,-0.8038,-0.8038,-0.8038,-0.8038,-0.8038,-0.8045,-0.8048,-0.8092,-0.8244,-0.8477,-1.2755,-1.282,-1.2641,-1.267,-1.2751,-1.2434,-1.2345,-1.2369,-1.2065,-1.2,-1.2374,-1.2914,-1.3676,-1.4657,-1.5518,-1.6074,-1.6802,-1.7674,-1.7619,-1.7232,-1.7613,-1.7407,-1.6941,-1.6028,-1.5549,-1.5132,-1.4596,-1.3496,-1.2316,-1.2178,-1.2182,-1.2109,-1.1971,-1.1914,-1.1886,-1.1817,-1.178,-1.1776,-1.1776,-1.1776,-1.1897,-1.187,-1.1894,-1.1874,-1.1833,-1.178,-1.1744,-1.1593,-1.1411,-1.1232,-1.1057,-1.0883,-1.0753,-1.0692,-1.0692,-1.0692,-1.0692,-1.0692,-1.0692,-1.0692,-1.0688,-1.0692,-1.0692,-1.0692,-1.0692,-1.0586,-1.0476,-1.0366,-1.0363,-1.0366,-1.0464,-1.0586,-1.0692,-1.0692,-1.0692,-1.0692,-1.0692,-1.0692,-1.0635,-1.0566,-1.0615,-1.0643,-1.0619,-1.057,-1.0526,-1.0448,-1.0355,-1.0253,-1.0144,-1.0188,-1.0262,-1.0221,-1.0188,-1.0054,-0.9827,-0.9548,-0.9295,-0.8988,-0.8733,-0.8432,-0.8233,-0.8038,-0.8038,-0.8038,-0.8038,-0.8038,-0.8038,-0.8038,-0.8038,-0.8038,-0.8041,-0.8041,-0.8038,-0.8158,-0.8399,-1.2836,-1.282,-1.2896,-1.3034,-1.3072,-1.2867,-1.2969,-1.2906,-1.276,-1.2842,-1.3005,-1.4104,-1.4888,-1.5656,-1.6876,-1.7769,-1.7757,-1.8945,-1.878,-1.85,-1.8824,-1.8572,-1.7679,-1.691,-1.6539,-1.5929,-1.5322,-1.4707,-1.3152,-1.2775,-1.2494,-1.2231,-1.2154,-1.2004,-1.1926,-1.1841,-1.1805,-1.1776,-1.1776,-1.1897,-1.2134,-1.213,-1.213,-1.2134,-1.1893,-1.1776,-1.176,-1.1658,-1.1451,-1.1265,-1.109,-1.0923,-1.0737,-1.0692,-1.0692,-1.0692,-1.0692,-1.0692,-1.0692,-1.0692,-1.0692,-1.0692,-1.0692,-1.0692,-1.0692,-1.0692,-1.0582,-1.0472,-1.0363,-1.0363,-1.0476,-1.0582,-1.0692,-1.0692,-1.0692,-1.0692,-1.0692,-1.0692,-1.0692,-1.0668,-1.0692,-1.068,-1.0651,-1.0631,-1.0586,-1.0534,-1.044,-1.0424,-1.0331,-1.0335,-1.0359,-1.0294,-1.0217,-1.0075,-0.9741,-0.9419,-0.9048,-0.8763,-0.8535,-0.8233,-0.8137,-0.8038,-0.8041,-0.8048,-0.8038,-0.8038,-0.8038,-0.8038,-0.8038,-0.8038,-0.8038,-0.8038,-0.8038,-0.8233,-0.8457,-1.2836,-1.2947,-1.3918,-1.4235,-1.4444,-1.4883,-1.5307,-1.5191,-1.497,-1.5345,-1.5176,-1.5539,-1.6431,-1.779,-1.9355,-1.9957,-2.0081,-2.0248,-2.0462,-2.0176,-2.0242,-2.0112,-1.9878,-1.8637,-1.7552,-1.6615,-1.5484,-1.4571,-1.3861,-1.3694,-1.3313,-1.2631,-1.2223,-1.2077,-1.2109,-1.1922,-1.178,-1.1776,-1.1776,-1.2251,-1.3075,-1.3315,-1.3315,-1.296,-1.2487,-1.1893,-1.1897,-1.1711,-1.1573,-1.1281,-1.1212,-1.1021,-1.0765,-1.0692,-1.0692,-1.0692,-1.0692,-1.0692,-1.0692,-1.0692,-1.0692,-1.0692,-1.0692,-1.0692,-1.0692,-1.0692,-1.0582,-1.0692,-1.0582,-1.0582,-1.0582,-1.0692,-1.0692,-1.0692,-1.0692,-1.0692,-1.0692,-1.0692,-1.0692,-1.0692,-1.0692,-1.0692,-1.068,-1.0664,-1.0639,-1.0586,-1.0542,-1.0526,-1.0497,-1.0469,-1.0367,-1.0278,-1.0048,-0.9907,-0.9583,-0.9272,-0.8918,-0.8538,-0.8368,-0.8165,-0.8058,-0.8065,-0.8062,-0.8065,-0.8058,-0.8045,-0.8038,-0.8038,-0.8038,-0.8038,-0.8038,-0.8038,-0.8038,-0.8233,-0.8432,-1.5101,-1.4966,-1.5388,-1.5423,-1.5492,-1.5671,-1.579,-1.5723,-1.5677,-1.5704,-1.6117,-1.6663,-1.7775,-1.9338,-2.0418,-2.0608,-2.0588,-2.0915,-2.1096,-2.1042,-2.0835,-2.0675,-2.0478,-1.9769,-1.8723,-1.7417,-1.6691,-1.5725,-1.4794,-1.3558,-1.2863,-1.2488,-1.2268,-1.215,-1.219,-1.2008,-1.1878,-1.1809,-1.1897,-1.201,-1.2603,-1.3195,-1.3435,-1.2724,-1.2719,-1.2367,-1.1893,-1.1768,-1.1654,-1.1403,-1.1297,-1.111,-1.0887,-1.0761,-1.0692,-1.0692,-1.0692,-1.0692,-1.0692,-1.0692,-1.0692,-1.0692,-1.0692,-1.0692,-1.0688,-1.0582,-1.0472,-1.0472,-1.0472,-1.0472,-1.0582,-1.0582,-1.0692,-1.0692,-1.0692,-1.0692,-1.0692,-1.0692,-1.0692,-1.0692,-1.0692,-1.0692,-1.0692,-1.068,-1.0672,-1.0647,-1.0615,-1.0603,-1.0554,-1.0501,-1.0367,-1.0201,-0.9959,-0.9611,-0.9295,-0.8992,-0.8681,-0.8457,-0.8372,-0.8153,-0.8109,-0.8102,-0.8116,-0.8126,-0.8133,-0.8109,-0.8058,-0.8038,-0.8038,-0.8038,-0.8038,-0.8038,-0.8038,-0.8237,-0.8538,-1.7862,-1.7485,-1.6988,-1.6764,-1.6607,-1.6674,-1.668,-1.6754,-1.6874,-1.6903,-1.7092,-1.7961,-1.9024,-1.9826,-2.0341,-2.0521,-2.0575,-2.0942,-2.1076,-2.1009,-2.0842,-2.0695,-2.0581,-2.0143,-1.9286,-1.7848,-1.7925,-1.6479,-1.4421,-1.343,-1.3071,-1.2231,-1.2369,-1.228,-1.2138,-1.2036,-1.1939,-1.1788,-1.2251,-1.2487,-1.2603,-1.331,-1.308,-1.2844,-1.2724,-1.2724,-1.2014,-1.1776,-1.1683,-1.15,-1.1313,-1.1135,-1.0956,-1.0789,-1.07,-1.0692,-1.0692,-1.0692,-1.0692,-1.0692,-1.0692,-1.0692,-1.0692,-1.0692,-1.0692,-1.0472,-1.0366,-1.0476,-1.0476,-1.0476,-1.0476,-1.0582,-1.0692,-1.0692,-1.0582,-1.0692,-1.0692,-1.0692,-1.0692,-1.0692,-1.0692,-1.0692,-1.0692,-1.0692,-1.0688,-1.0692,-1.0684,-1.0672,-1.0486,-1.0393,-1.0103,-0.9808,-0.9536,-0.9314,-0.8944,-0.866,-0.8443,-0.8385,-0.8302,-0.8197,-0.8123,-0.8157,-0.8208,-0.8214,-0.818,-0.8123,-0.8045,-0.8041,-0.8038,-0.8038,-0.8038,-0.8137,-0.8237,-0.8435,-0.8674,-2.0684,-2.0276,-1.8742,-1.8135,-1.8117,-1.9056,-1.9266,-1.8927,-1.9448,-1.9461,-1.916,-1.9549,-1.943,-1.9659,-2.004,-2.0307,-2.0307,-2.0855,-2.1042,-2.1002,-2.0835,-2.0695,-2.0601,-2.0002,-1.9025,-1.7326,-1.7354,-1.5854,-1.397,-1.3758,-1.3302,-1.2873,-1.2556,-1.243,-1.2276,-1.2113,-1.1947,-1.2051,-1.2487,-1.3075,-1.3195,-1.3545,-1.355,-1.3195,-1.2487,-1.1893,-1.1776,-1.1776,-1.1715,-1.1537,-1.1334,-1.1179,-1.1013,-1.0806,-1.0704,-1.0692,-1.0692,-1.0692,-1.0692,-1.0692,-1.0692,-1.0692,-1.0692,-1.0692,-1.0692,-1.0692,-1.0692,-1.0582,-1.0582,-1.0582,-1.0692,-1.0692,-1.0692,-1.0692,-1.0586,-1.0582,-1.0582,-1.0472,-1.0582,-1.0692,-1.0692,-1.0692,-1.0692,-1.0582,-1.0582,-1.0582,-1.0464,-1.0343,-1.0105,-0.9888,-0.9591,-0.9305,-0.912,-0.8822,-0.8596,-0.8385,-0.8345,-0.8376,-0.8347,-0.818,-0.8079,-0.8157,-0.8309,-0.8174,-0.8116,-0.8075,-0.8048,-0.8041,-0.8134,-0.8035,-0.8134,-0.8233,-0.8432,-0.863,-0.8911,-2.0668,-2.0292,-1.9847,-1.9646,-1.9485,-1.9866,-1.99,-1.9693,-1.9867,-1.9806,-1.9566,-1.9693,-1.9639,-1.9593,-1.994,-2.0234,-2.0287,-2.0641,-2.0895,-2.0895,-2.0702,-2.0661,-2.0414,-1.9568,-1.8381,-1.6914,-1.6578,-1.5302,-1.3122,-1.3613,-1.3265,-1.2894,-1.2661,-1.2556,-1.2398,-1.2174,-1.1955,-1.1946,-1.2255,-1.2483,-1.2724,-1.331,-1.331,-1.2487,-1.3195,-1.2487,-1.2014,-1.1776,-1.1727,-1.1614,-1.1374,-1.1216,-1.1078,-1.0842,-1.0712,-1.0692,-1.0692,-1.07,-1.0708,-1.07,-1.0692,-1.0692,-1.0692,-1.0692,-1.0696,-1.0692,-1.0692,-1.0692,-1.0692,-1.0692,-1.0692,-1.0692,-1.0692,-1.0692,-1.0586,-1.0586,-1.0582,-1.0472,-1.0472,-1.0692,-1.0692,-1.0692,-1.0582,-1.0586,-1.0472,-1.0363,-1.0245,-1.0108,-0.9779,-0.9567,-0.9308,-0.9089,-0.8936,-0.8772,-0.8554,-0.8463,-0.8367,-0.8371,-0.8282,-0.8184,-0.8113,-0.8296,-0.8381,-0.8214,-0.8085,-0.8092,-0.8079,-0.8148,-0.8233,-0.8233,-0.8333,-0.8432,-0.863,-0.8931,-0.9152,-2.0608,-2.0521,-2.0715,-2.0581,-2.0267,-2.0327,-2.0194,-1.9993,-2.0147,-1.996,-1.9633,-1.9686,-1.9566,-1.9553,-1.9846,-2.0087,-2.0066,-2.0099,-2.0054,-1.9831,-1.9537,-1.9556,-1.9305,-1.8607,-1.7446,-1.6441,-1.5944,-1.4768,-1.2816,-1.3218,-1.3218,-1.2919,-1.2714,-1.2641,-1.2475,-1.2223,-1.209,-1.2356,-1.1913,-1.178,-1.2014,-1.2487,-1.284,-1.2014,-1.2603,-1.2487,-1.2014,-1.1776,-1.1776,-1.1646,-1.1459,-1.1252,-1.1098,-1.0932,-1.0733,-1.0696,-1.07,-1.0716,-1.0651,-1.0773,-1.0773,-1.0798,-1.0794,-1.0761,-1.0708,-1.0692,-1.0692,-1.0692,-1.0692,-1.0696,-1.0704,-1.0692,-1.0692,-1.0692,-1.0476,-1.0476,-1.0582,-1.0582,-1.0582,-1.0692,-1.0692,-1.0696,-1.0476,-1.0366,-1.0143,-1.0033,-0.9923,-0.9801,-0.9651,-0.9435,-0.9115,-0.9023,-0.8829,-0.88,-0.879,-0.8588,-0.8392,-0.8374,-0.8265,-0.8204,-0.8201,-0.8353,-0.8357,-0.8157,-0.8079,-0.8119,-0.8199,-0.8247,-0.8333,-0.8333,-0.8531,-0.873,-0.9061,-0.9287,-0.9423,-2.0808,-2.1076,-2.1069,-2.0755,-2.0287,-2.0548,-2.0481,-2.0234,-2.0601,-2.0528,-1.9987,-1.9626,-1.9412,-1.9446,-1.974,-1.9873,-1.9727,-1.9233,-1.8914,-1.8729,-1.8262,-1.7494,-1.7163,-1.6941,-1.6327,-1.5659,-1.5226,-1.4415,-1.2812,-1.3565,-1.3578,-1.3095,-1.2791,-1.2841,-1.2548,-1.2219,-1.2776,-1.3573,-1.2461,-1.1934,-1.1897,-1.2014,-1.1897,-1.2018,-1.2014,-1.2014,-1.1893,-1.1776,-1.1776,-1.1715,-1.1455,-1.1289,-1.1228,-1.0948,-1.0785,-1.0757,-1.0745,-1.0703,-1.061,-1.0852,-1.0968,-1.0919,-1.0875,-1.0814,-1.0724,-1.0692,-1.0716,-1.0745,-1.0761,-1.0745,-1.072,-1.0737,-1.0781,-1.0765,-1.056,-1.0528,-1.0643,-1.0582,-1.0692,-1.0716,-1.0712,-1.0704,-1.048,-1.026,-0.9926,-0.9702,-0.9485,-0.9478,-0.9354,-0.9201,-0.8998,-0.8963,-0.8897,-0.8766,-0.8707,-0.8519,-0.8316,-0.8292,-0.8252,-0.8197,-0.8157,-0.8208,-0.8163,-0.8055,-0.8055,-0.8182,-0.8364,-0.8439,-0.867,-0.8903,-0.8947,-0.924,-0.9478,-0.9658,-0.9701,-2.0434,-2.0561,-2.0942,-2.0768,-2.0314,-2.0548,-2.0501,-2.0227,-2.0054,-1.9846,-1.9666,-1.9412,-1.9366,-1.9459,-1.9633,-1.9786,-1.9721,-1.9661,-1.921,-1.8368,-1.7839,-1.7455,-1.6881,-1.5716,-1.5213,-1.4657,-1.4477,-1.3979,-1.2649,-1.3427,-1.3261,-1.28,-1.3075,-1.3248,-1.3735,-1.3762,-1.4038,-1.3774,-1.2808,-1.1902,-1.1792,-1.178,-1.1776,-1.1776,-1.1776,-1.1776,-1.1776,-1.1776,-1.1776,-1.1752,-1.1496,-1.1399,-1.1358,-1.1118,-1.1029,-1.1029,-1.1041,-1.1131,-1.1033,-1.1189,-1.0962,-1.0936,-1.0911,-1.0838,-1.0704,-1.0692,-1.0749,-1.0867,-1.0952,-1.0984,-1.1053,-1.1179,-1.1208,-1.1062,-1.0904,-1.0923,-1.0871,-1.0753,-1.07,-1.0745,-1.0761,-1.0473,-1.0266,-0.9953,-0.9706,-0.9485,-0.9268,-0.9268,-0.9147,-0.9037,-0.8989,-0.8879,-0.8845,-0.8818,-0.874,-0.8673,-0.8636,-0.8598,-0.8405,-0.8204,-0.8167,-0.8237,-0.8206,-0.8172,-0.8251,-0.8336,-0.8596,-0.8851,-0.9179,-0.9388,-0.9457,-0.9558,-0.9714,-0.979,-0.9883,-2.0354,-2.0561,-2.0835,-2.0748,-2.0448,-2.0595,-2.0508,-2.018,-1.9733,-1.9519,-1.9512,-1.9432,-1.9366,-1.9426,-1.9546,-1.9653,-1.9666,-1.9296,-1.8464,-1.7696,-1.7144,-1.6024,-1.5042,-1.4468,-1.3934,-1.3593,-1.3016,-1.2385,-1.2475,-1.2475,-1.2568,-1.2959,-1.3709,-1.4321,-1.4585,-1.4089,-1.3957,-1.3595,-1.2991,-1.1971,-1.1882,-1.1825,-1.1776,-1.1776,-1.1776,-1.1776,-1.1776,-1.1776,-1.1772,-1.1723,-1.163,-1.1512,-1.1455,-1.135,-1.1236,-1.1224,-1.1189,-1.1249,-1.133,-1.1122,-1.1113,-1.1212,-1.1033,-1.0948,-1.0895,-1.0915,-1.096,-1.1062,-1.1175,-1.1208,-1.1261,-1.1419,-1.1382,-1.1224,-1.1118,-1.1021,-1.0948,-1.083,-1.0716,-1.0765,-1.0552,-1.0285,-0.9991,-0.9791,-0.9489,-0.9268,-0.9158,-0.9051,-0.9051,-0.9047,-0.9047,-0.9151,-0.9147,-0.9223,-0.9159,-0.9165,-0.9033,-0.8818,-0.8677,-0.8428,-0.847,-0.8539,-0.8414,-0.8407,-0.8535,-0.8772,-0.9037,-0.929,-0.965,-0.976,-0.9827,-0.9941,-0.9973,-1.0034,-0.9999,-2.0548,-2.1002,-2.0782,-2.0641,-2.0628,-2.0575,-2.0448,-2.0187,-1.9907,-1.9766,-1.9746,-1.9452,-1.9372,-1.9366,-1.9386,-1.9406,-1.9349,-1.8804,-1.7523,-1.6221,-1.5862,-1.4331,-1.32,-1.2746,-1.2737,-1.2569,-1.2255,-1.2203,-1.2292,-1.2349,-1.2438,-1.3071,-1.4761,-1.4914,-1.4369,-1.394,-1.3824,-1.3925,-1.3013,-1.2229,-1.1987,-1.1882,-1.1821,-1.1792,-1.1776,-1.1776,-1.1776,-1.1776,-1.1776,-1.1723,-1.1626,-1.1553,-1.1464,-1.1338,-1.1277,-1.1181,-1.12,-1.126,-1.1418,-1.1193,-1.13,-1.1464,-1.1468,-1.1382,-1.1236,-1.1126,-1.1155,-1.122,-1.1313,-1.1297,-1.1317,-1.135,-1.1378,-1.1261,-1.1151,-1.1078,-1.1017,-1.0911,-1.0781,-1.0634,-1.0394,-1.0094,-0.969,-0.9418,-0.9379,-0.9379,-0.9379,-0.9489,-0.9489,-0.9375,-0.9485,-0.9596,-0.9596,-0.9706,-0.964,-0.9446,-0.9348,-0.9104,-0.9006,-0.8856,-0.8899,-0.8892,-0.8802,-0.8827,-0.8969,-0.9218,-0.9476,-0.976,-1.0056,-1.0148,-1.0123,-1.0136,-1.0168,-1.0172,-1.0241,-2.0147,-2.0468,-2.0394,-2.0247,-2.0067,-2.006,-2.0,-1.9907,-1.9826,-1.97,-1.9486,-1.9406,-1.9366,-1.9366,-1.9366,-1.9366,-1.9309,-1.8927,-1.7601,-1.6442,-1.5551,-1.4084,-1.2966,-1.2203,-1.2166,-1.2089,-1.2028,-1.2024,-1.2125,-1.2207,-1.23,-1.2779,-1.4458,-1.4405,-1.4074,-1.3864,-1.4171,-1.4061,-1.2893,-1.2352,-1.2069,-1.1951,-1.187,-1.1805,-1.1776,-1.1776,-1.1776,-1.1776,-1.1776,-1.1748,-1.1723,-1.1695,-1.1683,-1.1642,-1.1618,-1.1618,-1.1427,-1.1327,-1.1571,-1.1443,-1.1315,-1.1671,-1.1679,-1.1496,-1.1338,-1.1269,-1.1317,-1.1399,-1.1488,-1.1508,-1.1537,-1.1565,-1.1557,-1.1484,-1.137,-1.1265,-1.1191,-1.0936,-1.0807,-1.0369,-1.0124,-0.9853,-0.9439,-0.9411,-0.9379,-0.9489,-0.9596,-0.9816,-0.9816,-0.9816,-0.9816,-0.9926,-0.9926,-1.0036,-0.9874,-0.9682,-0.9596,-0.9481,-0.9403,-0.9282,-0.9293,-0.9286,-0.9149,-0.9274,-0.9442,-0.968,-1.002,-1.0225,-1.0351,-1.0359,-1.0343,-1.0347,-1.0355,-1.0335,-1.0375,-1.99,-2.0047,-2.006,-1.9953,-1.982,-1.9806,-1.9806,-1.9806,-1.9806,-1.9686,-1.9539,-1.9426,-1.9366,-1.9366,-1.9366,-1.9372,-1.9379,-1.9429,-1.8407,-1.6935,-1.6062,-1.4632,-1.3423,-1.2296,-1.2008,-1.1914,-1.1857,-1.1861,-1.1963,-1.2093,-1.2199,-1.2336,-1.3748,-1.3449,-1.3259,-1.3731,-1.4121,-1.3647,-1.2902,-1.2402,-1.213,-1.1971,-1.1861,-1.1805,-1.1776,-1.1776,-1.1776,-1.1776,-1.1776,-1.1776,-1.1776,-1.1776,-1.1772,-1.1768,-1.1764,-1.1748,-1.1627,-1.1631,-1.1752,-1.1631,-1.1643,-1.1772,-1.1772,-1.1667,-1.1569,-1.1504,-1.1545,-1.1602,-1.1691,-1.1768,-1.1813,-1.1841,-1.1809,-1.1768,-1.1634,-1.1378,-1.1241,-1.0978,-1.0623,-1.016,-0.9861,-0.9572,-0.9425,-0.9396,-0.9489,-0.9816,-0.9926,-1.0143,-1.0143,-1.0147,-1.0147,-1.0257,-1.0257,-1.0253,-1.0085,-0.9937,-0.9981,-0.99,-0.9894,-0.9801,-0.9707,-0.9665,-0.9715,-0.9758,-0.9945,-1.0192,-1.0335,-1.0436,-1.0538,-1.0526,-1.0517,-1.0521,-1.0489,-1.0432,-1.0393,-1.9766,-1.9766,-1.9766,-1.974,-1.9733,-1.976,-1.9806,-1.9806,-1.9806,-1.978,-1.9693,-1.9512,-1.9412,-1.9386,-1.9366,-1.9366,-1.9419,-1.9546,-1.8568,-1.7361,-1.6364,-1.4958,-1.3377,-1.2516,-1.2016,-1.1821,-1.178,-1.1797,-1.1825,-1.1931,-1.202,-1.2147,-1.3545,-1.3644,-1.2683,-1.3843,-1.3961,-1.2817,-1.2548,-1.2239,-1.206,-1.1902,-1.1792,-1.178,-1.1776,-1.1776,-1.1776,-1.1776,-1.1776,-1.1776,-1.1776,-1.1776,-1.1776,-1.1776,-1.1776,-1.1776,-1.1772,-1.1772,-1.1772,-1.1772,-1.1772,-1.1776,-1.1772,-1.1744,-1.1687,-1.1663,-1.1687,-1.1695,-1.176,-1.1776,-1.1805,-1.1813,-1.1792,-1.1768,-1.1683,-1.1487,-1.1292,-1.0891,-1.0375,-0.9905,-0.9662,-0.9374,-0.9407,-0.9489,-0.9706,-1.0036,-1.0363,-1.0472,-1.048,-1.037,-1.037,-1.048,-1.0366,-1.0363,-1.0355,-1.0311,-1.0381,-1.0413,-1.0325,-1.0214,-1.0107,-1.015,-1.0176,-1.015,-1.0134,-1.0417,-1.0582,-1.0627,-1.0635,-1.0639,-1.0639,-1.0668,-1.0631,-1.0546,-1.0462,-1.9472,-1.9472,-1.9472,-1.9345,-1.9205,-1.9613,-1.98,-1.9806,-1.9806,-1.9686,-1.9526,-1.9599,-1.9553,-1.9386,-1.9366,-1.9366,-1.9406,-1.9342,-1.7997,-1.7015,-1.6122,-1.5057,-1.2866,-1.2431,-1.1934,-1.1792,-1.1776,-1.1776,-1.1792,-1.1829,-1.1849,-1.1983,-1.3224,-1.3199,-1.2233,-1.351,-1.3389,-1.2242,-1.2235,-1.219,-1.2012,-1.1979,-1.1926,-1.1829,-1.1776,-1.1776,-1.1776,-1.1776,-1.1776,-1.1776,-1.1776,-1.1776,-1.1776,-1.1776,-1.1776,-1.1776,-1.1776,-1.1776,-1.1776,-1.1776,-1.1776,-1.1776,-1.1776,-1.1776,-1.1772,-1.1776,-1.1776,-1.1776,-1.1776,-1.1776,-1.1776,-1.1776,-1.1772,-1.1752,-1.1732,-1.1467,-1.1199,-1.0661,-1.0124,-0.9752,-0.9493,-0.9388,-0.9532,-0.9599,-0.9926,-1.0143,-1.0472,-1.0586,-1.0606,-1.0614,-1.0496,-1.0492,-1.0366,-1.0363,-1.0472,-1.0464,-1.0425,-1.049,-1.0305,-1.0333,-1.028,-1.0221,-1.005,-1.0241,-1.0323,-1.0441,-1.055,-1.0672,-1.0684,-1.0692,-1.0692,-1.0692,-1.0692,-1.0627,-1.0538,-1.9516,-1.9422,-1.9435,-1.9192,-1.9065,-1.9553,-1.9659,-1.9506,-1.9813,-1.976,-1.9412,-1.9519,-1.9512,-1.9372,-1.9366,-1.9366,-1.9366,-1.9372,-1.8784,-1.7713,-1.6279,-1.5359,-1.4033,-1.2844,-1.2259,-1.2014,-1.1897,-1.1776,-1.2014,-1.178,-1.1909,-1.203,-1.2851,-1.2895,-1.2069,-1.2802,-1.3075,-1.1939,-1.2174,-1.2146,-1.1987,-1.1967,-1.1935,-1.1829,-1.1776,-1.1776,-1.1776,-1.1776,-1.1776,-1.1776,-1.1776,-1.1776,-1.1776,-1.1776,-1.1776,-1.1776,-1.1776,-1.1776,-1.1776,-1.1776,-1.1776,-1.1776,-1.1776,-1.1776,-1.1776,-1.1776,-1.1776,-1.1776,-1.1776,-1.1776,-1.1776,-1.1776,-1.1776,-1.176,-1.1756,-1.1623,-1.1203,-1.0844,-1.0487,-1.0288,-0.9993,-0.9905,-0.9932,-0.9953,-1.0189,-1.0508,-1.0818,-1.0814,-1.0814,-1.0749,-1.0626,-1.052,-1.0406,-1.0378,-1.0363,-1.0363,-1.0355,-1.0421,-1.0401,-1.0198,-1.012,-0.9911,-0.9923,-1.0143,-1.0359,-1.0468,-1.0582,-1.0692,-1.0692,-1.0692,-1.0692,-1.0692,-1.0696,-1.0704,-1.0582,-1.9644,-1.9432,-1.9476,-1.9165,-1.8991,-1.9539,-1.9479,-1.9138,-1.9793,-1.986,-1.9412,-1.9379,-1.9366,-1.9366,-1.9366,-1.9366,-1.9366,-1.9366,-1.9249,-1.8532,-1.7701,-1.6279,-1.5213,-1.4386,-1.3555,-1.2964,-1.2728,-1.2728,-1.2728,-1.2728,-1.2728,-1.2371,-1.2255,-1.2259,-1.218,-1.2373,-1.2656,-1.2314,-1.2172,-1.2184,-1.2119,-1.1939,-1.1898,-1.1837,-1.1776,-1.1776,-1.1776,-1.1776,-1.1776,-1.1776,-1.1776,-1.1776,-1.1776,-1.1776,-1.1776,-1.1776,-1.1776,-1.1776,-1.1776,-1.1776,-1.1776,-1.1776,-1.1776,-1.1776,-1.1776,-1.1776,-1.1776,-1.1776,-1.1776,-1.1776,-1.1776,-1.1776,-1.1776,-1.1772,-1.1772,-1.1647,-1.1331,-1.0909,-1.0733,-1.0554,-1.0484,-1.0258,-1.0374,-1.0389,-1.0528,-1.0852,-1.0988,-1.0992,-1.096,-1.0842,-1.0663,-1.0572,-1.0588,-1.0552,-1.0382,-1.0307,-1.0327,-1.0552,-1.0544,-1.0189,-0.9842,-0.9618,-0.9721,-1.0036,-1.0257,-1.0366,-1.0586,-1.0692,-1.0692,-1.0737,-1.0692,-1.0704,-1.0769,-1.0765,-1.0598,-1.9974,-1.9723,-1.9469,-1.9179,-1.8962,-1.9555,-1.9466,-1.9085,-1.9579,-1.9679,-1.9419,-1.9359,-1.9366,-1.9366,-1.9366,-1.9482,-1.9591,-1.9482,-1.8642,-1.7812,-1.7929,-1.6868,-1.5924,-1.5213,-1.5095,-1.4743,-1.4505,-1.4743,-1.4147,-1.4391,-1.4743,-1.4624,-1.4624,-1.4267,-1.3559,-1.3755,-1.3825,-1.3157,-1.2882,-1.3058,-1.2151,-1.1975,-1.1914,-1.1849,-1.1776,-1.1776,-1.1776,-1.1776,-1.1776,-1.1776,-1.1776,-1.1776,-1.1776,-1.1776,-1.1776,-1.1776,-1.1776,-1.1776,-1.1776,-1.1776,-1.1776,-1.1776,-1.1776,-1.1776,-1.1776,-1.1776,-1.1776,-1.1776,-1.1776,-1.1776,-1.1776,-1.1776,-1.1776,-1.1772,-1.1647,-1.1522,-1.1242,-1.1094,-1.082,-1.0744,-1.0627,-1.0585,-1.0708,-1.076,-1.0858,-1.102,-1.1078,-1.1086,-1.1147,-1.0997,-1.0727,-1.0763,-1.0803,-1.0584,-1.0406,-1.0185,-1.0223,-1.0571,-1.0695,-1.0351,-0.9969,-0.9314,-0.9411,-0.9983,-1.017,-1.015,-1.0366,-1.0749,-1.0818,-1.0854,-1.0741,-1.072,-1.0806,-1.0842,-1.0802]},{"header":{"parameterUnit":"m.s-1","parameterCategory":1,"la1":31.0,"la2":29.5877,"lo1":-88.7671,"lo2":-86.6584,"dy":0.0162,"dx":0.0185,"nx":115,"ny":88,"refTime":"2023-08-09T18:00:00:Z","depth":0,"parameterNumber":3,"parameterNumberName":"V-component_of_WINDS"},"data":[0.0,0.0,0.0,0.0,0.0,0.0,0.0,0.0,0.0,0.0,0.0,0.0,0.0,0.0,0.0,0.0,0.0,0.0,0.0,0.0,0.0,0.0,0.0,0.0,0.0,0.0,0.0,0.0,0.0,0.0,0.0,0.0,0.0,0.0,0.0,0.0,0.0,0.0,0.0,0.0,0.0,0.0,0.0,0.0,0.0,0.0,0.0,0.0,0.0,0.0,0.0,0.0,0.0,0.0,0.0,0.0,0.0,0.0,0.0,0.0,0.0,0.0,0.0,0.0,0.0,0.0,0.0,0.0,0.0,0.0,0.0,0.0,0.0,0.0,0.0,0.0,0.0,0.0,0.0,0.0,0.0,0.0,0.0,0.0,0.0,0.0,0.0,0.0,0.0,0.0,0.0,0.0,0.0,0.0,0.0,0.0,0.0,0.0,0.0,0.0,0.0,0.0,0.0,0.0,0.0,0.0,0.0,0.0,0.0,0.0,0.0,0.0,0.0,0.0,0.0,0.0,0.0,0.0,0.0,0.0,0.0,0.0,0.0,0.0,0.0,0.0,0.0,0.0,0.0,0.0,0.0,0.0,0.0,0.0,0.0,0.0,0.0,0.0,0.0,0.0,0.0,0.0,0.0,0.0,0.0,0.0,0.0,0.0,0.0,0.0,0.0,0.0,0.0,0.0,0.0,0.0,0.0,0.0,0.0,0.0,0.0,0.0,0.0,0.0,0.0,0.0,0.0,0.0,0.0,0.0,0.0,0.0,0.0,0.0,0.0,0.0,0.0,0.0,0.0,0.0,0.0,0.0,0.0,0.0,0.0,0.0,0.0,0.0,0.0,0.0,0.0,0.0,0.0,0.0,0.0,0.0,0.0,0.0,0.0,0.0,0.0,0.0,0.0,0.0,0.0,0.0,0.0,0.0,0.0,0.0,0.0,0.0,0.0,0.0,0.0,0.0,0.0,0.0,0.0,0.0,0.0,0.0,0.0,0.0,0.0,0.0,0.0,0.0,0.0,0.0,0.0,0.0,0.0,0.0,0.0,0.0,0.0,0.0,0.0,0.0,0.0,0.0,0.0,0.0,0.0,0.0,0.0,0.0,0.0,0.0,0.0,0.0,0.0,0.0,0.0,0.0,0.0,0.0,0.0,0.0,0.0,0.0,0.0,0.0,0.0,0.0,0.0,0.0,0.0,0.0,0.0,0.0,0.0,0.0,0.0,0.0,0.0,0.0,0.0,0.0,0.0,0.0,0.0,0.0,0.0,0.0,0.0,0.0,0.0,0.0,0.0,0.0,0.0,0.0,0.0,0.0,0.0,0.0,0.0,0.0,0.0,0.0,0.0,0.0,0.0,0.0,0.0,0.0,0.0,0.0,0.0,0.0,0.0,0.0,0.0,0.0,0.0,0.0,0.0,0.0,0.0,0.0,0.0,0.0,0.0,0.0,0.0,0.0,0.0,0.0,0.0,0.0,0.0,0.0,0.0,0.0,0.0,0.0,0.0,0.0,0.0,0.0,0.0,0.0,0.0,0.0,0.0,0.0,0.0,0.0,0.0,0.0,0.0,0.0,0.0,0.0,0.0,0.0,0.0,0.0,0.0,0.0,0.0,0.0,0.0,0.0,0.0,0.0,0.0,0.0,0.0,0.0,0.0,0.0,0.0,0.0,0.0,0.0,0.0,0.0,0.0,0.0,0.0,0.0,0.0,0.0,0.0,0.0,0.0,0.0,0.0,0.0,0.0,0.0,0.0,0.0,0.0,0.0,0.0,0.0,0.0,0.0,0.0,0.0,0.0,0.0,0.0,0.0,0.0,0.0,0.0,0.0,0.0,0.0,0.0,0.0,0.0,0.0,0.0,0.0,0.0,0.0,0.0,0.0,0.0,0.0,0.0,0.0,0.0,0.0,0.0,0.0,0.0,0.0,0.0,0.0,0.0,0.0,0.0,0.0,0.0,0.0,0.0,0.0,0.0,0.0,0.0,0.0,0.0,0.0,0.0,0.0,0.0,0.0,0.0,0.0,0.0,0.0,0.0,0.0,0.0,0.0,0.0,0.0,0.0,0.0,0.0,0.0,0.0,0.0,0.0,0.0,0.0,0.0,0.0,0.0,0.0,0.0,0.0,0.0,0.0,0.0,0.0,0.0,0.0,0.0,0.0,0.0,0.0,0.0,0.0,0.0,0.0,0.0,0.0,0.0,0.0,0.0,0.0,0.0,0.0,0.0,0.0,0.0,0.0,0.0,0.0,0.0,0.0,0.0,0.0,0.0,0.0,0.0,0.0,0.0,0.0,0.0,0.0,0.0,0.0,0.0,0.0,0.0,0.0,0.0,0.0,0.0,0.0,0.0,0.0,0.0,0.0,0.0,0.0,0.0,0.0,0.0,0.0,0.0,0.0,0.0,0.0,0.0,0.0,0.0,0.0,0.0,0.0,0.0,0.0,0.0,0.0,0.0,0.0,0.0,0.0,0.0,0.0,0.0,0.0,0.0,0.0,0.0,0.0,0.0,0.0,0.0,0.0,0.0,0.0,0.0,0.0,0.0,0.0,0.0,0.0,0.0,0.0,0.0,0.0,0.0,0.0,0.0,0.0,0.0,0.0,0.0,0.0,0.0,0.0,0.0,0.0,0.0,0.0,0.0,0.0,0.0,0.0,0.0,0.0,0.0,0.0,0.0,0.0,0.0,0.0,0.0,0.0,0.0,0.0,0.0,0.0,0.0,0.0,0.0,0.0,0.0,0.0,0.0,0.0,0.0,0.0,0.0,0.0,0.0,0.0,0.0,0.0,0.0,0.0,0.0,0.0,0.0,0.0,0.0,0.0,0.0,0.0,0.0,0.0,0.0,0.0,0.0,0.0,0.0,0.0,0.0,0.0,0.0,0.0,0.0,0.0,0.0,0.0,0.0,0.0,0.0,0.0,0.0,0.0,0.0,0.0,0.0,0.0,0.0,0.0,0.0,0.0,0.0,0.0,0.0,0.0,0.0,0.0,0.0,0.0,0.0,0.0,0.0,0.0,0.0,0.0,0.0,0.0,0.0,0.0,0.0,0.0,0.0,0.0,0.0,0.0,0.0,0.0,0.0,0.0,0.0,0.0,0.0,0.0,0.0,0.0,0.0,0.0,0.0,0.0,0.0,0.0,0.0,0.0,0.0,0.0,0.0,0.0,0.0,0.0,0.0,0.0,0.0,0.0,0.0,0.0,0.0,0.0,0.0,0.0,0.0,0.0,0.0,0.0,0.0,0.0,0.0,0.0,0.0,0.0,0.0,0.0,0.0,0.0,0.0,0.0,0.0,0.0,0.0,0.0,0.0,0.0,0.0,0.0,0.0,0.0,0.0,0.0,0.0,0.0,0.0,0.0,0.0,0.0,0.0,0.0,0.0,0.0,0.0,0.0,0.0,0.0,0.0,0.0,0.0,0.0,0.0,0.0,0.0,0.0,0.0,0.0,0.0,0.0,0.0,0.0,0.0,0.0,0.0,0.0,0.0,0.0,0.0,0.0,0.0,0.0,0.0,0.0,0.0,0.0,0.0,0.0,0.0,0.0,0.0,0.0,0.0,0.0,0.0,0.0,0.0,0.0,0.0,0.0,0.0,0.0,0.0,0.0,0.0,0.0,0.0,0.0,0.0,0.0,0.0,0.0,0.0,0.0,0.0,0.0,0.0,0.0,0.0,0.0,0.0,0.0,0.0,0.0,0.0,0.0,0.0,0.0,0.0,0.0,0.0,0.0,0.0,0.0,0.0,0.0,0.0,0.0,0.0,0.0,0.0,0.0,0.0,0.0,0.0,0.0,0.0,0.0,0.0,0.0,0.0,0.0,0.0,0.0,0.0,0.0,0.0,0.0,0.0,0.0,0.0,0.0,0.0,0.0,0.0,0.0,0.0,0.0,0.0,0.0,0.0,0.0,0.0,0.0,0.0,0.0,0.0,0.0,0.0,0.0,0.0,0.0,0.0,0.0,0.0,0.0,0.0,0.0,0.0,0.0,0.0,0.0,0.0,0.0,0.0,0.0,0.0,0.0,0.0,0.0,0.0,0.0,0.0,0.0,0.0,0.0,0.0,0.0,0.0,0.0,0.0,0.0,0.0,0.0,0.0,0.0,0.0,0.0,0.0,0.0,0.0,0.0,0.0,0.0,0.0,0.0,0.0,0.0,0.0,0.0,0.0,0.0,0.0,0.0,0.0,0.0,0.0,0.0,0.0,0.0,0.0,0.0,0.0,0.0,0.0,0.0,0.0,0.0,0.0,0.0,0.0,0.0,0.0,0.0,0.0,-3.5385,0.0,0.0,0.0,0.0,0.0,0.0,0.0,0.0,0.0,0.0,0.0,0.0,0.0,0.0,0.0,0.0,0.0,0.0,0.0,0.0,0.0,0.0,0.0,0.0,0.0,0.0,0.0,0.0,0.0,0.0,0.0,0.0,0.0,0.0,0.0,0.0,0.0,0.0,0.0,0.0,0.0,0.0,0.0,0.0,0.0,0.0,0.0,0.0,0.0,0.0,0.0,0.0,0.0,0.0,0.0,0.0,0.0,0.0,0.0,0.0,0.0,0.0,0.0,0.0,0.0,0.0,0.0,0.0,0.0,0.0,0.0,0.0,0.0,0.0,0.0,0.0,0.0,0.0,0.0,0.0,0.0,0.0,0.0,0.0,0.0,0.0,0.0,0.0,0.0,0.0,0.0,0.0,0.0,0.0,0.0,0.0,0.0,0.0,0.0,0.0,0.0,0.0,0.0,0.0,0.0,0.0,0.0,0.0,0.0,0.0,-3.6942,-3.8101,-3.5856,-3.4987,-3.5729,0.0,0.0,0.0,0.0,0.0,0.0,0.0,0.0,0.0,0.0,0.0,0.0,0.0,0.0,0.0,0.0,0.0,0.0,0.0,0.0,0.0,0.0,0.0,0.0,0.0,0.0,0.0,0.0,0.0,0.0,0.0,0.0,0.0,0.0,0.0,0.0,0.0,0.0,0.0,0.0,0.0,0.0,0.0,0.0,0.0,0.0,0.0,0.0,0.0,0.0,0.0,0.0,0.0,0.0,0.0,0.0,0.0,0.0,0.0,0.0,0.0,0.0,0.0,0.0,0.0,0.0,0.0,0.0,0.0,0.0,0.0,0.0,0.0,0.0,0.0,0.0,0.0,0.0,0.0,0.0,0.0,0.0,0.0,0.0,0.0,0.0,0.0,0.0,0.0,0.0,0.0,0.0,0.0,0.0,0.0,0.0,0.0,0.0,0.0,0.0,0.0,0.0,0.0,0.0,0.0,0.0,0.0,0.0,0.0,0.0,0.0,0.0,-3.6141,-3.5108,-3.4969,0.0,0.0,0.0,0.0,0.0,0.0,0.0,0.0,0.0,0.0,0.0,0.0,0.0,0.0,0.0,0.0,0.0,0.0,0.0,0.0,0.0,0.0,0.0,0.0,0.0,0.0,0.0,0.0,0.0,0.0,0.0,0.0,0.0,0.0,0.0,0.0,0.0,0.0,0.0,0.0,0.0,0.0,0.0,0.0,0.0,0.0,0.0,0.0,0.0,0.0,0.0,0.0,0.0,0.0,0.0,0.0,0.0,0.0,0.0,0.0,0.0,0.0,0.0,0.0,0.0,0.0,0.0,0.0,0.0,0.0,0.0,0.0,0.0,0.0,0.0,0.0,0.0,0.0,0.0,0.0,0.0,0.0,0.0,0.0,0.0,0.0,0.0,0.0,0.0,0.0,0.0,0.0,0.0,0.0,0.0,0.0,0.0,0.0,0.0,0.0,0.0,0.0,0.0,0.0,0.0,0.0,0.0,0.0,0.0,0.0,-3.713,-3.7275,-3.7012,0.0,-3.2863,0.0,0.0,0.0,0.0,0.0,0.0,0.0,0.0,0.0,0.0,0.0,0.0,0.0,0.0,0.0,0.0,0.0,0.0,0.0,0.0,0.0,0.0,0.0,0.0,0.0,0.0,0.0,0.0,0.0,0.0,0.0,0.0,0.0,0.0,0.0,0.0,0.0,0.0,0.0,0.0,0.0,0.0,0.0,0.0,0.0,0.0,0.0,0.0,0.0,0.0,0.0,0.0,0.0,0.0,0.0,0.0,0.0,0.0,0.0,0.0,0.0,0.0,0.0,0.0,0.0,0.0,0.0,0.0,0.0,0.0,0.0,0.0,0.0,0.0,0.0,0.0,0.0,0.0,0.0,0.0,0.0,0.0,0.0,0.0,0.0,0.0,0.0,0.0,0.0,0.0,0.0,0.0,0.0,0.0,0.0,0.0,0.0,0.0,0.0,0.0,0.0,0.0,0.0,0.0,0.0,0.0,0.0,0.0,0.0,0.0,-3.6249,-3.7179,-3.6224,-3.4411,0.0,0.0,0.0,0.0,0.0,0.0,0.0,0.0,0.0,0.0,0.0,0.0,0.0,0.0,0.0,0.0,0.0,0.0,0.0,0.0,0.0,0.0,0.0,0.0,0.0,0.0,0.0,0.0,0.0,0.0,0.0,0.0,0.0,0.0,0.0,0.0,0.0,0.0,0.0,0.0,0.0,0.0,0.0,0.0,0.0,0.0,0.0,0.0,0.0,0.0,0.0,0.0,0.0,0.0,0.0,0.0,0.0,0.0,0.0,0.0,0.0,0.0,0.0,0.0,0.0,0.0,0.0,0.0,0.0,0.0,0.0,0.0,0.0,0.0,0.0,0.0,0.0,0.0,0.0,0.0,0.0,0.0,0.0,0.0,0.0,0.0,0.0,0.0,0.0,0.0,0.0,0.0,0.0,0.0,0.0,0.0,0.0,0.0,0.0,0.0,0.0,0.0,0.0,0.0,0.0,0.0,0.0,0.0,0.0,0.0,-3.5188,-3.5495,-3.6736,-3.5301,-3.3522,-3.1626,0.0,0.0,0.0,0.0,0.0,0.0,0.0,0.0,0.0,0.0,0.0,0.0,0.0,0.0,0.0,0.0,0.0,0.0,0.0,0.0,0.0,0.0,0.0,0.0,0.0,0.0,0.0,0.0,0.0,0.0,0.0,0.0,0.0,0.0,0.0,0.0,0.0,0.0,0.0,0.0,0.0,0.0,0.0,0.0,0.0,0.0,0.0,0.0,0.0,0.0,0.0,0.0,0.0,0.0,0.0,0.0,0.0,0.0,0.0,0.0,0.0,0.0,0.0,0.0,0.0,0.0,0.0,0.0,0.0,0.0,0.0,0.0,0.0,0.0,0.0,0.0,0.0,0.0,0.0,0.0,0.0,0.0,0.0,0.0,0.0,0.0,0.0,0.0,0.0,0.0,0.0,0.0,0.0,0.0,0.0,0.0,0.0,0.0,0.0,0.0,0.0,0.0,0.0,0.0,0.0,0.0,0.0,0.0,-3.5009,-3.5009,-3.5365,-3.6058,-3.4595,-3.3332,0.0,0.0,0.0,0.0,0.0,0.0,0.0,0.0,0.0,0.0,0.0,0.0,0.0,0.0,0.0,0.0,0.0,0.0,0.0,0.0,0.0,0.0,0.0,0.0,0.0,0.0,0.0,0.0,0.0,0.0,0.0,0.0,0.0,0.0,0.0,0.0,0.0,0.0,0.0,0.0,0.0,0.0,0.0,0.0,0.0,0.0,0.0,0.0,0.0,0.0,0.0,0.0,0.0,0.0,0.0,0.0,0.0,0.0,0.0,0.0,0.0,0.0,0.0,0.0,0.0,0.0,0.0,0.0,0.0,0.0,0.0,0.0,0.0,0.0,0.0,0.0,0.0,0.0,0.0,0.0,0.0,0.0,0.0,0.0,0.0,0.0,0.0,0.0,0.0,0.0,0.0,0.0,0.0,0.0,0.0,0.0,0.0,0.0,0.0,0.0,0.0,0.0,0.0,0.0,0.0,0.0,0.0,0.0,0.0,-3.4247,-3.4743,-3.488,-3.4623,-3.3524,-3.2554,0.0,0.0,0.0,0.0,0.0,0.0,0.0,0.0,0.0,0.0,0.0,0.0,0.0,0.0,0.0,0.0,0.0,0.0,0.0,0.0,0.0,0.0,0.0,0.0,0.0,0.0,0.0,0.0,0.0,0.0,0.0,0.0,0.0,0.0,0.0,0.0,0.0,0.0,0.0,0.0,0.0,0.0,0.0,0.0,0.0,0.0,0.0,0.0,0.0,0.0,0.0,0.0,0.0,0.0,0.0,0.0,0.0,0.0,0.0,0.0,0.0,0.0,0.0,0.0,0.0,0.0,0.0,0.0,0.0,0.0,0.0,0.0,0.0,0.0,0.0,0.0,0.0,0.0,0.0,0.0,0.0,0.0,0.0,0.0,0.0,0.0,0.0,0.0,0.0,0.0,0.0,0.0,0.0,0.0,0.0,0.0,0.0,0.0,0.0,0.0,0.0,0.0,0.0,0.0,0.0,0.0,0.0,0.0,0.0,-3.3807,0.0,-3.4247,-3.344,-3.3093,-3.2433,0.0,0.0,0.0,0.0,0.0,0.0,0.0,0.0,0.0,0.0,0.0,0.0,0.0,0.0,0.0,0.0,0.0,0.0,0.0,0.0,0.0,0.0,0.0,0.0,0.0,0.0,0.0,0.0,0.0,0.0,0.0,0.0,0.0,0.0,0.0,0.0,0.0,0.0,0.0,0.0,0.0,0.0,0.0,0.0,0.0,0.0,0.0,0.0,0.0,0.0,0.0,0.0,0.0,0.0,0.0,0.0,0.0,0.0,0.0,0.0,0.0,0.0,0.0,0.0,0.0,0.0,0.0,0.0,0.0,0.0,0.0,0.0,0.0,0.0,0.0,0.0,0.0,0.0,0.0,0.0,0.0,0.0,0.0,0.0,0.0,0.0,0.0,0.0,0.0,0.0,0.0,0.0,0.0,0.0,0.0,0.0,0.0,0.0,0.0,0.0,0.0,0.0,0.0,0.0,0.0,0.0,0.0,0.0,-3.377,-3.3788,-3.3807,-3.3458,-3.2687,-3.3348,-3.2999,0.0,0.0,0.0,0.0,0.0,0.0,0.0,0.0,0.0,0.0,0.0,0.0,0.0,0.0,0.0,0.0,0.0,0.0,0.0,0.0,0.0,0.0,0.0,0.0,0.0,0.0,0.0,0.0,0.0,0.0,0.0,0.0,0.0,0.0,0.0,0.0,0.0,0.0,0.0,0.0,0.0,0.0,0.0,0.0,0.0,0.0,0.0,0.0,0.0,0.0,0.0,0.0,0.0,0.0,0.0,0.0,0.0,0.0,0.0,0.0,0.0,0.0,0.0,0.0,0.0,0.0,0.0,0.0,0.0,0.0,0.0,0.0,0.0,0.0,0.0,0.0,0.0,0.0,0.0,0.0,0.0,0.0,0.0,0.0,0.0,0.0,0.0,0.0,0.0,0.0,0.0,0.0,0.0,0.0,0.0,0.0,0.0,0.0,0.0,0.0,0.0,0.0,0.0,0.0,0.0,0.0,0.0,0.0,0.0,-3.3752,-3.3256,-3.3403,-3.4174,-3.2941,-3.2463,0.0,0.0,0.0,0.0,0.0,0.0,0.0,0.0,0.0,0.0,0.0,0.0,0.0,0.0,0.0,0.0,0.0,0.0,0.0,0.0,0.0,0.0,0.0,0.0,0.0,0.0,0.0,0.0,0.0,0.0,0.0,0.0,0.0,0.0,0.0,0.0,0.0,0.0,0.0,0.0,0.0,0.0,0.0,0.0,0.0,0.0,0.0,0.0,0.0,0.0,0.0,0.0,0.0,0.0,0.0,0.0,0.0,0.0,0.0,0.0,0.0,0.0,0.0,0.0,0.0,0.0,0.0,0.0,0.0,0.0,0.0,0.0,0.0,0.0,0.0,0.0,0.0,0.0,0.0,0.0,0.0,0.0,0.0,0.0,0.0,0.0,0.0,0.0,0.0,0.0,0.0,0.0,0.0,0.0,0.0,0.0,0.0,0.0,0.0,0.0,0.0,0.0,0.0,0.0,0.0,0.0,0.0,0.0,0.0,-3.4238,-3.377,-3.399,-3.5028,-3.3897,-3.3335,-3.3408,0.0,0.0,0.0,0.0,0.0,0.0,0.0,0.0,0.0,0.0,0.0,0.0,0.0,0.0,0.0,0.0,0.0,0.0,0.0,0.0,0.0,0.0,0.0,0.0,0.0,0.0,0.0,0.0,0.0,0.0,0.0,0.0,0.0,0.0,0.0,0.0,0.0,0.0,0.0,0.0,0.0,0.0,0.0,0.0,0.0,0.0,0.0,0.0,0.0,0.0,0.0,0.0,0.0,0.0,0.0,0.0,0.0,0.0,0.0,0.0,0.0,0.0,0.0,0.0,0.0,0.0,0.0,0.0,0.0,0.0,0.0,0.0,0.0,0.0,0.0,0.0,0.0,0.0,0.0,0.0,0.0,0.0,0.0,0.0,0.0,0.0,0.0,0.0,0.0,0.0,0.0,0.0,0.0,0.0,0.0,0.0,0.0,0.0,0.0,0.0,0.0,0.0,0.0,0.0,0.0,0.0,0.0,0.0,-3.523,-3.5266,-3.534,-3.5414,-3.5919,-3.5248,0.0,0.0,0.0,0.0,0.0,0.0,0.0,0.0,0.0,0.0,0.0,0.0,0.0,0.0,0.0,0.0,0.0,0.0,0.0,0.0,0.0,0.0,0.0,0.0,0.0,0.0,0.0,0.0,0.0,0.0,0.0,0.0,0.0,0.0,0.0,0.0,0.0,0.0,0.0,0.0,0.0,0.0,0.0,0.0,0.0,0.0,0.0,0.0,0.0,0.0,0.0,0.0,0.0,0.0,0.0,0.0,0.0,0.0,0.0,0.0,0.0,0.0,0.0,0.0,0.0,0.0,0.0,0.0,0.0,0.0,0.0,0.0,0.0,0.0,0.0,0.0,0.0,0.0,0.0,0.0,0.0,0.0,0.0,0.0,0.0,0.0,0.0,0.0,0.0,0.0,0.0,0.0,0.0,0.0,0.0,0.0,0.0,0.0,0.0,0.0,0.0,0.0,0.0,0.0,0.0,0.0,0.0,0.0,0.0,-3.698,-3.8151,-3.8748,-3.8663,-3.6722,-3.589,0.0,0.0,0.0,0.0,0.0,0.0,0.0,0.0,0.0,0.0,0.0,0.0,0.0,0.0,0.0,0.0,0.0,0.0,0.0,0.0,0.0,0.0,0.0,0.0,0.0,0.0,0.0,0.0,0.0,0.0,0.0,0.0,0.0,0.0,0.0,0.0,0.0,0.0,0.0,0.0,0.0,0.0,0.0,0.0,0.0,0.0,0.0,0.0,0.0,0.0,0.0,0.0,0.0,0.0,0.0,0.0,0.0,0.0,0.0,0.0,0.0,0.0,0.0,0.0,0.0,0.0,0.0,0.0,0.0,0.0,0.0,0.0,0.0,0.0,0.0,0.0,0.0,0.0,0.0,0.0,0.0,0.0,0.0,0.0,0.0,0.0,0.0,0.0,0.0,0.0,0.0,0.0,0.0,0.0,0.0,0.0,0.0,0.0,0.0,0.0,0.0,0.0,0.0,0.0,0.0,0.0,0.0,0.0,-3.6481,-3.8219,-4.0855,-4.2174,-4.2142,-3.9412,-3.7701,0.0,0.0,0.0,0.0,0.0,0.0,0.0,0.0,0.0,0.0,0.0,0.0,0.0,0.0,0.0,0.0,0.0,0.0,0.0,0.0,0.0,0.0,0.0,0.0,0.0,0.0,0.0,0.0,0.0,0.0,0.0,0.0,0.0,0.0,0.0,0.0,0.0,0.0,0.0,0.0,0.0,0.0,0.0,0.0,0.0,0.0,0.0,0.0,0.0,0.0,0.0,0.0,0.0,0.0,0.0,0.0,0.0,0.0,0.0,0.0,0.0,0.0,0.0,0.0,0.0,0.0,0.0,0.0,0.0,0.0,0.0,0.0,0.0,0.0,0.0,0.0,0.0,0.0,0.0,0.0,0.0,0.0,0.0,0.0,0.0,0.0,0.0,0.0,0.0,0.0,0.0,0.0,0.0,0.0,0.0,0.0,0.0,0.0,0.0,0.0,0.0,0.0,0.0,0.0,0.0,0.0,0.0,0.0,-3.8266,-3.9415,-4.3212,-4.5268,-4.5286,-4.2778,-3.9997,0.0,0.0,0.0,0.0,0.0,0.0,0.0,0.0,0.0,0.0,0.0,0.0,0.0,0.0,0.0,0.0,0.0,0.0,0.0,0.0,0.0,0.0,0.0,0.0,0.0,0.0,0.0,0.0,0.0,0.0,0.0,0.0,0.0,0.0,0.0,0.0,0.0,0.0,0.0,0.0,0.0,0.0,0.0,0.0,0.0,0.0,0.0,0.0,0.0,0.0,0.0,0.0,0.0,0.0,0.0,0.0,0.0,0.0,0.0,0.0,0.0,0.0,0.0,0.0,0.0,0.0,0.0,0.0,0.0,0.0,0.0,0.0,0.0,0.0,0.0,0.0,0.0,0.0,0.0,0.0,0.0,0.0,0.0,0.0,0.0,0.0,0.0,0.0,0.0,0.0,0.0,0.0,0.0,0.0,0.0,0.0,0.0,0.0,0.0,0.0,0.0,0.0,0.0,0.0,0.0,0.0,0.0,0.0,-3.9203,-4.195,-4.4753,-4.6498,-4.7111,-4.3509,-4.0632,0.0,0.0,0.0,0.0,0.0,0.0,0.0,0.0,0.0,0.0,0.0,0.0,0.0,0.0,0.0,0.0,0.0,0.0,0.0,0.0,0.0,0.0,0.0,0.0,0.0,0.0,0.0,0.0,0.0,0.0,0.0,0.0,0.0,0.0,0.0,0.0,0.0,0.0,0.0,0.0,0.0,0.0,0.0,0.0,0.0,0.0,0.0,0.0,-3.2949,0.0,0.0,0.0,0.0,0.0,0.0,0.0,0.0,0.0,0.0,0.0,0.0,0.0,0.0,0.0,0.0,0.0,0.0,0.0,0.0,0.0,0.0,0.0,0.0,0.0,0.0,0.0,0.0,0.0,0.0,0.0,0.0,0.0,0.0,0.0,0.0,0.0,0.0,0.0,0.0,0.0,0.0,0.0,0.0,0.0,0.0,0.0,0.0,0.0,0.0,0.0,0.0,0.0,0.0,0.0,0.0,0.0,0.0,0.0,-3.9863,-4.2742,-4.5231,-4.6698,-4.7014,-4.4265,-4.1757,0.0,0.0,0.0,0.0,0.0,0.0,0.0,0.0,0.0,0.0,0.0,0.0,0.0,0.0,0.0,0.0,0.0,0.0,0.0,0.0,0.0,0.0,0.0,0.0,0.0,0.0,0.0,0.0,0.0,0.0,0.0,0.0,0.0,0.0,0.0,0.0,0.0,0.0,0.0,0.0,0.0,0.0,0.0,0.0,0.0,0.0,0.0,0.0,0.0,0.0,0.0,0.0,0.0,0.0,0.0,0.0,0.0,0.0,0.0,0.0,0.0,0.0,0.0,0.0,0.0,0.0,0.0,0.0,0.0,0.0,0.0,0.0,0.0,0.0,0.0,0.0,0.0,0.0,0.0,0.0,0.0,0.0,0.0,0.0,0.0,0.0,0.0,0.0,0.0,0.0,0.0,0.0,0.0,0.0,0.0,0.0,0.0,0.0,0.0,0.0,0.0,0.0,0.0,0.0,0.0,0.0,0.0,-3.7634,-4.042,-4.3132,-4.5361,-4.6513,-4.6475,-4.4878,-4.2872,-4.0494,0.0,0.0,0.0,0.0,0.0,0.0,0.0,0.0,0.0,0.0,0.0,0.0,0.0,0.0,0.0,0.0,0.0,0.0,0.0,0.0,0.0,0.0,0.0,0.0,0.0,0.0,0.0,0.0,0.0,0.0,0.0,0.0,0.0,0.0,0.0,0.0,0.0,0.0,-3.3615,-3.3706,0.0,0.0,0.0,0.0,0.0,0.0,0.0,0.0,-3.4431,0.0,0.0,0.0,0.0,0.0,0.0,0.0,0.0,0.0,0.0,0.0,0.0,0.0,0.0,0.0,0.0,0.0,0.0,0.0,0.0,0.0,0.0,0.0,0.0,0.0,0.0,0.0,0.0,0.0,0.0,0.0,0.0,0.0,0.0,0.0,0.0,0.0,0.0,0.0,0.0,0.0,0.0,0.0,0.0,0.0,0.0,0.0,0.0,0.0,0.0,0.0,0.0,0.0,0.0,0.0,0.0,-3.7243,-3.8488,-4.0977,-4.4785,-4.5937,-4.6513,-4.6457,-4.4878,-4.2853,-4.0513,0.0,0.0,0.0,0.0,0.0,0.0,0.0,0.0,0.0,0.0,0.0,0.0,0.0,0.0,0.0,0.0,0.0,0.0,0.0,0.0,0.0,0.0,0.0,0.0,0.0,0.0,0.0,0.0,0.0,0.0,0.0,0.0,0.0,0.0,0.0,0.0,0.0,0.0,0.0,-3.4147,-3.4028,0.0,0.0,0.0,0.0,0.0,0.0,0.0,0.0,-3.4302,0.0,0.0,0.0,0.0,0.0,0.0,0.0,0.0,0.0,0.0,0.0,0.0,0.0,0.0,0.0,0.0,0.0,0.0,0.0,0.0,0.0,0.0,0.0,0.0,0.0,0.0,0.0,0.0,0.0,0.0,0.0,0.0,0.0,0.0,0.0,0.0,0.0,0.0,0.0,0.0,0.0,0.0,0.0,0.0,0.0,0.0,0.0,0.0,0.0,0.0,0.0,0.0,0.0,0.0,0.0,-3.7782,-3.9528,-4.1776,-4.4525,-4.5435,-4.5862,-4.5825,-4.3429,-4.1776,0.0,0.0,0.0,0.0,0.0,0.0,0.0,0.0,0.0,0.0,0.0,0.0,0.0,0.0,0.0,0.0,0.0,0.0,0.0,0.0,0.0,0.0,0.0,0.0,0.0,0.0,0.0,0.0,0.0,0.0,0.0,0.0,0.0,0.0,0.0,0.0,0.0,0.0,0.0,0.0,-3.5027,-3.5238,-3.5595,0.0,0.0,0.0,0.0,0.0,0.0,-3.4728,-3.4462,0.0,0.0,0.0,0.0,0.0,0.0,0.0,0.0,0.0,0.0,0.0,0.0,0.0,0.0,0.0,0.0,0.0,0.0,0.0,0.0,0.0,0.0,0.0,0.0,0.0,0.0,0.0,0.0,0.0,0.0,0.0,0.0,0.0,0.0,0.0,0.0,0.0,0.0,0.0,0.0,0.0,0.0,0.0,0.0,0.0,0.0,0.0,0.0,0.0,0.0,0.0,0.0,0.0,0.0,0.0,-3.7875,-4.0178,-4.2222,-4.3949,-4.4674,-4.5045,-4.4971,-4.2166,-4.0866,0.0,0.0,0.0,0.0,0.0,0.0,0.0,0.0,0.0,0.0,0.0,0.0,0.0,0.0,0.0,0.0,0.0,0.0,0.0,0.0,0.0,0.0,0.0,0.0,0.0,0.0,0.0,0.0,0.0,0.0,0.0,0.0,0.0,0.0,0.0,0.0,0.0,0.0,0.0,0.0,0.0,-3.6285,-3.6285,-3.6285,0.0,0.0,0.0,0.0,-3.4794,-3.529,0.0,0.0,0.0,0.0,0.0,0.0,0.0,0.0,0.0,0.0,0.0,0.0,0.0,0.0,0.0,0.0,0.0,0.0,0.0,0.0,0.0,0.0,0.0,0.0,0.0,0.0,0.0,0.0,0.0,0.0,0.0,0.0,0.0,0.0,0.0,0.0,0.0,0.0,0.0,0.0,0.0,0.0,0.0,0.0,0.0,0.0,0.0,0.0,0.0,0.0,0.0,0.0,0.0,0.0,0.0,0.0,-3.7875,-3.964,-4.1646,-4.3875,-4.4116,-4.4135,-4.4135,-4.2389,-4.1181,0.0,0.0,0.0,0.0,0.0,0.0,0.0,0.0,0.0,0.0,0.0,0.0,0.0,0.0,0.0,0.0,0.0,0.0,0.0,0.0,0.0,0.0,0.0,0.0,0.0,0.0,0.0,0.0,0.0,0.0,0.0,0.0,0.0,0.0,0.0,0.0,0.0,0.0,0.0,0.0,0.0,-3.6285,-3.6285,-3.6285,-3.6038,0.0,0.0,-3.5854,-3.5914,-3.771,0.0,0.0,0.0,0.0,0.0,0.0,0.0,0.0,0.0,0.0,0.0,0.0,0.0,0.0,0.0,0.0,0.0,0.0,0.0,0.0,0.0,0.0,0.0,0.0,0.0,0.0,0.0,0.0,0.0,0.0,0.0,0.0,0.0,0.0,0.0,0.0,0.0,0.0,0.0,0.0,0.0,0.0,0.0,0.0,0.0,0.0,0.0,0.0,0.0,0.0,0.0,0.0,0.0,0.0,0.0,-3.6965,-3.8562,-4.0234,-4.2017,-4.3931,-4.4005,-4.4005,-4.4005,-4.0624,-3.9528,0.0,0.0,0.0,0.0,0.0,0.0,0.0,0.0,0.0,0.0,0.0,0.0,0.0,0.0,0.0,0.0,0.0,0.0,0.0,0.0,0.0,0.0,0.0,0.0,0.0,0.0,0.0,0.0,0.0,0.0,0.0,0.0,0.0,0.0,0.0,0.0,0.0,0.0,0.0,0.0,0.0,0.0,-3.7037,-3.7367,0.0,0.0,0.0,-3.6576,-3.6513,0.0,0.0,0.0,0.0,0.0,0.0,0.0,0.0,0.0,0.0,0.0,0.0,0.0,0.0,0.0,0.0,0.0,0.0,0.0,0.0,0.0,0.0,0.0,0.0,0.0,0.0,0.0,0.0,0.0,0.0,0.0,0.0,0.0,0.0,0.0,0.0,0.0,0.0,0.0,0.0,0.0,0.0,0.0,0.0,0.0,0.0,0.0,0.0,0.0,0.0,0.0,0.0,0.0,0.0,0.0,0.0,0.0,-3.9082,-4.0736,-4.2389,-4.3949,-4.4005,-4.4005,-4.3931,-3.9844,0.0,0.0,0.0,0.0,0.0,0.0,0.0,0.0,0.0,0.0,0.0,0.0,0.0,0.0,0.0,0.0,0.0,0.0,0.0,0.0,0.0,0.0,0.0,0.0,0.0,0.0,0.0,-2.9717,0.0,0.0,0.0,0.0,0.0,0.0,0.0,0.0,0.0,0.0,0.0,0.0,0.0,0.0,-3.8395,-3.7617,-3.837,-3.8842,0.0,0.0,-3.7608,-3.7348,-3.9396,-3.9845,0.0,0.0,0.0,0.0,0.0,0.0,0.0,0.0,0.0,0.0,0.0,0.0,0.0,0.0,0.0,0.0,0.0,0.0,0.0,0.0,0.0,0.0,0.0,0.0,0.0,0.0,0.0,0.0,0.0,0.0,0.0,0.0,0.0,0.0,0.0,0.0,0.0,0.0,0.0,0.0,0.0,0.0,0.0,0.0,0.0,0.0,0.0,0.0,0.0,0.0,0.0,0.0,0.0,0.0,-3.7485,-3.9082,-4.0736,-4.237,-4.3931,-4.4005,-4.4005,-4.3949,-4.1479,-4.0587,0.0,0.0,0.0,0.0,0.0,0.0,0.0,0.0,0.0,0.0,0.0,0.0,0.0,0.0,0.0,0.0,0.0,0.0,0.0,0.0,0.0,0.0,0.0,0.0,0.0,0.0,0.0,0.0,0.0,0.0,0.0,0.0,0.0,0.0,0.0,0.0,0.0,0.0,0.0,0.0,0.0,-3.8444,-3.7724,-3.8939,-3.9927,0.0,-3.9786,-3.9405,-3.875,-4.194,-4.2846,-3.8053,0.0,0.0,0.0,0.0,0.0,0.0,0.0,0.0,0.0,0.0,0.0,0.0,0.0,0.0,0.0,0.0,0.0,0.0,0.0,0.0,0.0,0.0,0.0,0.0,0.0,0.0,0.0,0.0,0.0,0.0,0.0,0.0,0.0,0.0,0.0,0.0,0.0,0.0,0.0,0.0,0.0,0.0,0.0,0.0,0.0,0.0,0.0,0.0,0.0,0.0,0.0,0.0,0.0,-3.7485,-3.9082,-4.0736,-4.237,-4.3931,-4.4005,-4.4005,-4.4005,-4.1664,-4.0531,0.0,0.0,0.0,0.0,0.0,0.0,0.0,0.0,0.0,0.0,0.0,0.0,0.0,0.0,0.0,0.0,0.0,0.0,0.0,0.0,0.0,0.0,0.0,0.0,0.0,0.0,0.0,0.0,-3.2118,-3.2651,-3.3275,0.0,0.0,0.0,0.0,0.0,0.0,0.0,0.0,0.0,0.0,-3.9313,-3.9062,-3.995,0.0,0.0,-4.0725,-4.0519,-4.0162,-4.1963,-4.223,-3.8664,-3.9086,0.0,0.0,0.0,0.0,0.0,0.0,0.0,0.0,0.0,0.0,0.0,0.0,0.0,0.0,0.0,0.0,0.0,0.0,0.0,0.0,0.0,0.0,0.0,0.0,0.0,0.0,0.0,0.0,0.0,0.0,0.0,0.0,0.0,0.0,0.0,0.0,0.0,0.0,0.0,0.0,0.0,0.0,0.0,0.0,0.0,0.0,0.0,0.0,0.0,0.0,0.0,0.0,-3.7856,-3.9472,-4.0884,-4.25,-4.4358,-4.4135,-4.4005,-4.3918,-4.1876,-4.0837,0.0,0.0,0.0,0.0,0.0,0.0,0.0,0.0,0.0,0.0,0.0,0.0,0.0,0.0,0.0,0.0,0.0,0.0,0.0,0.0,0.0,0.0,0.0,0.0,0.0,0.0,0.0,0.0,-3.3311,-3.3807,-3.3807,0.0,0.0,0.0,0.0,0.0,0.0,0.0,0.0,0.0,0.0,-4.0175,-3.995,-4.0611,-4.1158,-4.1254,-4.1033,-4.0835,-4.0657,-4.1535,-4.1322,-3.8676,0.0,0.0,0.0,0.0,0.0,0.0,0.0,0.0,0.0,0.0,0.0,0.0,0.0,0.0,0.0,0.0,0.0,0.0,0.0,0.0,0.0,0.0,0.0,0.0,0.0,0.0,0.0,-3.7949,0.0,0.0,-3.9421,0.0,0.0,0.0,0.0,0.0,0.0,0.0,0.0,0.0,0.0,0.0,0.0,0.0,0.0,0.0,0.0,0.0,0.0,0.0,0.0,0.0,0.0,-3.8692,-4.0346,-4.12,-4.2797,-4.5138,-4.4432,-4.3992,-4.386,-4.2323,-4.1924,-4.2828,0.0,0.0,0.0,0.0,0.0,0.0,0.0,0.0,0.0,0.0,0.0,0.0,0.0,0.0,0.0,0.0,0.0,0.0,0.0,0.0,0.0,0.0,0.0,0.0,0.0,0.0,-3.2753,-3.3348,-3.3807,0.0,0.0,0.0,0.0,0.0,0.0,0.0,0.0,0.0,-3.8377,-4.0047,-4.0795,-4.0099,-4.0688,-4.1254,-4.1459,-4.0757,-4.0184,-4.0191,-4.0886,-4.0572,0.0,0.0,0.0,0.0,0.0,0.0,0.0,0.0,0.0,0.0,0.0,0.0,0.0,0.0,0.0,0.0,0.0,0.0,0.0,0.0,0.0,0.0,0.0,0.0,0.0,0.0,0.0,-4.0307,-4.0384,0.0,0.0,0.0,0.0,0.0,0.0,0.0,0.0,0.0,0.0,0.0,-4.2724,-4.2193,0.0,0.0,0.0,0.0,0.0,0.0,0.0,0.0,0.0,0.0,0.0,0.0,-3.9528,-4.1144,-4.198,-4.3287,-4.506,-4.4355,-4.3897,-4.3818,-4.3485,-4.2838,-4.1812,0.0,0.0,0.0,0.0,0.0,0.0,0.0,0.0,0.0,0.0,0.0,0.0,0.0,0.0,0.0,0.0,0.0,0.0,0.0,0.0,0.0,0.0,0.0,0.0,0.0,-3.5936,0.0,0.0,0.0,0.0,0.0,0.0,0.0,0.0,0.0,0.0,-3.7055,-3.7698,-3.7165,-3.8487,-3.9606,-3.9908,-4.0611,-4.1728,0.0,0.0,0.0,0.0,0.0,0.0,0.0,0.0,0.0,0.0,0.0,0.0,0.0,0.0,-4.3296,-4.0084,-4.0139,-4.0616,-4.0341,0.0,0.0,0.0,0.0,0.0,0.0,0.0,0.0,0.0,0.0,0.0,0.0,0.0,0.0,-4.1818,-4.252,-4.185,0.0,0.0,0.0,0.0,0.0,0.0,0.0,0.0,-4.26,-4.3458,-4.4737,-4.4491,-4.4357,0.0,-4.3764,-4.2208,0.0,0.0,0.0,0.0,0.0,0.0,0.0,0.0,-4.0364,-4.195,-4.2755,-4.3929,-4.5382,-4.4683,-4.4096,-4.3771,-4.4072,-4.3574,-4.2075,-4.1081,-3.9559,0.0,0.0,0.0,0.0,0.0,0.0,0.0,0.0,0.0,0.0,0.0,0.0,0.0,0.0,0.0,0.0,0.0,0.0,0.0,0.0,0.0,0.0,0.0,-3.7305,0.0,0.0,0.0,0.0,0.0,0.0,0.0,0.0,0.0,-3.7202,-3.8046,-3.8726,-3.8799,-3.9478,-4.0139,-4.0671,0.0,0.0,0.0,0.0,0.0,0.0,0.0,-4.1919,-4.0579,-4.1971,-4.3419,-4.3883,-4.5278,-4.6305,-4.6324,0.0,0.0,-4.344,-4.3511,-4.3952,-4.3692,-4.406,-4.4559,-4.5092,-4.5571,-4.5791,0.0,0.0,0.0,0.0,0.0,0.0,0.0,0.0,-4.2429,-4.3359,0.0,-4.3147,0.0,0.0,0.0,0.0,-4.1876,-4.2742,0.0,0.0,-4.6876,-4.774,-4.7145,-4.7818,-4.7375,-4.5855,-4.5778,-4.4747,-4.2832,-4.073,0.0,0.0,0.0,0.0,0.0,0.0,-4.1245,-4.2767,-4.3545,-4.4698,-4.6131,-4.5392,-4.4528,-4.3686,-4.4143,-4.415,-4.3644,-4.3776,-4.2831,-4.0482,-3.9826,0.0,0.0,0.0,0.0,0.0,0.0,0.0,0.0,0.0,0.0,0.0,0.0,0.0,0.0,0.0,0.0,0.0,0.0,0.0,0.0,-3.7551,0.0,0.0,0.0,0.0,0.0,0.0,0.0,0.0,0.0,-4.0506,-3.9093,-3.8872,-3.99,-4.2818,0.0,0.0,0.0,0.0,-4.1222,-4.1442,-4.1387,-4.1699,-4.2451,-4.3773,-4.4433,-4.3608,0.0,0.0,-4.7241,-4.7259,-4.7425,-4.7352,-4.871,-4.8987,-4.6782,-4.6893,-4.7131,-4.6537,-4.6428,-4.6321,-4.6321,-4.6636,-4.6507,-4.6197,0.0,0.0,0.0,0.0,-4.4281,-4.5536,-4.7946,-4.6509,-4.6146,-4.6424,-4.5201,0.0,0.0,0.0,0.0,0.0,0.0,-4.5355,-4.624,-4.8144,-4.9548,-5.0452,-5.0702,-5.0567,-5.0067,-4.8875,-4.7702,-4.6494,-4.4512,-4.2604,-4.0745,0.0,0.0,0.0,0.0,-4.3069,-4.4355,-4.4638,-4.5497,-4.6965,-4.5031,-4.405,-4.4173,-4.4519,-4.4421,-4.3912,-4.3956,-4.3323,-4.186,-4.1067,0.0,0.0,0.0,0.0,0.0,0.0,0.0,0.0,0.0,0.0,0.0,0.0,0.0,0.0,0.0,0.0,0.0,0.0,0.0,-3.9203,-3.9203,-3.8756,0.0,0.0,0.0,0.0,0.0,0.0,0.0,0.0,0.0,-4.2011,-4.113,-4.0322,0.0,0.0,-3.9698,-4.1974,-4.2121,-4.2983,-4.5828,-4.625,0.0,-4.6544,-4.6012,-4.5296,-4.4488,-4.6379,-4.8526,-5.0306,-5.1077,-5.1463,-5.1426,-5.1848,-5.1944,-5.1363,-5.0428,-4.9858,-4.9619,-5.0062,-5.0506,-5.0525,-5.0911,-5.1113,-5.1435,-4.8534,-4.6568,-4.6745,-4.8197,-4.7796,-4.9006,-5.1242,-5.012,-4.9959,-5.0348,-4.845,-4.7319,-4.68,-4.5609,0.0,0.0,0.0,-4.7567,-4.8471,-5.0144,-5.1452,-5.2395,-5.2779,-5.276,-5.2375,-5.1395,-5.0298,-4.9106,-4.7607,-4.5705,-4.3441,0.0,-4.1882,-4.204,-4.3457,-4.4749,-4.5854,-4.6108,-4.6694,-4.7571,-4.5547,-4.4479,-4.4565,-4.4701,-4.471,-4.4531,-4.4532,-4.405,-4.3083,-4.2424,-4.1453,0.0,0.0,0.0,0.0,0.0,0.0,0.0,0.0,0.0,0.0,0.0,-3.933,-3.8218,0.0,0.0,0.0,-3.9853,-4.0377,-4.0377,-4.0084,0.0,0.0,0.0,0.0,0.0,0.0,0.0,-3.9994,-4.1507,-4.2941,-4.3828,-4.3406,-4.2653,-4.168,-4.113,-4.1644,-4.3901,0.0,-4.5076,-4.7498,-4.8086,-4.8324,-4.8306,-4.8324,-4.8251,-4.8104,-4.9242,-5.0637,-5.2142,-5.2894,-5.3206,-5.3206,-5.3206,-5.3206,-5.3254,-5.2467,-5.1904,-5.2001,-5.2428,-5.2819,-5.2876,-5.3207,-5.3333,-5.6663,-5.5592,-5.1305,-5.0168,-5.1187,-5.1395,-5.2047,-5.2935,-5.3296,-5.415,-5.5107,-5.2293,-5.1779,-5.2895,-4.976,0.0,-4.8355,-4.9279,-5.0125,-5.0952,-5.2606,-5.3395,-5.3433,-5.4203,-5.4164,-5.3395,-5.3337,-5.251,-5.1029,-5.0106,-4.8856,-4.7202,-4.6039,-4.5071,-4.4399,-4.5464,-4.644,-4.7259,-4.7789,-4.8035,-4.7999,-4.6581,-4.5526,-4.4908,-4.4881,-4.4981,-4.5297,-4.5277,-4.4934,-4.4149,-4.3828,-4.3003,-4.1609,0.0,0.0,0.0,0.0,0.0,0.0,0.0,0.0,0.0,0.0,0.0,0.0,0.0,0.0,-4.1338,-4.1254,0.0,-4.1203,-4.0543,0.0,0.0,0.0,-4.0486,-4.1285,-4.2087,-4.2846,-4.3526,0.0,0.0,-4.4911,-4.559,-4.6085,-4.6085,-4.5975,-4.6214,-4.7057,-4.7113,-4.7223,-4.7443,-4.8086,-4.86,-4.8746,-5.0141,-5.1499,-5.2197,-5.2986,-5.2656,-5.2839,-5.3023,-5.3078,-5.3078,-5.3151,-5.3206,-5.3206,-5.3203,-5.34,-5.3524,-5.3619,-5.3695,-5.3639,-5.36,-5.3521,-5.944,-5.9113,-5.7512,-5.6874,-5.6776,-5.5424,-5.5816,-5.7289,-5.6199,-5.5672,-5.5503,-5.4182,-5.3087,-5.2145,-5.0721,-5.0067,-5.0164,-5.1625,-5.2414,-5.2702,-5.4337,-5.5107,-5.5107,-5.5318,-5.5318,-5.5068,-5.4491,-5.3972,-5.3568,-5.2722,-5.1433,-4.9894,-5.0043,-4.9034,-4.6915,-4.8281,-4.9026,-4.8936,-4.9066,-4.848,-4.721,-4.7013,-4.6561,-4.5829,-4.5388,-4.5216,-4.5277,-4.5277,-4.5201,-4.4991,-4.43,-4.3376,-4.2243,-4.0118,0.0,0.0,0.0,0.0,0.0,0.0,0.0,0.0,0.0,-4.0935,-3.9679,0.0,-4.0595,0.0,-4.1309,-4.2029,-4.2011,-4.1827,0.0,0.0,-4.1769,-4.1824,-4.2077,-4.3311,-4.4009,-4.355,-4.4727,-4.5847,-4.6471,-4.7241,-4.7719,-4.7719,-4.6691,-4.6416,-4.7774,-4.8012,-4.8269,-4.893,-5.0105,-5.0875,-5.027,-5.0105,-5.0508,-5.1224,-5.0894,-5.0655,-5.1279,-5.1885,-5.2289,-5.2325,-5.2803,-5.3175,-5.3254,-5.3359,-5.344,-5.3539,-5.3616,-5.3695,-5.3754,-5.3736,-5.3678,-6.132,-6.1087,-6.1013,-6.0734,-6.0119,-5.8299,-5.86,-6.02,-5.8962,-5.8237,-5.7896,-5.6703,-5.503,-5.3106,-5.2972,-5.2722,-5.2491,-5.3741,-5.4126,-5.3857,-5.5107,-5.5684,-5.5684,-5.5684,-5.5703,-5.564,-5.5198,-5.4814,-5.4386,-5.3925,-5.3023,-5.1755,-5.2521,-5.2127,-5.0588,-5.0264,-4.9835,-4.9352,-4.9326,-4.8863,-4.7901,-4.765,-4.6963,-4.5788,-4.5061,-4.438,-4.3634,-4.3615,-4.3596,-4.3596,-4.3157,-4.262,-4.2022,-4.0482,-3.9357,0.0,0.0,0.0,0.0,0.0,0.0,0.0,0.0,0.0,0.0,0.0,-4.1008,-4.0478,-4.157,-4.2304,-4.2304,-4.2304,-4.2598,-4.3314,-4.3369,-4.3663,-4.436,-4.5241,-4.5736,-4.5645,-4.6416,-4.7278,-4.8104,-4.86,-4.9022,-4.9352,-4.8655,-4.8251,-4.8783,-4.9169,-4.9481,-4.9609,-5.0655,-5.1334,-5.0839,-5.0417,-5.027,-5.0655,-5.0435,-5.0288,-5.0747,-5.1463,-5.2018,-5.2095,-5.2679,-5.323,-5.3378,-5.3418,-5.3459,-5.3558,-5.3656,-5.3565,-5.3272,-5.3236,-5.3236,-6.2617,-6.2184,-6.2749,-6.2701,-6.2118,-6.0418,-6.0525,-6.1755,-6.1146,-6.0791,-6.0531,-5.8973,-5.7011,-5.4876,-5.5434,-5.5376,-5.4876,-5.5549,-5.5491,-5.4876,-5.5665,-5.5915,-5.5703,-5.5818,-5.5756,-5.5615,-5.5573,-5.5186,-5.4488,-5.4469,-5.4028,-5.3222,-5.3913,-5.4211,-5.3948,-5.1643,-5.0149,-4.9586,-4.9369,-4.9194,-4.9079,-4.8048,-4.6787,-4.5354,-4.436,-4.3157,-4.1743,-4.1667,-4.1667,-4.1648,-4.1667,-4.1724,-4.1781,-4.096,-4.0234,0.0,-3.9451,0.0,0.0,0.0,0.0,0.0,0.0,0.0,0.0,-4.1844,-4.1688,-4.1401,-4.2047,-4.2525,-4.2727,-4.2763,-4.3369,-4.4819,-4.5021,-4.559,-4.6929,-4.7167,-4.7498,-4.8086,-4.8233,-4.86,-4.9205,-4.9499,-4.9848,-5.0178,-5.0306,-4.9994,-4.9609,-4.9994,-5.0196,-4.9554,-5.0031,-5.0435,-5.0674,-5.0563,-5.0398,-5.0563,-5.0398,-5.049,-5.0362,-5.1059,-5.1706,-5.1915,-5.25,-5.3106,-5.3462,-5.344,-5.3418,-5.3616,-5.3584,-5.3308,-5.2715,-5.2586,-5.2568,-6.3382,-6.3262,-6.3124,-6.3205,-6.3257,-6.1647,-6.0933,-6.0917,-6.1505,-6.0954,-5.9614,-5.87,-5.7623,-5.6425,-5.5912,-5.5992,-5.653,-5.6665,-5.6665,-5.6549,-5.7396,-5.7027,-5.5714,-5.6348,-5.6287,-5.5547,-5.5527,-5.5427,-5.5274,-5.5293,-5.4852,-5.4066,-5.4154,-5.3862,-5.3145,0.0,0.0,0.0,-5.0741,-4.9748,-4.9041,-4.6901,-4.564,-4.5277,-4.3825,0.0,-4.2565,-4.2545,-4.2565,-4.2545,-4.2545,0.0,0.0,0.0,0.0,0.0,0.0,0.0,0.0,0.0,0.0,0.0,-4.24,-4.2077,-4.1912,-4.1516,-4.1756,-4.2944,-4.3185,-4.3809,-4.5094,-4.5204,-4.5608,-4.6526,-4.6673,-4.6764,-4.7113,-4.7682,-4.7921,-4.7388,-4.7921,-4.8361,-4.8581,-4.9132,-4.937,-4.8985,-4.937,-4.9444,-4.8691,-4.9297,-4.9462,-4.8746,-4.882,-4.9334,-5.06,-4.9682,-4.9169,-4.9517,-4.9187,-4.8875,-4.893,-4.9554,-5.0346,-5.098,-5.1772,-5.2641,-5.345,-5.3656,-5.3558,-5.3558,-5.3158,-5.2753,-5.2605,-5.2587,-5.2401,-6.3584,-6.3477,-6.3911,-6.3848,0.0,-6.3016,-6.2185,-6.1184,-6.1282,-6.0578,-5.935,-5.8971,-5.8069,-5.6836,-5.6418,-5.6502,-5.6928,-5.6486,-5.6797,-5.7627,-5.7601,-5.7117,-5.6249,-5.6668,-5.6371,-5.5476,-5.5456,-5.5451,-5.5446,-5.5446,-5.5235,-5.4853,-5.4803,-5.4574,-5.4153,-5.411,-5.3473,-5.2212,-5.0951,-5.0111,-4.9633,-4.7627,-4.6328,-4.587,-4.4265,0.0,0.0,0.0,0.0,0.0,0.0,0.0,0.0,-4.2603,0.0,-4.3329,-4.2603,-4.2507,-4.331,-4.3405,-4.3577,-4.3997,-4.3611,-4.3205,-4.2922,-4.2862,-4.3387,-4.4544,-4.4672,-4.5168,-4.6342,-4.6489,-4.6819,-4.759,-4.77,-4.77,-4.7737,-4.8049,-4.8141,-4.7829,-4.8105,-4.8363,-4.8324,-4.8751,-4.8898,-4.8511,-4.875,-4.8915,-4.8548,-4.8712,-4.8746,-4.8361,-4.8324,-4.8618,-4.9336,-4.8967,-4.8454,-4.8879,-4.8638,-4.8343,-4.8324,-4.9003,-4.9798,-5.0374,-5.1293,-5.2287,-5.2895,-5.3302,-5.3518,-5.3561,-5.3343,-5.2975,-5.2735,-5.2605,-5.2568,-6.3859,-6.3716,-6.4781,-6.447,-6.3258,-6.3917,-6.323,-6.154,-6.0885,0.0,0.0,-5.9294,-5.8451,-5.7013,-5.7013,-5.7139,-5.7263,-5.6572,-5.7056,-5.8408,-5.7689,-5.7167,-5.686,-5.6808,-5.6299,-5.5421,-5.5383,-5.5396,-5.5403,-5.5403,-5.5403,-5.5403,-5.5403,-5.5403,-5.5403,-5.525,-5.4065,-5.1907,-5.0971,-5.0455,-5.0264,-4.8525,-4.7169,-4.6309,-4.4819,-4.3291,-4.18,-4.1724,-4.1724,-4.1724,-4.1724,-4.2125,-4.2947,-4.3023,-4.308,-4.3233,-4.3252,-4.3539,-4.4169,-4.4227,-4.4491,-4.5113,-4.4801,-4.4437,-4.4064,-4.4444,-4.5112,-4.603,-4.6104,-4.6434,-4.7241,-4.7296,-4.759,-4.8251,-4.8324,-4.8306,-4.8306,-4.8324,-4.8306,-4.8306,-4.8382,-4.8419,-4.8363,-4.8494,-4.8605,-4.8587,-4.8624,-4.8624,-4.8624,-4.8494,-4.8379,-4.8324,-4.8382,-4.8438,-4.8475,-4.8513,-4.842,-4.8494,-4.8381,-4.8324,-4.8416,-4.8875,-4.943,-4.9841,-5.0888,-5.1587,-5.2098,-5.252,-5.3013,-5.3376,-5.3491,-5.3343,-5.2939,-5.2717,-5.2713,-6.4828,-6.4915,-6.5531,-6.4827,-6.3295,-6.3411,-6.2433,-6.077,-6.0564,-6.0047,-5.9223,-5.9275,-5.8751,-5.7845,-5.7895,-5.8303,-5.8936,-5.884,-5.8917,-5.9152,-5.9037,-5.8188,-5.6753,-5.6715,-5.6263,-5.5422,-5.5384,-5.5384,-5.5403,-5.5403,-5.5403,-5.5403,-5.5403,-5.5403,-5.5345,-5.4658,-5.3741,-5.2633,-5.183,-5.1066,-5.0302,-4.7952,-4.629,-4.5488,-4.4551,-4.3577,-4.266,-4.2622,-4.2622,-4.2622,-4.2622,-4.2985,-4.3768,-4.3825,-4.4169,-4.4876,-4.4934,-4.4991,-4.5086,-4.5105,-4.4931,-4.461,-4.5087,-4.5207,-4.4665,-4.4689,-4.5333,-4.6746,-4.6948,-4.7278,-4.8012,-4.8104,-4.8141,-4.8269,-4.8324,-4.8324,-4.8344,-4.8344,-4.8344,-4.8364,-4.8306,-4.8401,-4.8513,-4.855,-4.8678,-4.8872,-4.8922,-4.8971,-4.9001,-4.8676,-4.8344,-4.8344,-4.855,-4.8586,-4.8514,-4.8569,-4.8641,-4.8382,-4.8344,-4.8344,-4.8324,-4.8471,-4.884,-4.9562,-4.9986,-5.0411,-5.1118,-5.134,-5.1821,-5.2395,-5.2602,-5.2715,-5.3142,-5.3086,-5.2746,-6.4451,-6.4485,-6.45,-6.4032,-6.3281,-6.2765,-6.1761,-6.0537,-6.0472,-6.0234,-5.9871,-5.9898,-5.942,-5.8647,-5.8635,-5.8853,-5.9249,-5.8809,-5.8847,-5.9262,-5.8834,-5.7902,-5.6767,-5.6684,-5.6193,-5.5441,-5.5403,-5.5403,-5.5403,-5.5403,-5.5403,-5.5403,-5.5403,-5.5403,-5.5365,-5.5002,-5.439,-5.3511,-5.2251,-5.12,-5.0302,-4.8735,-4.7513,-4.6691,-4.6271,-4.5468,-4.4208,-4.4571,-4.4609,-4.4169,-4.415,-4.4322,-4.4685,-4.4704,-4.4876,-4.5258,-4.5277,-4.5277,-4.5277,-4.5277,-4.5042,-4.4457,-4.474,-4.486,-4.4707,-4.5516,-4.6489,-4.7627,-4.7774,-4.7902,-4.8269,-4.8363,-4.8401,-4.8306,-4.8514,-4.8641,-4.8623,-4.8728,-4.8866,-4.8881,-4.8967,-4.9001,-4.9015,-4.915,-4.9233,-4.9309,-4.9296,-4.9277,-4.9302,-4.9048,-4.8832,-4.8866,-4.8982,-4.9034,-4.8952,-4.9001,-4.8986,-4.8694,-4.8605,-4.8514,-4.8382,-4.8324,-4.851,-4.8954,-4.934,-4.9878,-5.0509,-5.0954,-5.1362,-5.1732,-5.1936,-5.2196,-5.2507,-5.2704,-5.2683,-6.4142,-6.4307,-6.3552,-6.3155,-6.2905,-6.1998,-6.1119,-6.0455,-6.0417,-6.0389,-6.0389,-6.0389,-6.0026,-5.9434,-5.9396,-5.9423,-5.9362,-5.8827,-5.8795,-5.9134,-5.8374,-5.7506,-5.6703,-5.646,-5.5995,-5.546,-5.5403,-5.5403,-5.5403,-5.5403,-5.5403,-5.5403,-5.5403,-5.5403,-5.5403,-5.5021,-5.4486,-5.3741,-5.2155,-5.1085,-5.0588,-4.9786,-4.8945,-4.8181,-4.8086,-4.7302,-4.5736,-4.6175,-4.6118,-4.5354,-4.5277,-4.5277,-4.5277,-4.5277,-4.5277,-4.5277,-4.5277,-4.5373,-4.5564,-4.5712,-4.5523,-4.5021,-4.5096,-4.5078,-4.509,-4.6287,-4.726,-4.77,-4.7847,-4.7994,-4.8031,-4.8309,-4.8401,-4.8344,-4.8677,-4.8869,-4.885,-4.908,-4.9314,-4.9405,-4.9472,-4.9502,-4.957,-4.9674,-4.974,-4.9703,-4.9627,-4.955,-4.9512,-4.9483,-4.9405,-4.9483,-4.9483,-4.9412,-4.9461,-4.9442,-4.9321,-4.9137,-4.8967,-4.8832,-4.864,-4.8586,-4.8605,-4.8842,-4.9214,-4.9601,-4.9958,-5.0403,-5.0903,-5.1282,-5.1409,-5.1495,-5.1739,-5.2001,-5.2353,-6.4719,-6.5158,-6.3737,-6.2701,-6.1953,-6.1083,-6.0609,-6.0472,-6.0417,-6.0389,-6.0389,-6.0389,-6.0332,-6.0293,-6.0255,-6.0245,-6.0245,-6.0207,-5.9786,-5.9041,-5.8268,-5.7454,-5.6556,-5.588,-5.5479,-5.5403,-5.5403,-5.5403,-5.5403,-5.5403,-5.5403,-5.5403,-5.5403,-5.5403,-5.525,-5.3894,-5.3053,-5.29,-5.1276,-5.0779,-5.1391,-5.0646,-4.9805,-4.9003,-4.8965,-4.8162,-4.65,-4.6462,-4.6137,-4.5373,-4.5335,-4.5297,-4.5297,-4.5297,-4.5277,-4.5277,-4.5297,-4.5602,-4.6307,-4.6844,-4.6913,-4.6722,-4.6893,-4.6694,-4.5846,-4.6526,-4.6783,-4.6416,-4.6783,-4.7222,-4.7278,-4.7884,-4.8344,-4.8344,-4.8623,-4.8816,-4.8829,-4.908,-4.9314,-4.9424,-4.9426,-4.9405,-4.9617,-4.9702,-4.9787,-4.9993,-4.9895,-4.9876,-5.0032,-4.9789,-4.98,-5.0012,-4.9936,-4.9617,-4.9445,-4.957,-4.9532,-4.9326,-4.9271,-4.9221,-4.919,-4.919,-4.9283,-4.9145,-4.9296,-4.9465,-4.9509,-4.9546,-4.9977,-5.0696,-5.0896,-5.0956,-5.1233,-5.1342,-5.1597,-6.4258,-6.4017,-6.2828,-6.1824,-6.1012,-6.015,-6.002,-6.0387,-5.9854,-5.9911,-6.0351,-6.0389,-6.0389,-6.0389,-6.0389,-6.0389,-6.0389,-6.0389,-5.9663,-5.844,-5.8039,-5.7179,-5.5938,-5.5575,-5.5403,-5.5403,-5.5403,-5.5403,-5.5403,-5.5403,-5.5403,-5.5403,-5.5403,-5.5403,-5.5345,-5.4696,-5.4085,-5.355,-5.2384,-5.1735,-5.1505,-5.076,-4.992,-4.9251,-4.9538,-4.9003,-4.7551,-4.7761,-4.7646,-4.6844,-4.629,-4.6023,-4.6003,-4.5564,-4.5277,-4.5316,-4.5736,-4.6072,-4.6254,-4.6891,-4.7108,-4.6645,-4.6336,-4.5882,-4.5258,-4.5076,-4.4819,-4.4764,-4.6085,-4.7075,-4.7168,-4.7903,-4.8401,-4.8382,-4.8677,-4.8785,-4.8413,-4.9093,-4.9532,-4.9378,-4.9664,-4.9968,-5.0135,-5.0125,-5.0163,-5.0255,-5.0144,-5.0106,-5.024,-4.9787,-4.9711,-4.9988,-4.9387,-4.9118,-4.9587,-4.9543,-4.9473,-4.9551,-4.9627,-4.9655,-4.9464,-4.9405,-4.9405,-4.9445,-4.9475,-4.9551,-4.9749,-4.9738,-4.9917,-5.038,-5.0399,-5.0426,-5.0525,-5.0628,-5.0912,-6.3636,-6.2965,-6.2103,-6.1406,-6.0759,-6.0173,-6.0204,-6.0618,-6.0045,-6.0026,-6.0351,-6.0389,-6.0389,-6.0389,-6.0389,-6.0389,-6.0389,-6.0389,-5.9491,-5.802,-5.7886,-5.7008,-5.5517,-5.5403,-5.5403,-5.5403,-5.5403,-5.5403,-5.5403,-5.5403,-5.5403,-5.5403,-5.5403,-5.5403,-5.5365,-5.5212,-5.4753,-5.4065,-5.3225,-5.2422,-5.1639,-5.099,-5.0264,-4.9557,-4.9996,-4.9633,-4.8258,-4.8754,-4.8697,-4.7837,-4.6978,-4.6519,-4.6481,-4.5736,-4.5392,-4.5679,-4.6405,-4.687,-4.6909,-4.7593,-4.7815,-4.7299,-4.652,-4.5751,-4.5173,-4.4491,-4.3904,-4.3697,-4.5455,-4.6668,-4.6856,-4.761,-4.8125,-4.8289,-4.8564,-4.8422,-4.8227,-4.8796,-4.903,-4.8939,-4.9163,-4.9838,-5.0078,-5.0052,-5.0046,-5.0313,-5.0134,-4.9958,-4.9862,-4.9289,-4.8945,-4.9442,-4.8334,-4.8254,-4.9557,-4.9515,-4.933,-4.9542,-4.9714,-4.9962,-4.9738,-4.9738,-4.9738,-4.9974,-4.9773,-4.9773,-5.0019,-5.013,-5.0092,-5.0169,-5.0201,-5.0196,-5.0247,-5.0293,-5.034,-6.293,-6.2825,-6.206,-6.1611,-6.1516,-6.1486,-6.1477,-6.1363,-6.1363,-6.1019,-6.0427,-6.0389,-6.0389,-6.0351,-6.0351,-6.0389,-6.0389,-6.0389,-5.951,-5.8001,-5.7886,-5.7008,-5.546,-5.5403,-5.5403,-5.5403,-5.5403,-5.5403,-5.5403,-5.5403,-5.5403,-5.5403,-5.5403,-5.5403,-5.5307,-5.4696,-5.418,-5.4104,-5.3416,-5.248,-5.1773,-5.1601,-5.1181,-5.0302,-5.0264,-4.9901,-4.9156,-4.9079,-4.8735,-4.7857,-4.7092,-4.6596,-4.65,-4.5793,-4.5679,-4.6385,-4.7226,-4.8063,-4.8743,-4.9252,-4.9511,-4.9372,-4.834,-4.743,-4.6318,-4.5674,-4.4836,-4.3655,-4.4867,-4.5767,-4.6063,-4.6819,-4.75,-4.8089,-4.79,-4.7812,-4.8014,-4.7767,-4.7699,-4.7879,-4.8073,-4.8474,-4.9092,-4.9168,-4.957,-4.9893,-4.9641,-4.9175,-4.9003,-4.8411,-4.8028,-4.7876,-4.7417,-4.715,-4.8697,-4.8965,-4.9003,-4.9281,-4.972,-5.0214,-5.0418,-5.05,-5.0442,-5.0385,-5.0186,-5.0164,-5.0383,-5.0462,-5.0383,-5.038,-5.0371,-5.0344,-5.0231,-5.0278,-5.0302,-6.3418,-6.2815,-6.1984,-6.1621,-6.1554,-6.1086,-6.0856,-6.0771,-6.0217,-6.0179,-6.037,-6.0389,-6.0083,-5.9587,-6.0141,-6.0389,-6.0389,-6.0389,-5.9491,-5.802,-5.7886,-5.7008,-5.5536,-5.5403,-5.5403,-5.5403,-5.5403,-5.5403,-5.5403,-5.5403,-5.5403,-5.5403,-5.5403,-5.5403,-5.5345,-5.5097,-5.4925,-5.4906,-5.46,-5.3798,-5.2594,-5.2919,-5.2308,-5.0436,-5.0302,-5.0168,-4.9882,-4.9862,-4.971,-4.9404,-4.8621,-4.8162,-4.8009,-4.6825,-4.6194,-4.6538,-4.7322,-4.8094,-4.8745,-4.9421,-4.9702,-4.9437,-4.8641,-4.7744,-4.6836,-4.6071,-4.5217,-4.4453,-4.4456,-4.5065,-4.5699,-4.6424,-4.702,-4.7239,-4.7204,-4.7016,-4.6948,-4.7091,-4.7276,-4.7207,-4.7482,-4.8018,-4.8223,-4.8761,-4.8987,-4.8796,-4.893,-4.8793,-4.8258,-4.7532,-4.7131,-4.7417,-4.6691,-4.6137,-4.7188,-4.7971,-4.8372,-4.8949,-4.9392,-4.9472,-4.9614,-4.9676,-4.9599,-4.9295,-4.947,-4.9585,-4.9469,-4.9583,-4.9738,-5.0214,-5.0227,-5.0199,-5.0321,-5.0268,-5.0287,-6.2682,-6.2051,-6.1459,-6.1363,-6.1516,-6.1019,-6.079,-6.0714,-6.016,-6.0102,-6.037,-6.0389,-6.0064,-5.9663,-6.0122,-6.0389,-6.0389,-6.037,-5.9491,-5.7982,-5.7886,-5.7027,-5.5613,-5.5403,-5.5403,-5.5403,-5.5403,-5.5403,-5.5403,-5.5403,-5.5403,-5.5403,-5.5403,-5.5403,-5.5403,-5.5403,-5.5479,-5.5708,-5.5785,-5.5154,-5.4199,-5.4333,-5.3435,-5.1448,-5.0875,-5.0569,-5.0321,-5.0302,-5.0302,-5.0206,-4.9538,-4.8965,-4.8582,-4.7589,-4.7073,-4.736,-4.7895,-4.8495,-4.9087,-4.9651,-4.9876,-4.9599,-4.8626,-4.7729,-4.708,-4.618,-4.5285,-4.4643,-4.4643,-4.4997,-4.5319,-4.593,-4.6449,-4.6665,-4.6588,-4.6346,-4.6145,-4.631,-4.6326,-4.6326,-4.6908,-4.7327,-4.7474,-4.8181,-4.8315,-4.7857,-4.8143,-4.7952,-4.7417,-4.6691,-4.6252,-4.6787,-4.6061,-4.5679,-4.6252,-4.6901,-4.7322,-4.7859,-4.857,-4.8668,-4.8731,-4.8773,-4.8681,-4.8336,-4.8279,-4.8414,-4.8548,-4.8644,-4.9066,-4.9639,-4.9786,-4.972,-4.9927,-5.0153,-5.0275,-6.0523,-6.0599,-6.0427,-6.0962,-6.1554,-6.1516,-6.1554,-6.1402,-6.1382,-6.0886,-6.0427,-6.0389,-6.0293,-6.0274,-6.0293,-6.037,-6.0274,-6.0332,-5.9548,-5.8116,-5.8001,-5.716,-5.5708,-5.5575,-5.546,-5.5403,-5.5403,-5.5403,-5.5403,-5.5403,-5.5403,-5.5403,-5.5403,-5.5403,-5.5403,-5.5422,-5.5785,-5.6339,-5.653,-5.653,-5.6492,-5.5747,-5.4486,-5.2785,-5.1888,-5.1123,-5.034,-5.0302,-5.0278,-5.0183,-4.9595,-4.8716,-4.8044,-4.7754,-4.8102,-4.8541,-4.8926,-4.9442,-4.9973,-5.0145,-5.0217,-4.9768,-4.869,-4.781,-4.7327,-4.6367,-4.5411,-4.4884,-4.5086,-4.5309,-4.5029,-4.5232,-4.5756,-4.6506,-4.6102,-4.5798,-4.5849,-4.535,-4.4972,-4.5407,-4.608,-4.6462,-4.6672,-4.7264,-4.7646,-4.7436,-4.7131,-4.6768,-4.6519,-4.5908,-4.5449,-4.543,-4.543,-4.5468,-4.566,-4.5927,-4.6252,-4.6634,-4.7403,-4.7867,-4.7888,-4.791,-4.7798,-4.7511,-4.7376,-4.751,-4.7875,-4.7991,-4.8126,-4.8585,-4.8811,-4.9305,-4.9551,-4.9838,-5.0281,-6.1211,-6.123,-6.123,-6.1363,-6.1573,-6.1593,-6.1306,-6.0809,-6.0771,-6.0618,-6.0408,-6.0389,-6.0064,-5.9759,-6.0102,-6.0083,-5.9587,-6.0045,-5.9778,-5.888,-5.8727,-5.8154,-5.716,-5.6492,-5.5919,-5.5479,-5.5403,-5.5403,-5.5422,-5.5403,-5.5403,-5.5403,-5.5403,-5.5403,-5.5403,-5.5422,-5.5785,-5.6549,-5.7199,-5.7218,-5.6664,-5.6358,-5.5135,-5.2996,-5.2021,-5.1181,-5.0378,-5.0302,-5.0188,-4.9981,-4.994,-4.9201,-4.7971,-4.8074,-4.7941,-4.7281,-4.8399,-4.885,-4.8754,-4.9614,-4.9729,-4.8945,-4.8582,-4.835,-4.7785,-4.7302,-4.6672,-4.5993,-4.6077,-4.5948,-4.5347,-4.5235,-4.5478,-4.5741,-4.5551,-4.5432,-4.5544,-4.5319,-4.5211,-4.5275,-4.5526,-4.566,-4.5831,-4.6462,-4.6825,-4.6328,-4.6309,-4.6328,-4.5774,-4.5526,-4.5316,-4.5297,-4.5277,-4.5277,-4.5468,-4.5602,-4.5776,-4.6003,-4.6562,-4.6985,-4.7026,-4.7029,-4.6897,-4.68,-4.6645,-4.674,-4.7087,-4.7299,-4.7376,-4.7953,-4.8566,-4.8928,-4.9194,-4.9674,-5.0251,-6.1153,-6.1153,-6.1153,-6.0943,-6.0752,-6.1,-6.0676,-5.9988,-5.9911,-6.0083,-6.0293,-6.0045,-5.9816,-5.972,-6.016,-6.0083,-5.9682,-6.0179,-6.0102,-5.9568,-5.9185,-5.867,-5.7944,-5.7371,-5.6645,-5.5976,-5.5842,-5.5842,-5.5823,-5.5556,-5.5403,-5.5403,-5.5403,-5.5403,-5.5403,-5.5422,-5.5804,-5.6587,-5.7428,-5.7619,-5.7199,-5.7084,-5.6014,-5.4008,-5.2957,-5.1964,-5.0932,-5.0779,-5.0536,-5.0127,-5.0212,-4.961,-4.8472,-4.8884,-4.8612,-4.7805,-4.8205,-4.8716,-4.8067,-4.8774,-4.9175,-4.8449,-4.82,-4.8277,-4.8048,-4.7941,-4.7176,-4.7076,-4.6715,-4.6373,-4.5831,-4.543,-4.5316,-4.5297,-4.5314,-4.5277,-4.5277,-4.5317,-4.5317,-4.5432,-4.587,-4.5851,-4.564,-4.6328,-4.6405,-4.5717,-4.5717,-4.5984,-4.543,-4.5316,-4.5277,-4.5277,-4.5277,-4.5277,-4.5277,-4.5316,-4.5337,-4.5547,-4.5814,-4.6046,-4.6164,-4.6186,-4.611,-4.6089,-4.599,-4.6067,-4.6374,-4.6394,-4.6529,-4.7395,-4.8068,-4.8471,-4.8776,-4.985,-5.0466,-6.0408,-6.0389,-6.0389,-5.9969,-5.9396,-6.0102,-6.0007,-5.9243,-5.9281,-5.9759,-6.0141,-5.972,-5.972,-6.0255,-6.037,-6.0332,-6.037,-6.0351,-6.037,-6.0102,-5.9606,-5.8899,-5.8135,-5.7848,-5.7332,-5.6778,-5.6473,-5.6434,-5.6396,-5.5747,-5.5403,-5.5403,-5.5403,-5.5403,-5.5403,-5.5403,-5.5785,-5.6606,-5.7371,-5.7695,-5.7734,-5.7581,-5.6893,-5.525,-5.4237,-5.3034,-5.1716,-5.1334,-5.0985,-5.0393,-5.0188,-4.9911,-4.9705,-5.0038,-4.9716,-4.859,-4.8904,-4.8468,-4.7895,-4.8067,-4.8277,-4.8449,-4.7742,-4.7283,-4.8582,-4.7939,-4.7348,-4.757,-4.7116,-4.6621,-4.6273,-4.5717,-4.5335,-4.5277,-4.5277,-4.5316,-4.5373,-4.5472,-4.5568,-4.5719,-4.6653,-4.7111,-4.5545,-4.6577,-4.6443,-4.5793,-4.5373,-4.5373,-4.5354,-4.5277,-4.5277,-4.5277,-4.5277,-4.5277,-4.5277,-4.5297,-4.5317,-4.5397,-4.5529,-4.5587,-4.5647,-4.5649,-4.5649,-4.5609,-4.5605,-4.5624,-4.5682,-4.5836,-4.5855,-4.6242,-4.6935,-4.7646,-4.8567,-4.9566,-5.0392,-6.0389,-6.0389,-6.0389,-5.9892,-5.9281,-6.0026,-5.9892,-5.9243,-5.9778,-6.0102,-6.0313,-6.0179,-6.0102,-6.0389,-6.0389,-6.0389,-6.0389,-6.0389,-6.0389,-6.037,-6.0198,-5.9587,-5.8784,-5.8173,-5.781,-5.7447,-5.6511,-5.6033,-5.6492,-5.5842,-5.5441,-5.5403,-5.5403,-5.5403,-5.5403,-5.5403,-5.5823,-5.6492,-5.6759,-5.7313,-5.7619,-5.6683,-5.5899,-5.5384,-5.4008,-5.2766,-5.1658,-5.0971,-5.0435,-4.9967,-4.9655,-4.9239,-4.8843,-4.9481,-4.9182,-4.7767,-4.8285,-4.8143,-4.6863,-4.7665,-4.8181,-4.7417,-4.7914,-4.8602,-4.8984,-4.8723,-4.8226,-4.7993,-4.7575,-4.7004,-4.5967,-4.5468,-4.5335,-4.5277,-4.5411,-4.5621,-4.5984,-4.6194,-4.6197,-4.6252,-4.6672,-4.6366,-4.5889,-4.5793,-4.5984,-4.5488,-4.5277,-4.5277,-4.5277,-4.5277,-4.5277,-4.5277,-4.5277,-4.5277,-4.5277,-4.5277,-4.5319,-4.5361,-4.5417,-4.5415,-4.5475,-4.5515,-4.5515,-4.5513,-4.5568,-4.5605,-4.5605,-4.5663,-4.5605,-4.5568,-4.6395,-4.7376,-4.8164,-4.9067,-4.9971,-6.0389,-6.0389,-6.0389,-5.9701,-5.8842,-5.9873,-5.9701,-5.8918,-5.9472,-6.0083,-6.0255,-5.9988,-6.0045,-6.037,-6.0389,-6.0389,-6.0389,-6.0389,-6.0389,-6.0389,-6.037,-5.9873,-5.9166,-5.8555,-5.8402,-5.8268,-5.7065,-5.6797,-5.695,-5.6301,-5.5785,-5.546,-5.5403,-5.5403,-5.5403,-5.5422,-5.5594,-5.6071,-5.6396,-5.6874,-5.7199,-5.6454,-5.6052,-5.5689,-5.4543,-5.3397,-5.2231,-5.1314,-5.0544,-4.9997,-4.9711,-4.9428,-4.8938,-4.9546,-4.9169,-4.7519,-4.817,-4.7818,-4.692,-4.7513,-4.7857,-4.7704,-4.8411,-4.8869,-4.9328,-4.9354,-4.8815,-4.8945,-4.8302,-4.7401,-4.6598,-4.6042,-4.5831,-4.5889,-4.6118,-4.6366,-4.6538,-4.6502,-4.6713,-4.6901,-4.7016,-4.6729,-4.5946,-4.608,-4.5889,-4.5526,-4.5297,-4.5277,-4.5277,-4.5277,-4.5277,-4.5277,-4.5277,-4.5277,-4.5277,-4.5277,-4.5277,-4.5341,-4.54,-4.5359,-4.538,-4.5438,-4.5476,-4.5513,-4.5568,-4.5586,-4.5586,-4.5586,-4.5586,-4.5817,-4.6471,-4.7124,-4.7913,-4.8452,-4.9356,-6.0313,-6.0389,-6.0293,-5.9415,-5.844,-5.9682,-5.9568,-5.8402,-5.8899,-5.9644,-6.0083,-5.9491,-5.9682,-6.037,-6.0389,-6.0389,-6.0389,-6.0389,-6.0389,-6.0389,-6.0332,-6.0007,-5.9434,-5.909,-5.8975,-5.8803,-5.8211,-5.7638,-5.7256,-5.6702,-5.6071,-5.5536,-5.5403,-5.5403,-5.5403,-5.5403,-5.5403,-5.5575,-5.6052,-5.6339,-5.653,-5.6434,-5.6358,-5.6033,-5.5326,-5.4256,-5.3053,-5.2059,-5.1103,-5.0047,-5.022,-5.0012,-4.9827,-5.0081,-4.9801,-4.9018,-4.8407,-4.8028,-4.7723,-4.7322,-4.757,-4.8563,-4.8391,-4.864,-4.9748,-4.9694,-4.9465,-4.9694,-4.8735,-4.8032,-4.757,-4.7016,-4.671,-4.6768,-4.736,-4.7455,-4.6997,-4.683,-4.7116,-4.7685,-4.7818,-4.7513,-4.7035,-4.6997,-4.7092,-4.587,-4.5545,-4.5277,-4.5277,-4.5277,-4.5277,-4.5277,-4.5277,-4.5277,-4.5277,-4.5277,-4.5277,-4.5298,-4.538,-4.5399,-4.54,-4.5419,-4.5475,-4.5531,-4.5568,-4.5586,-4.5586,-4.5586,-4.5586,-4.572,-4.6124,-4.6913,-4.7702,-4.8009,-4.8702,-5.9759,-6.0351,-5.9663,-5.9185,-5.9052,-5.9931,-5.9778,-5.8842,-5.8994,-5.951,-6.0045,-5.9472,-5.9625,-6.0389,-6.0389,-6.0389,-6.0389,-6.0389,-6.0389,-6.0389,-6.0389,-6.0332,-5.995,-5.9491,-5.9147,-5.8784,-5.7562,-5.6969,-5.674,-5.6301,-5.5613,-5.5498,-5.5441,-5.5403,-5.5403,-5.5403,-5.5403,-5.5422,-5.5613,-5.5747,-5.5919,-5.6282,-5.6262,-5.5747,-5.4944,-5.4333,-5.3664,-5.2384,-5.1501,-5.1152,-5.0636,-5.0144,-4.9955,-5.0144,-4.9939,-4.9328,-4.8945,-4.8506,-4.8048,-4.8258,-4.8621,-4.9041,-4.9461,-4.992,-5.013,-5.0214,-4.9816,-4.9548,-4.8993,-4.8474,-4.7876,-4.7665,-4.7551,-4.7704,-4.8258,-4.8754,-4.8563,-4.8509,-4.8299,-4.8143,-4.8372,-4.8239,-4.6825,-4.6844,-4.671,-4.6214,-4.5831,-4.5392,-4.5354,-4.5411,-4.5468,-4.5564,-4.5812,-4.5851,-4.5526,-4.5449,-4.5298,-4.5319,-4.538,-4.5438,-4.5438,-4.5457,-4.5513,-4.5531,-4.5549,-4.5586,-4.5586,-4.5586,-4.5586,-4.5682,-4.5817,-4.649,-4.7105,-4.749,-4.8048,-5.9988,-6.0332,-5.9911,-5.9472,-5.9224,-5.9568,-5.93,-5.8651,-5.8536,-5.9014,-5.9568,-5.9281,-5.9606,-6.0351,-6.0389,-6.0389,-6.0342,-6.0207,-6.0217,-6.0294,-6.0237,-6.0207,-6.0351,-5.9931,-5.9529,-5.8975,-5.7867,-5.7256,-5.6988,-5.6396,-5.6052,-5.5899,-5.5613,-5.5422,-5.5403,-5.5403,-5.5403,-5.5403,-5.5403,-5.5556,-5.5995,-5.5938,-5.5919,-5.5479,-5.4925,-5.4562,-5.3989,-5.29,-5.2079,-5.1505,-5.0799,-5.0236,-5.0076,-5.0193,-5.0054,-4.9729,-4.9232,-4.9194,-4.9079,-4.9041,-4.9232,-4.9614,-5.0073,-5.0206,-5.0302,-5.0325,-5.0195,-4.9698,-4.9277,-4.8739,-4.7971,-4.8277,-4.8353,-4.8563,-4.9156,-4.9633,-4.9614,-4.9347,-4.9175,-4.8907,-4.9041,-4.8678,-4.8028,-4.7532,-4.7226,-4.7131,-4.6405,-4.5984,-4.5984,-4.6023,-4.5984,-4.6118,-4.6443,-4.6424,-4.5965,-4.5661,-4.5338,-4.5341,-4.5361,-4.5457,-4.5532,-4.5532,-4.555,-4.5568,-4.5586,-4.5586,-4.5586,-4.5586,-4.5586,-4.5624,-4.5797,-4.6163,-4.6547,-4.7048,-4.7663,-6.0274,-6.037,-6.0236,-5.9835,-5.9319,-5.9205,-5.8784,-5.8192,-5.7791,-5.8154,-5.8746,-5.8822,-5.9005,-5.9874,-5.9789,-5.9903,-5.9919,-5.9906,-5.9842,-6.0019,-5.9823,-5.9874,-6.003,-6.0025,-5.9684,-5.8987,-5.8375,-5.802,-5.7428,-5.7027,-5.6606,-5.6568,-5.5785,-5.5575,-5.5575,-5.5422,-5.5403,-5.5403,-5.5403,-5.5613,-5.6148,-5.5899,-5.5766,-5.5689,-5.5384,-5.5021,-5.439,-5.3511,-5.2633,-5.183,-5.0971,-5.0512,-5.0321,-5.0302,-5.0302,-5.0245,-4.9671,-4.9614,-4.9824,-4.9691,-4.9633,-5.0283,-5.0302,-5.0302,-5.0302,-5.0325,-5.0287,-5.0115,-4.9713,-4.9159,-4.8372,-4.885,-4.9232,-4.9385,-4.992,-5.0245,-5.0187,-4.9671,-4.9652,-4.9691,-4.9557,-4.9232,-4.8984,-4.8621,-4.8334,-4.7952,-4.7188,-4.6653,-4.6634,-4.671,-4.671,-4.6729,-4.7035,-4.6787,-4.6309,-4.6046,-4.5703,-4.5361,-4.54,-4.5457,-4.555,-4.5568,-4.5568,-4.5586,-4.5586,-4.5586,-4.5586,-4.5586,-4.5586,-4.5586,-4.5682,-4.5913,-4.6259,-4.6626,-4.7164,-5.9739,-6.0332,-5.9625,-5.9625,-6.0026,-5.9396,-5.8937,-5.867,-5.7371,-5.7313,-5.7944,-5.7409,-5.7854,-5.8505,-5.8084,-5.811,-5.8744,-5.9095,-5.9361,-5.9467,-5.9342,-5.9378,-5.9405,-5.962,-5.9317,-5.8886,-5.851,-5.8014,-5.7199,-5.6664,-5.6969,-5.7179,-5.6205,-5.5747,-5.5919,-5.5785,-5.5403,-5.5403,-5.5403,-5.5556,-5.5708,-5.6014,-5.6167,-5.6091,-5.567,-5.5326,-5.5021,-5.4314,-5.3492,-5.2652,-5.183,-5.1066,-5.0474,-5.0302,-5.0302,-5.0245,-5.013,-5.0073,-5.0206,-5.0187,-5.0149,-5.0283,-5.0302,-5.0302,-5.0302,-5.0367,-5.0367,-5.0352,-5.0256,-5.0023,-4.9939,-4.9901,-5.0015,-5.013,-5.0149,-5.0302,-5.0264,-5.0111,-4.9805,-4.9691,-4.9767,-4.9862,-4.9576,-4.9328,-4.9003,-4.8582,-4.8009,-4.7379,-4.7111,-4.7341,-4.7589,-4.7608,-4.7646,-4.715,-4.6577,-4.639,-4.6106,-4.5553,-4.5438,-4.5457,-4.5531,-4.5568,-4.5586,-4.5586,-4.5586,-4.5586,-4.5586,-4.5586,-4.5586,-4.5586,-4.5624,-4.5643,-4.5893,-4.6164,-4.6301,-6.0007,-6.0313,-5.9472,-5.9606,-5.9988,-5.8498,-5.8077,-5.8192,-5.6759,-5.6454,-5.6992,-5.7073,-5.7517,-5.8243,-5.8423,-5.8455,-5.8596,-5.8726,-5.9008,-5.9122,-5.8989,-5.8765,-5.8596,-5.8792,-5.8031,-5.7475,-5.7472,-5.7881,-5.7325,-5.7294,-5.7313,-5.6969,-5.632,-5.6052,-5.5919,-5.5594,-5.5422,-5.5403,-5.5403,-5.5403,-5.5377,-5.5842,-5.5957,-5.5861,-5.567,-5.5422,-5.525,-5.4543,-5.3683,-5.2843,-5.2021,-5.12,-5.0588,-5.0302,-5.0302,-5.0302,-5.0302,-5.0302,-5.0302,-5.0302,-5.0283,-5.0302,-5.0302,-5.0302,-5.0302,-5.0344,-5.0367,-5.039,-5.0371,-5.039,-5.031,-5.0344,-5.0302,-5.0302,-5.0302,-5.0302,-5.0302,-5.0302,-5.0034,-4.971,-4.9939,-5.0073,-4.9958,-4.9729,-4.9519,-4.9156,-4.8716,-4.8239,-4.7723,-4.7933,-4.8277,-4.8086,-4.7933,-4.7302,-4.6732,-4.6411,-4.6203,-4.5707,-4.5458,-4.5495,-4.5531,-4.5586,-4.5586,-4.5586,-4.5586,-4.5586,-4.5586,-4.5586,-4.5586,-4.5586,-4.5605,-4.5605,-4.5586,-4.5683,-4.5878,-6.0389,-6.0313,-5.9397,-5.9407,-5.9579,-5.7444,-5.674,-5.7035,-5.5826,-5.5627,-5.6331,-5.6569,-5.7054,-5.7921,-5.8371,-5.8575,-5.8538,-5.8308,-5.8669,-5.8676,-5.8368,-5.8018,-5.7826,-5.7547,-5.7208,-5.6955,-5.7182,-5.7383,-5.7539,-5.7624,-5.7546,-5.7542,-5.7179,-5.6473,-5.611,-5.5708,-5.5536,-5.5403,-5.5403,-5.5377,-5.5305,-5.5286,-5.5286,-5.5305,-5.5358,-5.5403,-5.5326,-5.4849,-5.3874,-5.2996,-5.2174,-5.1391,-5.0512,-5.0302,-5.0302,-5.0302,-5.0302,-5.0302,-5.0302,-5.0302,-5.0302,-5.0302,-5.0302,-5.0302,-5.0302,-5.0302,-5.0325,-5.0348,-5.0371,-5.0371,-5.0367,-5.0325,-5.0302,-5.0302,-5.0302,-5.0302,-5.0302,-5.0302,-5.0302,-5.0187,-5.0302,-5.0245,-5.0111,-5.0015,-4.9805,-4.9557,-4.9117,-4.9041,-4.8602,-4.8621,-4.8735,-4.843,-4.8067,-4.7398,-4.683,-4.6298,-4.6013,-4.5611,-4.5495,-4.5531,-4.5568,-4.5586,-4.5605,-4.5643,-4.5586,-4.5586,-4.5586,-4.5586,-4.5586,-4.5586,-4.5586,-4.5586,-4.5586,-4.5531,-4.5629,-6.0389,-6.0265,-5.9106,-5.8729,-5.8477,-5.6531,-5.5668,-5.572,-5.491,-5.4867,-5.5664,-5.5097,-5.5469,-5.6422,-5.7019,-5.6749,-5.6706,-5.7578,-5.8186,-5.8183,-5.756,-5.7192,-5.6922,-5.6518,-5.6966,-5.7003,-5.7786,-5.7902,-5.7734,-5.7593,-5.8244,-5.8795,-5.7504,-5.6816,-5.6969,-5.6091,-5.5422,-5.5403,-5.5403,-5.526,-5.499,-5.4933,-5.4933,-5.5038,-5.5187,-5.5358,-5.5377,-5.5097,-5.4448,-5.3072,-5.2747,-5.1849,-5.0646,-5.0302,-5.0302,-5.0302,-5.0302,-5.0302,-5.0302,-5.0302,-5.0302,-5.0302,-5.0302,-5.0302,-5.0302,-5.0302,-5.0325,-5.0302,-5.0325,-5.0325,-5.0325,-5.0302,-5.0302,-5.0302,-5.0302,-5.0302,-5.0302,-5.0302,-5.0302,-5.0302,-5.0302,-5.0302,-5.0245,-5.0168,-5.0054,-4.9805,-4.9595,-4.9519,-4.9385,-4.9251,-4.8774,-4.8353,-4.7783,-4.7114,-4.6583,-4.6088,-4.5879,-4.5515,-4.5705,-4.5722,-4.5701,-4.574,-4.572,-4.574,-4.5701,-4.5624,-4.5586,-4.5586,-4.5586,-4.5586,-4.5586,-4.5586,-4.5586,-4.5531,-4.5495,-5.946,-5.893,-5.7933,-5.7559,-5.7318,-5.5567,-5.5066,-5.5288,-5.4672,-5.4766,-5.5296,-5.493,-5.5115,-5.5766,-5.6481,-5.662,-5.6565,-5.7464,-5.796,-5.7813,-5.7244,-5.6804,-5.6646,-5.6215,-5.6366,-5.6967,-5.7265,-5.768,-5.7724,-5.8147,-5.8625,-5.8127,-5.7714,-5.716,-5.7351,-5.6492,-5.588,-5.5556,-5.5377,-5.5313,-5.514,-5.4962,-5.4903,-5.5113,-5.5094,-5.5214,-5.5358,-5.5365,-5.483,-5.3645,-5.3148,-5.227,-5.1219,-5.0627,-5.0302,-5.0302,-5.0302,-5.0302,-5.0302,-5.0302,-5.0302,-5.0302,-5.0302,-5.0302,-5.0283,-5.0325,-5.0348,-5.0348,-5.0348,-5.0348,-5.0325,-5.0325,-5.0302,-5.0302,-5.0302,-5.0302,-5.0302,-5.0302,-5.0302,-5.0302,-5.0302,-5.0302,-5.0302,-5.0245,-5.0206,-5.0092,-4.9939,-4.9882,-4.9652,-4.9404,-4.8774,-4.799,-4.7363,-4.6717,-4.6203,-4.5726,-4.5726,-4.5629,-4.63,-4.624,-4.599,-4.5951,-4.6028,-4.6086,-4.6124,-4.599,-4.5701,-4.5586,-4.5586,-4.5586,-4.5586,-4.5586,-4.5586,-4.555,-4.5515,-5.8424,-5.7641,-5.6893,-5.6593,-5.6517,-5.4968,-5.4558,-5.4801,-5.4764,-5.4857,-5.5044,-5.4869,-5.4861,-5.522,-5.5886,-5.6381,-5.6528,-5.7538,-5.7905,-5.7721,-5.7262,-5.6859,-5.6547,-5.6103,-5.6011,-5.6608,-5.685,-5.7469,-5.8382,-5.8758,-5.8359,-5.7542,-5.8192,-5.7772,-5.7103,-5.6625,-5.6167,-5.546,-5.526,-5.5187,-5.514,-5.4914,-5.5009,-5.5085,-5.5113,-5.5113,-5.5332,-5.5403,-5.4963,-5.4104,-5.3225,-5.2384,-5.1544,-5.076,-5.034,-5.0302,-5.0302,-5.0302,-5.0302,-5.0302,-5.0302,-5.0302,-5.0302,-5.0302,-5.0302,-5.0348,-5.039,-5.0367,-5.0367,-5.0367,-5.0367,-5.0325,-5.0302,-5.0302,-5.0325,-5.0302,-5.0302,-5.0302,-5.0302,-5.0302,-5.0302,-5.0302,-5.0302,-5.0302,-5.0283,-5.0302,-5.0264,-5.0206,-4.9866,-4.9427,-4.857,-4.7673,-4.6872,-4.6299,-4.6014,-4.5611,-4.5552,-4.5801,-4.6491,-4.649,-4.6067,-4.6259,-4.6547,-4.6586,-4.6394,-4.6067,-4.5624,-4.5605,-4.5586,-4.5586,-4.5586,-4.5568,-4.555,-4.5514,-4.5688,-5.761,-5.6864,-5.6422,-5.623,-5.6174,-5.4954,-5.4031,-5.382,-5.492,-5.4957,-5.4483,-5.4448,-5.4117,-5.4014,-5.506,-5.5794,-5.5794,-5.7299,-5.7813,-5.7703,-5.7244,-5.6859,-5.6602,-5.6485,-5.645,-5.7566,-5.766,-5.8151,-5.8753,-5.9003,-5.9388,-5.9922,-5.9071,-5.8479,-5.7753,-5.6988,-5.6205,-5.5504,-5.5187,-5.499,-5.4962,-5.4836,-5.4855,-5.4962,-5.5187,-5.5358,-5.5403,-5.5403,-5.5116,-5.4276,-5.332,-5.2594,-5.1811,-5.0837,-5.0359,-5.0302,-5.0302,-5.0302,-5.0302,-5.0302,-5.0302,-5.0302,-5.0302,-5.0302,-5.0302,-5.0302,-5.0302,-5.0325,-5.0325,-5.0325,-5.0302,-5.0302,-5.0302,-5.0302,-5.0344,-5.0325,-5.0325,-5.0348,-5.0325,-5.0302,-5.0302,-5.0302,-5.0302,-5.0325,-5.0325,-5.0325,-5.031,-5.0275,-4.9666,-4.9152,-4.8215,-4.7316,-4.6377,-4.5918,-4.5822,-4.5801,-4.6146,-4.6319,-4.6741,-4.6394,-4.5817,-4.6259,-4.7124,-4.6355,-4.6028,-4.5797,-4.5643,-4.5605,-4.5549,-4.5566,-4.5549,-4.5531,-4.5495,-4.5457,-4.5841,-5.6785,-5.6132,-5.6436,-5.6258,-5.5797,-5.5331,-5.4675,-5.4106,-5.4583,-5.4418,-5.3757,-5.4106,-5.3959,-5.383,-5.4785,-5.5592,-5.5739,-5.6712,-5.7409,-5.7409,-5.6877,-5.6767,-5.6856,-5.7235,-5.7423,-5.8502,-5.8781,-5.9167,-5.9808,-5.9558,-5.9836,-6.0017,-5.9568,-5.9071,-5.8326,-5.7275,-5.6243,-5.5606,-5.5279,-5.5168,-5.5113,-5.4914,-5.4914,-5.5187,-5.4962,-5.5187,-5.5332,-5.5403,-5.5174,-5.4639,-5.3511,-5.2766,-5.2117,-5.1009,-5.0397,-5.0302,-5.0302,-5.034,-5.0378,-5.034,-5.0302,-5.0302,-5.0302,-5.0302,-5.0321,-5.0302,-5.0302,-5.0302,-5.0302,-5.0302,-5.0302,-5.0302,-5.0302,-5.0302,-5.0344,-5.0344,-5.0325,-5.0348,-5.0348,-5.0302,-5.0302,-5.0302,-5.0325,-5.0344,-5.0348,-5.0371,-5.0355,-5.0243,-4.9731,-4.9215,-4.845,-4.7875,-4.7069,-4.6762,-4.6723,-4.6799,-4.6856,-4.6876,-4.6971,-4.6413,-4.6009,-4.7048,-4.7528,-4.6586,-4.5855,-4.5893,-4.5817,-4.5626,-4.5531,-4.5531,-4.5513,-4.5495,-4.5457,-4.5419,-4.6013,-5.662,-5.6381,-5.6914,-5.6547,-5.5684,-5.5849,-5.5482,-5.4932,-5.5354,-5.484,-5.394,-5.4087,-5.3757,-5.372,-5.4528,-5.5188,-5.5508,-5.6367,-5.7026,-5.7186,-5.7143,-5.7199,-5.7696,-5.8129,-5.8427,-5.9286,-5.9502,-5.9785,-6.0293,-6.0246,-6.0246,-6.0132,-5.9816,-5.9472,-5.8689,-5.7504,-5.6274,-5.5736,-5.5453,-5.5422,-5.5332,-5.5187,-5.5066,-5.5332,-5.514,-5.5187,-5.5332,-5.5403,-5.5403,-5.4791,-5.3913,-5.2938,-5.2212,-5.1429,-5.0493,-5.0321,-5.034,-5.0417,-5.065,-5.0684,-5.0684,-5.0799,-5.0779,-5.0627,-5.0378,-5.0302,-5.0302,-5.0302,-5.0302,-5.0321,-5.0359,-5.0302,-5.0302,-5.0302,-5.0367,-5.0367,-5.0325,-5.0325,-5.0325,-5.0302,-5.0302,-5.0321,-5.0367,-5.039,-5.0416,-5.0438,-5.0459,-5.0423,-5.0234,-4.9698,-4.9182,-4.8683,-4.8222,-4.8068,-4.801,-4.7491,-4.6991,-4.6895,-4.6874,-4.6528,-4.6509,-4.7375,-4.7394,-4.6259,-4.5817,-4.6047,-4.5914,-4.5608,-4.5513,-4.5513,-4.5476,-4.5438,-4.5553,-4.5647,-4.6317,-5.7171,-5.7905,-5.7886,-5.7024,-5.5739,-5.6455,-5.6271,-5.5592,-5.6602,-5.64,-5.4913,-5.3922,-5.3335,-5.3427,-5.4234,-5.4601,-5.4945,-5.6256,-5.6941,-5.6796,-5.7481,-5.8127,-5.8409,-5.8596,-5.8872,-5.9477,-5.9408,-5.9469,-6.0274,-5.9949,-6.0006,-6.0313,-6.0179,-5.9769,-5.9033,-5.7485,-5.6463,-5.5996,-5.5633,-5.5549,-5.5377,-5.5332,-5.5377,-5.5351,-5.5332,-5.5332,-5.5358,-5.5403,-5.5403,-5.5116,-5.3894,-5.311,-5.2824,-5.1505,-5.0741,-5.0608,-5.055,-5.0898,-5.1576,-5.1606,-5.1601,-5.1372,-5.1162,-5.0875,-5.0455,-5.0302,-5.0417,-5.055,-5.0627,-5.055,-5.0436,-5.0512,-5.0722,-5.0646,-5.0769,-5.0616,-5.0612,-5.0325,-5.0302,-5.0417,-5.0397,-5.0359,-5.0386,-5.0432,-5.0478,-5.0502,-5.0563,-5.0525,-5.0469,-5.0258,-4.9759,-4.9567,-4.9202,-4.9087,-4.876,-4.7702,-4.7163,-4.7028,-4.6797,-4.649,-4.6259,-4.6547,-4.6297,-4.5682,-4.5682,-4.5818,-4.5686,-4.5533,-4.5668,-4.5803,-4.5496,-4.5417,-4.5568,-4.5929,-4.6638,-5.6143,-5.6492,-5.7538,-5.706,-5.5812,-5.6455,-5.6326,-5.5574,-5.5097,-5.4528,-5.4032,-5.3335,-5.3206,-5.3463,-5.394,-5.4363,-5.4553,-5.4761,-5.5397,-5.6955,-5.745,-5.7997,-5.839,-5.8653,-5.8826,-5.8786,-5.8609,-5.8791,-5.951,-5.934,-5.9817,-6.0217,-6.0218,-5.976,-5.8908,-5.7878,-5.737,-5.6288,-5.6035,-5.5995,-5.5479,-5.5422,-5.5403,-5.5403,-5.5403,-5.5403,-5.5403,-5.5403,-5.5403,-5.5288,-5.4085,-5.3626,-5.3435,-5.2308,-5.1888,-5.1888,-5.1945,-5.2365,-5.3044,-5.3211,-5.27,-5.2007,-5.1334,-5.099,-5.0359,-5.0302,-5.0569,-5.1123,-5.1525,-5.1677,-5.2002,-5.2594,-5.2728,-5.204,-5.1854,-5.1391,-5.1142,-5.0588,-5.034,-5.055,-5.0627,-5.0906,-5.1028,-5.0613,-5.0521,-5.0563,-5.0623,-5.0623,-5.0586,-5.0606,-5.0336,-5.0356,-5.0164,-5.001,-4.9567,-4.8567,-4.776,-4.7549,-4.7068,-4.6528,-4.6317,-4.6126,-4.5953,-4.576,-4.5627,-4.5532,-4.5822,-4.6071,-4.6147,-4.6144,-4.5971,-4.595,-4.6197,-4.656,-4.6999,-5.5923,-5.6492,-5.7244,-5.7005,-5.618,-5.6583,-5.6345,-5.5445,-5.4216,-5.3628,-5.361,-5.339,-5.3206,-5.3371,-5.3702,-5.3995,-5.4032,-5.487,-5.4785,-5.6554,-5.7417,-5.778,-5.8164,-5.8571,-5.86,-5.8299,-5.8111,-5.8268,-5.8689,-5.8689,-5.9128,-5.9683,-5.9977,-5.9652,-5.9046,-5.8684,-5.8133,-5.7175,-5.6835,-5.632,-5.5899,-5.5632,-5.5403,-5.5403,-5.5403,-5.5403,-5.5403,-5.5403,-5.5384,-5.5154,-5.4715,-5.4161,-5.3894,-5.3397,-5.2862,-5.2805,-5.3211,-5.3498,-5.388,-5.4063,-5.3427,-5.2747,-5.1907,-5.1505,-5.1257,-5.1353,-5.1563,-5.204,-5.2575,-5.2728,-5.2977,-5.3722,-5.355,-5.2805,-5.2308,-5.1849,-5.1505,-5.0951,-5.0417,-5.0646,-5.073,-5.1124,-5.1401,-5.0962,-5.0582,-5.0623,-5.0643,-5.0682,-5.0682,-5.0663,-5.0663,-5.0605,-5.0586,-5.0374,-5.0028,-4.9451,-4.874,-4.8164,-4.7396,-4.6607,-4.6262,-4.6071,-4.5955,-4.5916,-4.6052,-4.6206,-4.6493,-4.6702,-4.6908,-4.6925,-4.6732,-4.6768,-4.692,-4.7207,-4.7554,-5.6455,-5.7703,-5.7097,-5.6712,-5.6675,-5.6528,-5.618,-5.5464,-5.4693,-5.4308,-5.4252,-5.3445,-5.3225,-5.3206,-5.3261,-5.3316,-5.3524,-5.4999,-5.5154,-5.5653,-5.7197,-5.7479,-5.7749,-5.8091,-5.8053,-5.7889,-5.7657,-5.7409,-5.7829,-5.8096,-5.8517,-5.8959,-5.9203,-5.9265,-5.9279,-5.9201,-5.8707,-5.8,-5.7511,-5.6924,-5.6396,-5.5899,-5.5613,-5.5479,-5.5403,-5.5403,-5.5403,-5.5403,-5.5403,-5.5154,-5.4696,-5.4352,-5.3932,-5.3339,-5.3053,-5.3173,-5.3847,-5.4134,-5.4301,-5.4407,-5.4325,-5.3932,-5.3951,-5.355,-5.2862,-5.2346,-5.248,-5.2785,-5.3225,-5.3148,-5.3244,-5.3397,-5.3531,-5.2977,-5.2461,-5.2117,-5.183,-5.1334,-5.0722,-5.0574,-5.0524,-5.0744,-5.1041,-5.0814,-5.0603,-5.0603,-5.0603,-5.0582,-5.0582,-5.0584,-5.0563,-5.0542,-5.0542,-5.0521,-5.0176,-4.9756,-4.9238,-4.8528,-4.7434,-4.6647,-4.6321,-4.6282,-4.6359,-4.6494,-4.6685,-4.6876,-4.7103,-4.7444,-4.7821,-4.7742,-4.7627,-4.7685,-4.7837,-4.7857,-4.8181,-5.5354,-5.6235,-5.6033,-5.5629,-5.5133,-5.5115,-5.495,-5.4693,-5.4473,-5.4124,-5.3537,-5.3316,-5.3206,-5.3206,-5.3206,-5.3206,-5.3414,-5.382,-5.4576,-5.5507,-5.6553,-5.7017,-5.7301,-5.7409,-5.7237,-5.6874,-5.6587,-5.6568,-5.7046,-5.7428,-5.7867,-5.8243,-5.8534,-5.8869,-5.919,-5.946,-5.9026,-5.857,-5.8158,-5.7497,-5.6778,-5.6224,-5.5842,-5.5536,-5.5403,-5.5403,-5.5403,-5.5403,-5.5403,-5.5269,-5.5154,-5.5021,-5.4963,-5.4772,-5.4658,-5.4658,-5.4937,-5.5058,-5.5027,-5.5014,-5.5,-5.4906,-5.4944,-5.4085,-5.3339,-5.3015,-5.3244,-5.3626,-5.4046,-5.4142,-5.4276,-5.4409,-5.4371,-5.4027,-5.3492,-5.2996,-5.2652,-5.2007,-5.1395,-5.0967,-5.0897,-5.0692,-5.0929,-5.0776,-5.0603,-5.0582,-5.0542,-5.05,-5.05,-5.05,-5.05,-5.0478,-5.0478,-5.0457,-5.021,-4.981,-4.9369,-4.8774,-4.7815,-4.7201,-4.7259,-4.7221,-4.7068,-4.7163,-4.7468,-4.758,-4.7649,-4.8105,-4.8697,-4.8735,-4.8659,-4.8678,-4.8716,-4.8621,-4.8812,-5.4675,-5.5078,-5.5115,-5.4821,-5.4454,-5.4418,-5.4418,-5.4418,-5.4418,-5.4087,-5.3683,-5.3371,-5.3206,-5.3206,-5.3206,-5.3225,-5.3243,-5.3744,-5.4226,-5.454,-5.5557,-5.6071,-5.6453,-5.663,-5.6492,-5.6052,-5.5785,-5.5804,-5.6282,-5.6893,-5.739,-5.742,-5.7821,-5.8253,-5.8597,-5.8889,-5.8817,-5.8528,-5.8196,-5.7726,-5.7065,-5.632,-5.5804,-5.5536,-5.5403,-5.5403,-5.5403,-5.5403,-5.5403,-5.5403,-5.5403,-5.5403,-5.5384,-5.5365,-5.5345,-5.5269,-5.5295,-5.5314,-5.5288,-5.5314,-5.5371,-5.5384,-5.5384,-5.4887,-5.4428,-5.4123,-5.4314,-5.4581,-5.5002,-5.5365,-5.5575,-5.5708,-5.5556,-5.5365,-5.4734,-5.411,-5.346,-5.2777,-5.2211,-5.1667,-5.1327,-5.1024,-5.0853,-5.0699,-5.0582,-5.05,-5.0478,-5.0416,-5.0416,-5.0435,-5.0435,-5.0412,-5.0412,-5.0393,-5.0128,-4.9959,-4.9611,-4.9209,-4.8632,-4.8173,-4.8252,-4.8041,-4.7752,-4.7963,-4.8343,-4.8471,-4.8621,-4.9098,-4.9576,-4.9519,-4.948,-4.95,-4.9347,-4.9079,-4.9427,-5.4308,-5.4308,-5.4308,-5.4234,-5.4216,-5.4289,-5.4418,-5.4418,-5.4418,-5.4344,-5.4106,-5.361,-5.3335,-5.3261,-5.3206,-5.3206,-5.3353,-5.3702,-5.3924,-5.3832,-5.5244,-5.5824,-5.5721,-5.5881,-5.5931,-5.5613,-5.5422,-5.5498,-5.5632,-5.6129,-5.6549,-5.6542,-5.6966,-5.7384,-5.7805,-5.822,-5.8152,-5.7815,-5.7794,-5.7581,-5.674,-5.5995,-5.5479,-5.5422,-5.5403,-5.5403,-5.5403,-5.5403,-5.5403,-5.5403,-5.5403,-5.5403,-5.5403,-5.5403,-5.5403,-5.5403,-5.5384,-5.5384,-5.5384,-5.5384,-5.5384,-5.5403,-5.5384,-5.525,-5.4982,-5.4868,-5.4982,-5.5021,-5.5326,-5.5403,-5.5536,-5.5575,-5.5479,-5.5365,-5.4963,-5.4626,-5.4287,-5.3532,-5.2759,-5.2173,-5.1504,-5.12,-5.0757,-5.0582,-5.0521,-5.0457,-5.0371,-5.0348,-5.0386,-5.0409,-5.0409,-5.0386,-5.039,-5.0371,-5.0333,-5.0122,-4.9908,-4.9522,-4.9102,-4.9105,-4.9127,-4.8799,-4.8395,-4.8799,-4.9261,-4.9541,-4.9786,-4.9996,-5.0034,-5.0054,-5.0054,-5.0187,-5.0015,-4.9614,-4.9752,-5.35,-5.35,-5.35,-5.3151,-5.2766,-5.3885,-5.4399,-5.4418,-5.4418,-5.4087,-5.3647,-5.3849,-5.372,-5.3261,-5.3206,-5.3206,-5.3316,-5.3506,-5.3788,-5.3963,-5.4868,-5.523,-5.518,-5.55,-5.5549,-5.5479,-5.5403,-5.5403,-5.5479,-5.5651,-5.5747,-5.5778,-5.6159,-5.6606,-5.6943,-5.7376,-5.7424,-5.6981,-5.7562,-5.7351,-5.6511,-5.6358,-5.611,-5.5651,-5.5403,-5.5403,-5.5403,-5.5403,-5.5403,-5.5403,-5.5403,-5.5403,-5.5403,-5.5403,-5.5403,-5.5403,-5.5403,-5.5403,-5.5403,-5.5403,-5.5403,-5.5403,-5.5403,-5.5403,-5.5384,-5.5403,-5.5403,-5.5403,-5.5403,-5.5403,-5.5403,-5.5403,-5.5384,-5.5288,-5.5193,-5.5129,-5.5044,-5.4215,-5.3325,-5.2619,-5.1853,-5.1276,-5.0813,-5.0562,-5.0478,-5.0416,-5.0348,-5.0344,-5.044,-5.0478,-5.0463,-5.0444,-5.039,-5.0371,-5.0348,-5.031,-5.0119,-4.9885,-4.9545,-4.9679,-4.9969,-4.9682,-4.9398,-4.9778,-5.0179,-5.0195,-5.0172,-5.0206,-5.0264,-5.0302,-5.0302,-5.0302,-5.0302,-4.9996,-5.0115,-5.2901,-5.2645,-5.3036,-5.2729,-5.238,-5.372,-5.4014,-5.3592,-5.4436,-5.4289,-5.3335,-5.3628,-5.361,-5.3225,-5.3206,-5.3206,-5.3206,-5.3225,-5.3414,-5.3717,-5.4088,-5.4458,-5.4754,-5.5085,-5.5298,-5.5332,-5.5377,-5.5403,-5.5332,-5.5422,-5.5434,-5.5408,-5.5665,-5.5855,-5.6179,-5.6577,-5.6635,-5.6167,-5.7275,-5.7141,-5.6396,-5.6301,-5.6148,-5.5651,-5.5403,-5.5403,-5.5403,-5.5403,-5.5403,-5.5403,-5.5403,-5.5403,-5.5403,-5.5403,-5.5403,-5.5403,-5.5403,-5.5403,-5.5403,-5.5403,-5.5403,-5.5403,-5.5403,-5.5403,-5.5403,-5.5403,-5.5403,-5.5403,-5.5403,-5.5403,-5.5403,-5.5403,-5.5403,-5.5326,-5.5307,-5.5275,-5.5063,-5.4518,-5.3951,-5.3552,-5.2634,-5.1557,-5.1094,-5.0613,-5.0645,-5.1079,-5.0894,-5.0875,-5.0875,-5.0569,-5.0535,-5.0578,-5.0581,-5.0447,-5.0371,-5.0371,-5.0333,-5.0099,-5.0004,-5.0125,-5.0301,-5.0402,-5.0459,-5.0416,-5.0352,-5.0329,-5.0325,-5.0302,-5.0302,-5.0302,-5.0302,-5.0302,-5.0321,-5.0359,-5.0325,-5.2541,-5.1974,-5.2791,-5.2656,-5.2179,-5.3683,-5.3518,-5.2582,-5.4381,-5.4564,-5.3335,-5.3243,-5.3206,-5.3206,-5.3206,-5.3206,-5.3206,-5.3206,-5.3248,-5.344,-5.368,-5.4088,-5.4397,-5.4642,-5.4874,-5.5057,-5.5132,-5.5132,-5.5132,-5.5132,-5.5132,-5.5233,-5.5279,-5.5298,-5.5515,-5.5813,-5.593,-5.6126,-5.6656,-5.6714,-5.6408,-5.6167,-5.5976,-5.5689,-5.5403,-5.5403,-5.5403,-5.5403,-5.5403,-5.5403,-5.5403,-5.5403,-5.5403,-5.5403,-5.5403,-5.5403,-5.5403,-5.5403,-5.5403,-5.5403,-5.5403,-5.5403,-5.5403,-5.5403,-5.5403,-5.5403,-5.5403,-5.5403,-5.5403,-5.5403,-5.5403,-5.5403,-5.5403,-5.5384,-5.5384,-5.539,-5.5077,-5.4843,-5.458,-5.4296,-5.3315,-5.2165,-5.1564,-5.1063,-5.1174,-5.1606,-5.1697,-5.1716,-5.1563,-5.1009,-5.0707,-5.0826,-5.0903,-5.073,-5.0466,-5.0661,-5.0757,-5.073,-5.0692,-5.0645,-5.0634,-5.0657,-5.0598,-5.0457,-5.0412,-5.039,-5.0344,-5.0302,-5.0302,-5.0512,-5.0302,-5.0359,-5.0665,-5.0646,-5.0402,-5.2375,-5.1718,-5.2773,-5.2339,-5.1399,-5.3366,-5.3482,-5.2435,-5.3794,-5.4069,-5.3353,-5.3188,-5.3206,-5.3206,-5.3206,-5.3164,-5.3103,-5.3164,-5.3381,-5.3623,-5.3584,-5.3907,-5.4193,-5.4397,-5.443,-5.4546,-5.461,-5.4546,-5.4704,-5.4661,-5.4546,-5.4578,-5.4578,-5.4673,-5.4893,-5.5166,-5.5451,-5.5874,-5.6359,-5.6559,-5.6561,-5.6339,-5.6052,-5.5747,-5.5403,-5.5403,-5.5403,-5.5403,-5.5403,-5.5403,-5.5403,-5.5403,-5.5403,-5.5403,-5.5403,-5.5403,-5.5403,-5.5403,-5.5403,-5.5403,-5.5403,-5.5403,-5.5403,-5.5403,-5.5403,-5.5403,-5.5403,-5.5403,-5.5403,-5.5403,-5.5403,-5.5403,-5.5403,-5.5384,-5.539,-5.5396,-5.5255,-5.5145,-5.502,-5.4637,-5.4043,-5.3215,-5.2633,-5.2303,-5.2203,-5.2408,-5.2117,-5.2155,-5.2442,-5.1735,-5.1013,-5.1185,-5.1376,-5.0883,-5.0581,-5.1204,-5.1395,-5.1385,-5.1419,-5.1449,-5.1286,-5.0873,-5.0776,-5.0766,-5.055,-5.0454,-5.039,-5.0569,-5.0894,-5.1066,-5.0531,-5.0436,-5.0837,-5.1009,-5.0818]}]]